[[[{"header":{"parameterUnit":"kt","parameterCategory":2,"dx":1,"dy":1,"la1":29.587661999999998,"la2":31.0,"lo1":-88.76705300000003,"lo2":-86.6583820000003,"nx":115,"ny":88,"refTime":"2022-10-18T18:00:00:Z","depth":0,"parameterNumber":1,"parameterNumberName":"U-component_of_WINDS"},"data":[7.919,7.9264,7.9563,8.0461,8.162,8.1769,8.2517,8.3639,8.3639,8.3975,8.4499,8.5882,8.7228,8.8574,8.8612,8.8612,8.8612,8.8612,8.8612,8.8577,8.8363,8.809,8.7739,8.7206,8.694,8.73,8.8146,8.9618,9.0688,9.2365,9.3507,9.3899,9.3935,9.4006,9.4185,9.5469,9.6967,9.8573,10.0107,10.1605,10.2925,10.3425,10.3425,10.3425,10.3425,10.3425,10.3425,10.3425,10.3425,10.3425,10.3425,10.3425,10.3425,10.3425,10.3425,10.3425,10.3425,10.3425,10.3425,10.3425,10.3425,10.3425,10.3425,10.3425,10.3425,10.3425,10.1605,9.711,9.4185,9.4185,9.3935,9.3935,9.3971,9.3971,9.3971,9.3971,9.3935,9.3935,9.3935,9.3935,9.3935,9.3935,9.3935,9.3935,9.3935,9.3935,9.3935,9.6254,9.6646,9.8466,10.0499,10.1498,10.2533,10.3425,10.3425,10.3425,10.3425,10.3425,10.3425,10.3425,10.3425,10.3425,10.3425,10.3425,10.3425,10.3425,10.3425,10.3425,10.3141,10.2937,10.235,10.1872,10.1817,10.1079,9.9443,8.0947,8.1171,8.248,8.3265,8.3452,8.3452,8.3676,8.3863,8.3863,8.4648,8.5957,8.7527,8.8275,8.8574,8.8612,8.8612,8.8612,8.8612,8.8577,8.8472,8.8325,8.8008,8.7538,8.6926,8.6455,8.6488,8.6924,8.8152,8.9797,9.1366,9.2793,9.3721,9.3935,9.3971,9.4399,9.5576,9.7396,9.9037,10.0606,10.1998,10.2783,10.3425,10.3425,10.3425,10.3425,10.3425,10.3425,10.3425,10.3425,10.3425,10.3425,10.3425,10.3425,10.3425,10.3425,10.3425,10.3425,10.3425,10.3425,10.3425,10.3425,10.3425,10.3425,10.3425,10.3425,10.3425,10.3425,10.025,9.6111,9.4506,9.4113,9.3935,9.3971,9.4006,9.4006,9.4006,9.3971,9.3935,9.3935,9.3935,9.3935,9.3935,9.3935,9.3935,9.3935,9.3935,9.5148,9.7824,10.0071,10.1213,10.1926,10.2783,10.3425,10.3425,10.3425,10.3425,10.3425,10.3425,10.3425,10.3425,10.3425,10.3425,10.3425,10.3425,10.3425,10.3425,10.3425,10.3425,10.3425,10.3342,10.2646,10.2051,10.1907,10.1267,9.9613,8.2661,8.2741,8.3489,8.4274,8.4985,8.506,8.562,8.6368,8.648,8.6854,8.7639,8.82,8.8612,8.8612,8.8612,8.8612,8.8612,8.8612,8.8577,8.8436,8.8211,8.7888,8.74,8.6862,8.6181,8.5671,8.6046,8.7115,8.9261,9.076,9.2222,9.3685,9.4006,9.4399,9.5576,9.6896,9.8537,9.9964,10.1677,10.2711,10.3246,10.3425,10.3425,10.3425,10.3425,10.3425,10.3425,10.3425,10.3425,10.3425,10.3425,10.3425,10.3425,10.3425,10.3425,10.3425,10.3425,10.3425,10.3425,10.3425,10.3425,10.3425,10.3425,10.3425,10.3425,10.3425,10.3425,10.2997,9.8894,9.5861,9.5469,9.422,9.4149,9.4902,9.5152,9.4791,9.4577,9.4506,9.447,9.4327,9.4042,9.4042,9.3935,9.3935,9.4399,9.4541,9.868,10.1677,10.2176,10.2961,10.3104,10.3425,10.3425,10.3425,10.3425,10.3425,10.3425,10.3425,10.3425,10.3425,10.3425,10.3425,10.3425,10.3425,10.3425,10.3425,10.3425,10.3425,10.3425,10.3342,10.2852,10.235,10.2086,10.1636,10.0212,8.4344,8.4349,8.476,8.5583,8.6667,8.6705,8.7452,8.8574,8.8612,8.8499,8.8612,8.8612,8.8612,8.8612,8.8612,8.8612,8.8612,8.8612,8.8505,8.8362,8.8172,8.7846,8.7363,8.6774,8.6217,8.5635,8.5527,8.6208,8.7797,8.9832,9.1687,9.315,9.3935,9.472,9.6147,9.7717,9.9286,10.0749,10.2247,10.3211,10.3425,10.3425,10.3425,10.3425,10.3425,10.3425,10.3425,10.3425,10.3425,10.3425,10.3425,10.3425,10.3425,10.3425,10.3425,10.3425,10.3425,10.3425,10.3425,10.3425,10.3425,10.3425,10.3425,10.3425,10.3425,10.3425,10.3425,10.3425,10.1998,9.9179,9.6967,9.5433,9.447,9.5687,9.6692,9.6044,9.5322,9.5326,9.5295,9.4902,9.4327,9.4113,9.3971,9.422,9.4791,9.7574,10.1641,10.3282,10.3389,10.3425,10.3425,10.3425,10.3425,10.3425,10.3425,10.3425,10.3425,10.3425,10.3425,10.3425,10.3425,10.3425,10.3425,10.3425,10.3425,10.3425,10.3425,10.3425,10.3342,10.3307,10.2937,10.2646,10.2298,10.1762,10.054,8.5924,8.6069,8.7602,8.8088,8.8425,8.8312,8.8425,8.8612,8.8612,8.8612,8.8612,8.8612,8.8612,8.8612,8.8612,8.8612,8.8612,8.8612,8.8543,8.8288,8.8096,8.7803,8.7269,8.6722,8.6125,8.5659,8.541,8.5348,8.6079,8.8155,9.0617,9.1759,9.315,9.497,9.6646,9.8145,9.975,10.132,10.2676,10.3425,10.3425,10.3425,10.3425,10.3425,10.3425,10.3425,10.3425,10.3425,10.3425,10.3425,10.3425,10.3425,10.3425,10.3425,10.3425,10.3425,10.3425,10.3425,10.3425,10.3425,10.3425,10.3425,10.3425,10.3425,10.3425,10.3425,10.3425,10.3425,10.3318,10.0999,9.8287,9.6504,9.6498,9.761,9.8044,9.7503,9.7288,9.7549,9.7621,9.7645,9.6646,9.4042,9.4149,9.6789,9.7538,10.0606,10.3246,10.3353,10.3425,10.3425,10.3425,10.3425,10.3425,10.3425,10.3425,10.3425,10.3425,10.3425,10.3425,10.3425,10.3425,10.3425,10.3425,10.3425,10.3425,10.3425,10.3425,10.3425,10.3342,10.3307,10.3105,10.2852,10.2386,10.1762,10.0637,8.7639,8.7752,8.8387,8.8612,8.8612,8.8612,8.8612,8.8612,8.8612,8.8612,8.8612,8.8612,8.8612,8.8612,8.8612,8.8612,8.8612,8.8612,8.8507,8.8288,8.8096,8.7723,8.7306,8.6758,8.6125,8.5659,8.5203,8.4954,8.5547,8.7585,8.9975,9.1509,9.3114,9.5291,9.7181,9.8466,10.0071,10.1748,10.2961,10.3318,10.3425,10.3425,10.3425,10.3425,10.3425,10.3425,10.3425,10.3425,10.3425,10.3425,10.3425,10.3425,10.3425,10.3425,10.3425,10.3425,10.3425,10.3425,10.3425,10.3425,10.3425,10.3425,10.3425,10.3425,10.3425,10.3425,10.3425,10.3425,10.3282,10.2676,10.0036,9.7931,9.878,9.9635,9.935,9.9029,9.9365,9.9771,10.0051,10.0321,9.8501,9.554,9.579,9.8466,10.0892,10.2176,10.289,10.3175,10.3425,10.3425,10.3425,10.3425,10.3425,10.3425,10.3425,10.3425,10.3425,10.3425,10.3425,10.3425,10.3425,10.3425,10.3425,10.3425,10.3425,10.3425,10.3425,10.3425,10.3342,10.3224,10.3105,10.2852,10.2473,10.1762,10.0602,8.8612,8.8612,8.8612,8.8612,8.8612,8.8612,8.8612,8.8612,8.8612,8.8612,8.8612,8.8612,8.8612,8.8612,8.8612,8.8612,8.8612,8.8612,8.847,8.8288,8.8096,8.7723,8.7269,8.6758,8.6125,8.5599,8.5203,8.4954,8.5226,8.6229,8.8548,9.1081,9.2865,9.5683,9.7574,9.8787,10.0428,10.1962,10.3032,10.3318,10.3425,10.3425,10.3425,10.3425,10.3425,10.3425,10.3425,10.3425,10.3425,10.3425,10.3425,10.3425,10.3425,10.3425,10.3425,10.3425,10.3425,10.3425,10.3425,10.3425,10.3425,10.3425,10.3425,10.3425,10.3425,10.3425,10.3425,10.3425,10.3353,10.3318,10.1641,10.0464,10.0606,10.1168,10.1382,10.1132,10.1106,10.1472,10.1757,10.1819,10.0963,9.8573,9.8573,10.0713,10.1534,10.1998,10.2533,10.3104,10.3425,10.3425,10.3425,10.3425,10.3425,10.3425,10.3425,10.3425,10.3425,10.3425,10.3425,10.3425,10.3425,10.3425,10.3425,10.3425,10.3425,10.3425,10.3425,10.3425,10.3425,10.3307,10.3021,10.2852,10.2473,10.1727,10.0699,8.8612,8.8612,8.8612,8.8612,8.8612,8.8612,8.8612,8.8612,8.8612,8.8612,8.8612,8.8612,8.8612,8.8612,8.8612,8.8612,8.8612,8.8612,8.847,8.8251,8.8096,8.7723,8.7269,8.6758,8.6125,8.5599,8.5203,8.4919,8.4619,8.5444,8.7049,8.944,9.2508,9.5362,9.7396,9.8537,9.9536,10.1284,10.2462,10.3068,10.3425,10.3425,10.3425,10.3425,10.3425,10.3425,10.3425,10.3425,10.3425,10.3425,10.3425,10.3425,10.3425,10.3425,10.3425,10.3425,10.3425,10.3425,10.3425,10.3425,10.3425,10.3425,10.3425,10.3425,10.3425,10.3425,10.3425,10.3425,10.3425,10.3425,10.3425,10.2783,10.214,10.2497,10.2879,10.2843,10.2783,10.2854,10.3139,10.2854,10.1998,10.1712,10.1498,10.1819,10.2711,10.2925,10.2997,10.3425,10.3425,10.3425,10.3425,10.3425,10.3425,10.3425,10.3425,10.3425,10.3425,10.3425,10.3425,10.3425,10.3425,10.3425,10.3425,10.3425,10.3425,10.3425,10.3425,10.3425,10.3425,10.3224,10.2937,10.2852,10.2937,10.2032,10.0506,8.8612,8.8612,8.8612,8.8612,8.8612,8.8612,8.8612,8.8612,8.8612,8.8612,8.8612,8.8612,8.8612,8.8612,8.8612,8.8612,8.8612,8.8612,8.8505,8.8251,8.8133,8.776,8.7269,8.6722,8.6125,8.5635,8.5239,8.4919,8.4516,8.4516,8.6336,8.9261,9.233,9.4863,9.6432,9.7574,9.843,10.0357,10.1391,10.2283,10.3068,10.3318,10.3353,10.3425,10.3425,10.3425,10.3425,10.3425,10.3425,10.3425,10.3425,10.3425,10.3425,10.3425,10.3425,10.3425,10.3425,10.3425,10.3425,10.3425,10.3425,10.3425,10.3425,10.3425,10.3425,10.3425,10.3425,10.3425,10.3425,10.3425,10.3425,10.3425,10.2997,10.2997,10.32,10.32,10.3139,10.3032,10.3211,10.3282,10.2818,10.2997,10.3032,10.3211,10.3318,10.3425,10.3425,10.3425,10.3425,10.3425,10.3425,10.3425,10.3425,10.3425,10.3425,10.3425,10.3425,10.3425,10.3425,10.3425,10.3425,10.3425,10.3425,10.3425,10.3425,10.3425,10.3425,10.3425,10.3425,10.3224,10.3021,10.3057,10.3141,10.1852,10.0148,8.8612,8.8612,8.8612,8.8612,8.8612,8.8612,8.8612,8.8612,8.8612,8.8612,8.8612,8.8612,8.8612,8.8612,8.8612,8.8612,8.8612,8.8612,8.8577,8.8325,8.8096,8.776,8.7306,8.6774,8.6125,8.5599,8.5239,8.4919,8.4516,8.5337,8.7014,8.9012,9.1652,9.3899,9.5219,9.6432,9.711,9.9144,10.0178,10.0999,10.239,10.2604,10.2818,10.3425,10.3425,10.3425,10.3425,10.3425,10.3425,10.3425,10.3425,10.3425,10.3425,10.3425,10.3425,10.3425,10.3425,10.3425,10.3425,10.3425,10.3425,10.3425,10.3425,10.3425,10.3425,10.3425,10.3425,10.3425,10.3425,10.3425,10.3425,10.3425,10.3425,10.3425,10.3425,10.3425,10.3129,10.3057,10.2808,10.289,10.0428,9.9643,10.0571,10.0357,10.2533,10.3425,10.3425,10.3425,10.3425,10.3425,10.3425,10.3425,10.3425,10.3425,10.3425,10.3425,10.3425,10.3425,10.3425,10.3425,10.3425,10.3425,10.3425,10.3425,10.3425,10.3425,10.3425,10.3425,10.3425,10.3342,10.3224,10.3141,10.2972,10.1852,10.0148,8.8612,8.8612,8.8612,8.8612,8.8612,8.8612,8.8612,8.8612,8.8612,8.8612,8.8612,8.8612,8.8612,8.8612,8.8612,8.8612,8.8612,8.8612,8.8577,8.8436,8.8172,8.7809,8.7363,8.681,8.6217,8.5599,8.5203,8.4919,8.4552,8.5765,8.7406,8.9368,9.1331,9.3007,9.4042,9.554,9.629,9.6682,9.8145,9.9465,10.0749,10.1284,10.2069,10.2783,10.3211,10.3425,10.3425,10.3425,10.3425,10.3425,10.3425,10.3425,10.3425,10.3425,10.3425,10.3425,10.3425,10.3425,10.3425,10.3425,10.3425,10.3425,10.3425,10.3425,10.3425,10.3425,10.3425,10.3425,10.3425,10.3425,10.3425,10.3425,10.3425,10.3425,10.3425,10.3271,10.2843,10.2512,10.2023,10.1738,9.7788,9.4577,9.6539,9.8751,10.1748,10.3389,10.3425,10.3425,10.3425,10.3425,10.3425,10.3425,10.3425,10.3425,10.3425,10.3425,10.3425,10.3425,10.3425,10.3425,10.3425,10.3425,10.3425,10.3425,10.3425,10.3425,10.3425,10.3425,10.3425,10.3425,10.3307,10.3141,10.2767,10.2032,10.054,8.8612,8.8612,8.8612,8.8612,8.8612,8.8612,8.8612,8.8612,8.8612,8.8612,8.8612,8.8612,8.8612,8.8612,8.8612,8.8612,8.8612,8.8612,8.854,8.8399,8.8211,8.7925,8.7409,8.6876,8.6273,8.5599,8.5203,8.499,8.4802,8.6158,8.7834,8.9725,9.1759,9.3043,9.4042,9.4506,9.5219,9.6111,9.7039,9.7859,9.9393,10.0321,10.1391,10.1784,10.2854,10.3211,10.3389,10.3425,10.3425,10.3425,10.3425,10.3425,10.3425,10.3425,10.3425,10.3425,10.3425,10.3425,10.3425,10.3425,10.3425,10.3425,10.3425,10.3425,10.3425,10.3425,10.3425,10.3425,10.3425,10.3425,10.3425,10.3425,10.3425,10.3425,10.3425,10.3389,10.2843,10.1336,10.0837,10.0491,9.7324,9.4149,9.6076,9.8073,10.1034,10.3139,10.3282,10.3425,10.3425,10.3425,10.3425,10.3425,10.3425,10.3425,10.3425,10.3425,10.3425,10.3425,10.3425,10.3425,10.3425,10.3425,10.3425,10.3425,10.3425,10.3425,10.3425,10.3425,10.3425,10.3425,10.3342,10.3342,10.2888,10.1762,10.0443,8.8612,8.8612,8.8612,8.8612,8.8612,8.8612,8.8612,8.8612,8.8612,8.8612,8.8612,8.8612,8.8612,8.8612,8.8612,8.8612,8.8612,8.8612,8.8612,8.8472,8.8288,8.8008,8.7538,8.6977,8.6292,8.5682,8.5338,8.5062,8.5547,8.7192,8.8619,9.0332,9.2579,9.3614,9.3935,9.4078,9.4506,9.5219,9.5505,9.6254,9.7681,9.8894,9.9857,10.082,10.2283,10.2676,10.3389,10.3425,10.3425,10.3425,10.3425,10.3425,10.3425,10.3425,10.3425,10.3425,10.3425,10.3425,10.3425,10.3425,10.3425,10.3425,10.3425,10.3425,10.3425,10.3425,10.3425,10.3425,10.3425,10.3425,10.3425,10.3425,10.3425,10.3425,10.3425,10.3425,10.2344,10.0161,9.9235,9.9243,9.6789,9.4292,9.5719,9.7717,10.0606,10.2997,10.3246,10.3425,10.3425,10.3425,10.3425,10.3425,10.3425,10.3425,10.3425,10.3425,10.3425,10.3425,10.3425,10.3425,10.3425,10.3425,10.3425,10.3425,10.3425,10.3425,10.3425,10.3425,10.3425,10.3425,10.3425,10.3425,10.2421,10.1395,10.0637,8.8612,8.8612,8.8612,8.8612,8.8612,8.8612,8.8612,8.8612,8.8612,8.8612,8.8612,8.8612,8.8612,8.8612,8.8612,8.8612,8.8612,8.8612,8.8612,8.8543,8.8325,8.8093,8.7672,8.7076,8.6366,8.58,8.5391,8.5844,8.6904,8.8262,9.0189,9.1652,9.315,9.3721,9.3935,9.3935,9.4113,9.4185,9.4292,9.5041,9.5861,9.686,9.8109,10.0214,10.107,10.1784,10.3318,10.3425,10.3425,10.3425,10.3425,10.3425,10.3425,10.3425,10.3425,10.3425,10.3425,10.3425,10.3425,10.3425,10.3425,10.3425,10.3425,10.3425,10.3425,10.3425,10.3425,10.3425,10.3425,10.3425,10.3425,10.3425,10.3425,10.3425,10.3425,10.3425,10.238,9.9911,9.8202,9.7995,9.6896,9.5148,9.5826,9.9322,10.2319,10.3139,10.3425,10.3425,10.3425,10.3425,10.3425,10.3425,10.3425,10.3425,10.3425,10.3425,10.3425,10.3425,10.3425,10.3425,10.3425,10.3425,10.3425,10.3425,10.3425,10.3425,10.3425,10.3425,10.3425,10.3425,10.3425,10.3425,10.2681,10.2067,10.1579,8.8612,8.8612,8.8612,8.8612,8.8612,8.8612,8.8612,8.8612,8.8612,8.8612,8.8612,8.8612,8.8612,8.8612,8.8612,8.8612,8.8612,8.8612,8.8612,8.8577,8.8362,8.8133,8.7766,8.7269,8.658,8.588,8.5622,8.6261,8.7613,8.9511,9.1616,9.3293,9.3685,9.3864,9.3935,9.3935,9.3935,9.3935,9.3935,9.4185,9.472,9.5719,9.7396,9.9072,10.0499,10.1784,10.3139,10.3425,10.3425,10.3425,10.3425,10.3425,10.3425,10.3425,10.3425,10.3425,10.3425,10.3425,10.3425,10.3425,10.3425,10.3425,10.3425,10.3425,10.3425,10.3425,10.3425,10.3425,10.3425,10.3425,10.3425,10.3425,10.3425,10.3425,10.3425,10.3425,10.2736,9.9778,9.7817,9.8073,9.7681,9.6004,9.7645,10.0999,10.264,10.3246,10.3425,10.3425,10.3425,10.3425,10.3425,10.3425,10.3425,10.3425,10.3425,10.3425,10.3425,10.3425,10.3425,10.3425,10.3425,10.3425,10.3425,10.3425,10.3425,10.3425,10.3425,10.3425,10.3425,10.3425,10.3425,10.3425,10.3342,10.3176,10.2508,8.8612,8.8612,8.8612,8.8612,8.8612,8.8612,8.8612,8.8612,8.8612,8.8612,8.8612,8.8612,8.8612,8.8612,8.8612,8.8612,8.8612,8.8612,8.8612,8.8577,8.8472,8.8212,8.793,8.7409,8.6803,8.6346,8.6418,8.7037,8.9141,9.1046,9.2365,9.3614,9.3899,9.3935,9.3935,9.3935,9.3935,9.3935,9.3935,9.3935,9.4113,9.4898,9.6432,9.868,9.9536,10.1249,10.2783,10.3425,10.3425,10.3425,10.3425,10.3425,10.3425,10.3425,10.3425,10.3425,10.3425,10.3425,10.3425,10.3425,10.3425,10.3425,10.3425,10.3425,10.3425,10.3425,10.3425,10.3425,10.3425,10.3425,10.3425,10.3425,10.3425,10.3425,10.3425,10.3425,10.264,9.9679,9.8216,9.8466,9.8644,9.8894,9.9857,10.2033,10.3104,10.3425,10.3425,10.3425,10.3425,10.3425,10.3425,10.3425,10.3425,10.3425,10.3425,10.3425,10.3425,10.3425,10.3425,10.3425,10.3425,10.3425,10.3425,10.3425,10.3425,10.3425,10.3425,10.3425,10.3425,10.3425,10.3425,10.3425,10.3342,10.326,10.2802,8.8612,8.8612,8.8612,8.8612,8.8612,8.8612,8.8612,8.8612,8.8612,8.8612,8.8612,8.8612,8.8612,8.8612,8.8612,8.8612,8.8612,8.8612,8.8612,8.8612,8.8507,8.8363,8.817,8.7628,8.7113,8.715,8.7383,8.9397,9.1179,9.1797,9.2758,9.3614,9.3935,9.3935,9.3935,9.3935,9.3935,9.3935,9.3935,9.3935,9.3935,9.4006,9.5683,9.761,9.8894,10.0143,10.2462,10.3282,10.3425,10.3425,10.3425,10.3425,10.3425,10.3425,10.3425,10.3425,10.3425,10.3425,10.3425,10.3425,10.3425,10.3425,10.3425,10.3425,10.3425,10.3425,10.3425,10.3425,10.3425,10.3425,10.3425,10.3425,10.3425,10.3425,10.3425,10.3425,10.3032,10.0642,10.0143,10.0143,9.7467,9.8609,10.1391,10.2497,10.3425,10.3425,10.3425,10.3425,10.3425,10.3425,10.3425,10.3425,10.3425,10.3425,10.3425,10.3425,10.3425,10.3425,10.3425,10.3425,10.3425,10.3425,10.3425,10.3425,10.3425,10.3425,10.3425,10.3425,10.3425,10.3425,10.3425,10.3425,10.3425,10.326,10.3176,8.8612,8.8612,8.8612,8.8612,8.8612,8.8612,8.8612,8.8612,8.8612,8.8612,8.8612,8.8612,8.8612,8.8612,8.8612,8.8612,8.8612,8.8612,8.8612,8.8612,8.8505,8.8399,8.817,8.7871,8.781,8.8043,8.8384,8.951,9.2138,9.312,9.3654,9.3864,9.3935,9.3935,9.3935,9.3935,9.3935,9.3935,9.3935,9.3935,9.3935,9.4006,9.4898,9.6682,9.8145,9.9607,10.1641,10.2783,10.3389,10.3425,10.3425,10.3425,10.3425,10.3425,10.3425,10.3425,10.3425,10.3425,10.3425,10.3425,10.3425,10.3425,10.3425,10.3425,10.3425,10.3425,10.3425,10.3425,10.3425,10.3425,10.3425,10.3425,10.3425,10.3425,10.3425,10.3318,10.2783,10.2426,10.1855,9.9572,9.6504,9.7752,10.1784,10.3425,10.3425,10.3425,10.3425,10.3425,10.3425,10.3425,10.3425,10.3425,10.3425,10.3425,10.3425,10.3425,10.3425,10.3425,10.3425,10.3425,10.3425,10.3425,10.3425,10.3425,10.3425,10.3425,10.3425,10.3425,10.3425,10.3425,10.3425,10.3425,10.3425,10.3342,10.326,8.8612,8.8612,8.8612,8.8612,8.8612,8.8612,8.8612,8.8612,8.8612,8.8612,8.8612,8.8612,8.8612,8.8612,8.8612,8.8612,8.8612,8.8612,8.8612,8.8612,8.854,8.8436,8.8212,8.793,8.8406,8.904,8.9664,9.1018,9.3358,9.4159,9.4085,9.3935,9.3935,9.3935,9.3935,9.3935,9.3935,9.3935,9.3935,9.3935,9.3935,9.3935,9.4791,9.6325,9.7931,9.9465,10.0999,10.2604,10.3389,10.3425,10.3425,10.3425,10.3425,10.3425,10.3425,10.3425,10.3425,10.3425,10.3425,10.3425,10.3425,10.3425,10.3425,10.3425,10.3425,10.3425,10.3425,10.3425,10.3425,10.3425,10.3425,10.3425,10.3425,10.3425,10.3425,10.3425,10.3389,10.3389,10.214,10.0285,9.7645,9.7966,10.2069,10.3425,10.3425,10.3425,10.3425,10.3425,10.3425,10.3425,10.3425,10.3425,10.3425,10.3425,10.3425,10.3425,10.3425,10.3425,10.3425,10.3425,10.3425,10.3425,10.3425,10.3425,10.3425,10.3425,10.3425,10.3425,10.3425,10.3425,10.3425,10.3425,10.3425,10.3425,10.3342,8.8612,8.8612,8.8612,8.8612,8.8612,8.8612,8.8612,8.8612,8.8612,8.8612,8.8612,8.8612,8.8612,8.8612,8.8612,8.8612,8.8612,8.8612,8.8612,8.8612,8.8612,8.8543,8.8288,8.8053,8.8782,8.9859,9.1096,9.2705,9.4349,9.4589,9.4266,9.4009,9.3935,9.3935,9.3935,9.3935,9.3935,9.3935,9.3935,9.3935,9.3935,9.3971,9.4577,9.5683,9.7717,9.9215,10.0678,10.2283,10.3425,10.3425,10.3425,10.3425,10.3425,10.3425,10.3425,10.3425,10.3425,10.3425,10.3425,10.3425,10.3425,10.3425,10.3425,10.3425,10.3425,10.3425,10.3425,10.3425,10.3425,10.3425,10.3425,10.3425,10.3425,10.3425,10.3425,10.3425,10.3425,10.3282,10.2569,10.1177,9.9037,9.8109,10.1249,10.3425,10.3425,10.3425,10.3425,10.3425,10.3425,10.3425,10.3425,10.3425,10.3425,10.3425,10.3425,10.3425,10.3425,10.3425,10.3425,10.3425,10.3425,10.3425,10.3425,10.3425,10.3425,10.3425,10.3425,10.3425,10.3425,10.3425,10.3425,10.3425,10.3425,10.3425,10.3425,8.8612,8.8612,8.8612,8.8612,8.8612,8.8612,8.8612,8.8612,8.8612,8.8612,8.8612,8.8612,8.8612,8.8612,8.8612,8.8612,8.8612,8.8612,8.8612,8.8612,8.8612,8.8543,8.8399,8.8472,8.934,9.197,9.2757,9.4033,9.4987,9.5039,9.4517,9.4157,9.4009,9.3935,9.3935,9.3935,9.3935,9.3935,9.3935,9.3935,9.3935,9.3935,9.4006,9.5005,9.6967,9.8751,9.975,10.1677,10.3389,10.3425,10.3425,10.3425,10.3425,10.3425,10.3425,10.3425,10.3425,10.3425,10.3425,10.3425,10.3425,10.3425,10.3425,10.3425,10.3425,10.3425,10.3425,10.3425,10.3425,10.3425,10.3425,10.3425,10.3425,10.3425,10.3425,10.3425,10.3425,10.3425,10.3282,10.2247,10.1142,10.0464,10.239,10.3425,10.3425,10.3425,10.3425,10.3425,10.3425,10.3425,10.3425,10.3425,10.3425,10.3425,10.3425,10.3425,10.3425,10.3425,10.3425,10.3425,10.3425,10.3425,10.3425,10.3425,10.3425,10.3425,10.3425,10.3425,10.3425,10.3425,10.3425,10.3425,10.3425,10.3425,10.3425,8.8612,8.8612,8.8612,8.8612,8.8612,8.8612,8.8612,8.8612,8.8612,8.8612,8.8612,8.8612,8.8612,8.8612,8.8612,8.8612,8.8612,8.8612,8.8612,8.8612,8.8612,8.8577,8.8435,8.8624,8.9809,9.2249,9.3042,9.4136,9.5166,9.5205,9.4728,9.4266,9.4009,9.3935,9.3935,9.3935,9.3935,9.3935,9.3935,9.3935,9.3935,9.3935,9.3935,9.447,9.6111,9.7966,9.8823,10.1034,10.2426,10.3211,10.3425,10.3425,10.3425,10.3425,10.3425,10.3425,10.3425,10.3425,10.3425,10.3425,10.3425,10.3425,10.3425,10.3425,10.3425,10.3425,10.3425,10.3425,10.3425,10.3425,10.3425,10.3425,10.3425,10.3425,10.3425,10.3425,10.3425,10.3425,10.3425,10.3425,10.3425,10.3425,10.3425,10.3425,10.3425,10.3425,10.3425,10.3425,10.3425,10.3425,10.3425,10.3425,10.3425,10.3425,10.3425,10.3425,10.3425,10.3425,10.3425,10.3425,10.3425,10.3425,10.3425,10.3425,10.3425,10.3425,10.3425,10.3425,10.3425,10.3425,10.3425,10.3425,10.3425,10.3425,10.3425,8.8612,8.8612,8.8612,8.8612,8.8612,8.8612,8.8612,8.8612,8.8612,8.8612,8.8612,8.8612,8.8612,8.8612,8.8612,8.8612,8.8612,8.8612,8.8612,8.8612,8.8612,8.8577,8.858,8.9032,9.0411,9.2283,9.274,9.3912,9.5301,9.5431,9.4867,9.441,9.4083,9.3935,9.3935,9.3935,9.3935,9.3935,9.3935,9.3935,9.3935,9.3935,9.3935,9.4006,9.5148,9.6753,9.8573,10.025,10.1641,10.2676,10.3175,10.3425,10.3425,10.3425,10.3425,10.3425,10.3425,10.3425,10.3425,10.3425,10.3425,10.3425,10.3425,10.3425,10.3425,10.3425,10.3425,10.3425,10.3425,10.3425,10.3425,10.3425,10.3425,10.3425,10.3425,10.3425,10.3425,10.3425,10.3425,10.3425,10.3425,10.3425,10.3425,10.3425,10.3425,10.3425,10.3425,10.3425,10.3425,10.3425,10.3425,10.3425,10.3425,10.3425,10.3425,10.3425,10.3425,10.3425,10.3425,10.3425,10.3425,10.3425,10.3425,10.3425,10.3425,10.3425,10.3425,10.3425,10.3425,10.3425,10.3425,10.3425,10.3425,10.3425,10.3425,8.8612,8.8612,8.8612,8.8612,8.8612,8.8612,8.8612,8.8612,8.8612,8.8612,8.8612,8.8612,8.8612,8.8612,8.8612,8.8612,8.8612,8.8612,8.8612,8.8612,8.8612,8.8612,8.8727,8.9628,9.1233,9.2893,9.4138,9.5167,9.5967,9.5623,9.5138,9.4658,9.4121,9.3899,9.3935,9.3935,9.3935,9.3935,9.3935,9.3935,9.3935,9.3935,9.3935,9.3971,9.4399,9.5754,9.8002,10.0071,10.1142,10.132,10.2676,10.3353,10.3425,10.3425,10.3425,10.3425,10.3425,10.3425,10.3425,10.3425,10.3425,10.3425,10.3425,10.3425,10.3425,10.3425,10.3425,10.3425,10.3425,10.3425,10.3425,10.3425,10.3425,10.3425,10.3425,10.3425,10.3425,10.3425,10.3425,10.3425,10.3425,10.3425,10.3425,10.3425,10.3425,10.3425,10.3425,10.3425,10.3425,10.3425,10.3425,10.3425,10.3425,10.3425,10.3425,10.3425,10.3425,10.3425,10.3425,10.3425,10.3425,10.3425,10.3425,10.3425,10.3425,10.3425,10.3425,10.3425,10.3425,10.3425,10.3425,10.3425,10.3425,10.3425,10.3425,8.8612,8.8612,8.8612,8.8612,8.8612,8.8612,8.8612,8.8612,8.8612,8.8612,8.8612,8.8612,8.8612,8.8612,8.8612,8.8612,8.8612,8.8612,8.8612,8.8612,8.8612,8.8612,8.8761,8.9213,9.0899,9.3016,9.3539,9.4863,9.6265,9.597,9.5301,9.4798,9.4302,9.4009,9.3935,9.3935,9.3935,9.3935,9.3935,9.3935,9.3935,9.3935,9.3935,9.3935,9.3971,9.4327,9.5968,9.8394,10.0178,10.1177,10.2497,10.3425,10.3425,10.3425,10.3425,10.3425,10.3425,10.3425,10.3425,10.3425,10.3425,10.3425,10.3425,10.3425,10.3425,10.3425,10.3425,10.3425,10.3425,10.3425,10.3425,10.3425,10.3425,10.3425,10.3425,10.3425,10.3425,10.3425,10.3425,10.3425,10.3425,10.3425,10.3425,10.3425,10.3425,10.3425,10.3425,10.3425,10.3425,10.3425,10.3425,10.3425,10.3425,10.3425,10.3425,10.3425,10.3425,10.3425,10.3425,10.3425,10.3425,10.3425,10.3425,10.3425,10.3425,10.3425,10.3425,10.3425,10.3425,10.3425,10.3425,10.3425,10.3425,10.3425,10.3425,8.8612,8.8612,8.8612,8.8612,8.8612,8.8612,8.8612,8.8612,8.8612,8.8612,8.8612,8.8612,8.8612,8.8612,8.8612,8.8612,8.8612,8.8612,8.8612,8.8612,8.8612,8.8612,8.8612,8.8686,9.0039,9.2201,9.2405,9.3638,9.5988,9.5348,9.5024,9.4867,9.4482,9.4119,9.3935,9.3935,9.3935,9.3935,9.3935,9.3935,9.3935,9.3935,9.3935,9.3935,9.3935,9.3971,9.422,9.6646,9.8751,9.9857,10.1356,10.2462,10.3318,10.3425,10.3425,10.3425,10.3425,10.3425,10.3425,10.3425,10.3425,10.3425,10.3425,10.3425,10.3425,10.3425,10.3425,10.3425,10.3425,10.3425,10.3425,10.3425,10.3425,10.3425,10.3425,10.3425,10.3425,10.3425,10.3425,10.3425,10.3425,10.3425,10.3425,10.3425,10.3425,10.3425,10.3425,10.3425,10.3425,10.3425,10.3425,10.3425,10.3425,10.3425,10.3425,10.3425,10.3425,10.3425,10.3425,10.3425,10.3425,10.3425,10.3425,10.3425,10.3425,10.3425,10.3425,10.3425,10.3425,10.3425,10.3425,10.3425,10.3425,10.3425,10.3425,8.8612,8.8612,8.8612,8.8612,8.8612,8.8612,8.8612,8.8612,8.8612,8.8612,8.8612,8.8612,8.8612,8.8612,8.8612,8.8612,8.8612,8.8612,8.8612,8.8612,8.8612,8.8612,8.8612,8.8612,8.9589,9.1048,9.0962,9.2175,9.4577,9.3893,9.3935,9.4642,9.4302,9.4048,9.3935,9.3935,9.3935,9.3935,9.3935,9.3935,9.3935,9.3935,9.3935,9.3935,9.3935,9.3935,9.4078,9.5505,9.6575,9.6896,9.8537,10.0749,10.2854,10.3425,10.3425,10.3425,10.3425,10.3425,10.3425,10.3425,10.3425,10.3425,10.3425,10.3425,10.3425,10.3425,10.3425,10.3425,10.3425,10.3425,10.3425,10.3425,10.3425,10.3425,10.3425,10.3425,10.3425,10.3425,10.3425,10.3425,10.3425,10.3425,10.3425,10.3425,10.3425,10.3425,10.3425,10.3425,10.3425,10.3425,10.3425,10.3425,10.3425,10.3425,10.3425,10.3425,10.3425,10.3425,10.3425,10.3425,10.3425,10.3425,10.3425,10.3425,10.3425,10.3425,10.3425,10.3425,10.3425,10.3425,10.3425,10.3425,10.3425,10.3425,10.3425,8.8612,8.8612,8.8612,8.8612,8.8612,8.8612,8.8612,8.8612,8.8612,8.8612,8.8612,8.8612,8.8612,8.8612,8.8612,8.8612,8.8612,8.8612,8.8612,8.8612,8.8612,8.8612,8.8612,8.8612,8.9437,9.0675,9.063,9.1485,9.3092,9.2542,9.262,9.3404,9.3148,9.3156,9.3864,9.3935,9.3935,9.3935,9.3935,9.3935,9.3935,9.3935,9.3935,9.3935,9.3935,9.3935,9.3935,9.447,9.5255,9.6361,9.7895,10.0214,10.3032,10.3425,10.3425,10.3425,10.3425,10.3425,10.3425,10.3425,10.3425,10.3425,10.3425,10.3425,10.3425,10.3425,10.3425,10.3425,10.3425,10.3425,10.3425,10.3425,10.3425,10.3425,10.3425,10.3425,10.3425,10.3425,10.3425,10.3425,10.3425,10.3425,10.3425,10.3425,10.3425,10.3425,10.3425,10.3425,10.3425,10.3425,10.3425,10.3425,10.3425,10.3425,10.3425,10.3425,10.3425,10.3425,10.3425,10.3425,10.3425,10.3425,10.3425,10.3425,10.3425,10.3425,10.3425,10.3425,10.3425,10.3425,10.3425,10.3425,10.3425,10.3425,10.3425,8.8612,8.8612,8.8612,8.8612,8.8612,8.8612,8.8612,8.8612,8.8612,8.8612,8.8612,8.8612,8.8612,8.8612,8.8612,8.8612,8.8612,8.8612,8.8612,8.8612,8.8612,8.8612,8.8612,8.8612,8.9175,9.004,9.0001,9.0458,9.1305,9.0979,9.1159,9.1834,9.1665,9.208,9.3117,9.3186,9.3507,9.3828,9.3935,9.3935,9.3935,9.3935,9.3935,9.3935,9.3935,9.3825,9.386,9.3749,9.4248,9.5245,9.6919,9.91,10.157,10.289,10.3425,10.3425,10.3425,10.3425,10.3425,10.3425,10.3425,10.3425,10.3425,10.3425,10.3425,10.3425,10.3425,10.3425,10.3425,10.3425,10.3425,10.3425,10.3425,10.3425,10.3425,10.3425,10.3425,10.3425,10.3425,10.3425,10.3425,10.3425,10.3425,10.3425,10.3425,10.3425,10.3425,10.3425,10.3425,10.3425,10.3425,10.3425,10.3425,10.3425,10.3425,10.3425,10.3425,10.3425,10.3425,10.3425,10.3425,10.3425,10.3425,10.3425,10.3425,10.3425,10.3425,10.3425,10.3425,10.3425,10.3425,10.3425,10.3425,10.3425,10.3425,8.8612,8.8612,8.8612,8.8612,8.8612,8.8612,8.8612,8.8612,8.8612,8.8612,8.8612,8.8612,8.8612,8.8612,8.8612,8.8612,8.8612,8.8612,8.8612,8.8612,8.8612,8.8612,8.8612,8.8612,8.8761,8.8839,8.8474,8.9019,9.0093,8.9602,8.9779,9.0513,9.0269,9.0636,9.1868,9.1903,9.2437,9.3435,9.3864,9.3935,9.3935,9.3935,9.3935,9.3935,9.3935,9.3785,9.3633,9.3444,9.3437,9.3686,9.5148,9.6912,9.87,10.1784,10.3425,10.3425,10.3425,10.3425,10.3425,10.3425,10.3425,10.3425,10.3425,10.3425,10.3425,10.3425,10.3425,10.3425,10.3425,10.3425,10.3425,10.3425,10.3425,10.3425,10.3425,10.3425,10.3425,10.3425,10.3425,10.3425,10.3425,10.3425,10.3425,10.3425,10.3425,10.3425,10.3425,10.3425,10.3425,10.3425,10.3425,10.3425,10.3425,10.3425,10.3425,10.3425,10.3425,10.3425,10.3425,10.3425,10.3425,10.3425,10.3425,10.3425,10.3425,10.3425,10.3425,10.3425,10.3425,10.3425,10.3425,10.3425,10.3425,10.3425,10.3425,8.836,8.836,8.8361,8.8361,8.8399,8.8399,8.8435,8.8505,8.8505,8.8577,8.8612,8.8612,8.8612,8.8612,8.8612,8.8612,8.8612,8.8612,8.8612,8.8612,8.8612,8.8612,8.8612,8.8612,8.8612,8.8612,8.858,8.8512,8.8561,8.8194,8.8453,8.9106,8.8769,8.9152,9.0327,9.1153,9.1686,9.2401,9.3364,9.3899,9.3935,9.3935,9.3935,9.3899,9.3785,9.3556,9.321,9.3096,9.3017,9.3139,9.4643,9.529,9.5325,10.0176,10.3425,10.3425,10.3425,10.3425,10.3425,10.3425,10.3425,10.3425,10.3425,10.3425,10.3425,10.3425,10.3425,10.3425,10.3425,10.3425,10.3425,10.3425,10.3425,10.3425,10.3425,10.3425,10.3425,10.3425,10.3425,10.3425,10.3425,10.3425,10.3425,10.3425,10.3425,10.3425,10.3425,10.3425,10.3425,10.3425,10.3425,10.3425,10.3425,10.3425,10.3425,10.3425,10.3425,10.3425,10.3425,10.3425,10.3425,10.3425,10.3425,10.3425,10.3425,10.3425,10.3425,10.3425,10.3425,10.3425,10.3425,10.3425,10.3425,10.3425,10.3425,8.8138,8.8138,8.8137,8.8135,8.8098,8.8099,8.8213,8.8399,8.8399,8.8472,8.8577,8.8577,8.8612,8.8612,8.8577,8.8615,8.8612,8.8612,8.8612,8.8612,8.8612,8.8612,8.8577,8.8612,8.8649,8.8577,8.8649,8.8399,8.8019,8.7679,8.7688,8.777,8.7345,8.7724,8.8779,8.9581,9.0225,9.0795,9.2258,9.3079,9.3079,9.3614,9.3825,9.3674,9.3366,9.2972,9.2614,9.2332,9.22,9.2221,9.3266,9.3371,9.2831,9.6606,10.0236,10.2915,10.2808,10.2523,10.2665,10.3057,10.3425,10.3425,10.3425,10.3425,10.3425,10.3425,10.3425,10.3425,10.3425,10.3425,10.3425,10.3425,10.3425,10.3425,10.3425,10.3425,10.3425,10.3425,10.3425,10.3425,10.3425,10.3425,10.3425,10.3425,10.3425,10.3425,10.3425,10.3425,10.3425,10.3425,10.3425,10.3425,10.3425,10.3425,10.3425,10.3425,10.3425,10.3425,10.3425,10.3425,10.3425,10.3425,10.3425,10.3425,10.3425,10.3425,10.3425,10.3425,10.3425,10.3425,10.3425,10.3425,10.3425,10.3425,10.3425,8.8008,8.7971,8.7888,8.7772,8.7846,8.7819,8.8016,8.8209,8.8212,8.8288,8.8435,8.8435,8.8543,8.8649,8.8505,8.8505,8.8612,8.8612,8.8612,8.8612,8.8612,8.8577,8.8435,8.8577,8.8577,8.847,8.8577,8.8507,8.8248,8.7888,8.7409,8.6949,8.629,8.6455,8.7317,8.7323,8.7692,8.9154,9.0688,9.1545,9.1794,9.2936,9.3247,9.2828,9.2438,9.2025,9.1687,9.1217,9.1019,9.1232,9.1232,9.1232,9.1232,9.1495,9.5284,10.1705,10.155,10.0756,10.1065,10.2333,10.3211,10.3282,10.3282,10.3425,10.3425,10.3425,10.3425,10.3425,10.3425,10.3425,10.3425,10.3425,10.3425,10.3425,10.3425,10.3425,10.3425,10.3425,10.3425,10.3425,10.3425,10.3425,10.3425,10.3425,10.3425,10.3425,10.3425,10.3425,10.3425,10.3425,10.3425,10.3425,10.3425,10.3425,10.3425,10.3425,10.3425,10.3425,10.3425,10.3425,10.3425,10.3425,10.3425,10.3425,10.3425,10.3425,10.3425,10.3425,10.3425,10.3425,10.3425,10.3425,10.3425,10.3425,10.3425,8.721,8.7184,8.7177,8.7206,8.7269,8.7279,8.7501,8.7766,8.793,8.8093,8.8325,8.8325,8.8361,8.847,8.847,8.8543,8.8649,8.8543,8.847,8.847,8.8399,8.8325,8.8325,8.8435,8.847,8.847,8.8577,8.8577,8.8472,8.8133,8.7635,8.7125,8.6383,8.5982,8.6049,8.6776,8.7223,8.762,8.9083,9.0474,9.1258,9.0757,9.0107,8.9645,9.0039,9.0101,8.9569,8.9944,9.0157,9.0251,9.0251,9.0063,8.9751,9.0471,9.3485,9.8676,9.9099,9.9145,9.9373,10.0873,10.1748,10.1819,10.2854,10.3425,10.3425,10.3425,10.3425,10.3425,10.3425,10.3425,10.3425,10.3425,10.3425,10.3425,10.3425,10.3425,10.3425,10.3425,10.3425,10.3425,10.3425,10.3425,10.3425,10.3425,10.3425,10.3425,10.3425,10.3425,10.3425,10.3425,10.3425,10.3425,10.3425,10.3425,10.3425,10.3425,10.3425,10.3425,10.3425,10.3425,10.3425,10.3425,10.3425,10.3425,10.3425,10.3425,10.3425,10.3425,10.3425,10.3425,10.3425,10.3425,10.3425,10.3425,10.3425,8.6508,8.6527,8.6436,8.6509,8.6596,8.6648,8.6953,8.7446,8.7628,8.7925,8.813,8.8133,8.8175,8.8361,8.8361,8.847,8.8612,8.8577,8.8505,8.8543,8.8435,8.8325,8.8288,8.8435,8.847,8.8361,8.8577,8.8612,8.8577,8.8363,8.7893,8.7316,8.656,8.5902,8.5489,8.5909,8.6111,8.5979,8.7478,8.8656,8.9368,8.844,8.7784,8.7724,8.7961,8.7768,8.7198,8.7305,8.7401,8.7435,8.7338,8.708,8.6686,8.715,8.9892,9.4937,9.4998,9.5269,9.6656,9.887,10.0107,10.0143,10.157,10.214,10.1641,10.2747,10.3425,10.3425,10.3425,10.3425,10.3425,10.3425,10.3425,10.3425,10.3425,10.3425,10.3425,10.3425,10.3425,10.3425,10.3425,10.3425,10.3425,10.3425,10.3425,10.3425,10.3425,10.3425,10.3425,10.3425,10.3425,10.3425,10.3425,10.3425,10.3425,10.3425,10.3425,10.3425,10.3425,10.3425,10.3425,10.3425,10.3425,10.3425,10.3425,10.3425,10.3425,10.3425,10.3425,10.3425,10.3425,10.3425,10.3425,10.3425,10.3425,8.5849,8.5823,8.5735,8.5714,8.5844,8.6015,8.6401,8.6977,8.7316,8.7591,8.8008,8.7888,8.8016,8.8251,8.8251,8.8399,8.8612,8.8612,8.8649,8.8612,8.8612,8.847,8.8251,8.8507,8.847,8.8288,8.8505,8.8612,8.8612,8.8543,8.8137,8.7546,8.6715,8.6072,8.5539,8.5076,8.4752,8.4552,8.5944,8.6554,8.6414,8.5984,8.6131,8.6554,8.6057,8.5408,8.4621,8.4128,8.3938,8.3905,8.3709,8.328,8.2848,8.3096,8.574,9.0923,9.0036,9.0269,9.3281,9.6485,9.8216,9.843,9.9821,10.0321,9.9179,10.0785,10.2105,10.2212,10.2319,10.2569,10.3318,10.3425,10.3318,10.3068,10.3007,10.3175,10.3318,10.3425,10.3425,10.3425,10.3425,10.3425,10.3425,10.3425,10.3425,10.3425,10.3425,10.3425,10.3425,10.3425,10.3425,10.3425,10.3425,10.3425,10.3425,10.3425,10.3425,10.3425,10.3425,10.3425,10.3425,10.3425,10.3425,10.3425,10.3425,10.3425,10.3425,10.3425,10.3425,10.3425,10.3425,10.3425,10.3425,10.3425,10.3425,8.5306,8.5302,8.5266,8.5329,8.5365,8.5563,8.6011,8.6547,8.6913,8.7221,8.7591,8.7803,8.8016,8.8251,8.8251,8.8361,8.8612,8.8543,8.8507,8.847,8.8399,8.8288,8.8287,8.8399,8.8361,8.8288,8.8505,8.8612,8.8612,8.8612,8.8399,8.8012,8.7088,8.6292,8.5539,8.5203,8.4919,8.4552,8.4809,8.4815,8.4462,8.3993,8.3497,8.3077,8.3269,8.3209,8.2734,8.2845,8.3047,8.3314,8.2416,8.109,7.9438,8.3449,8.6593,8.7799,8.8043,8.8531,8.9881,9.3033,9.497,9.5077,9.761,9.9108,9.843,9.5005,9.34,9.5612,9.6361,9.8287,10.2283,10.3282,10.2925,10.1677,10.1244,10.1644,10.3114,10.3425,10.3425,10.3425,10.3425,10.3425,10.3425,10.3425,10.3425,10.3425,10.3425,10.3425,10.3425,10.3425,10.3425,10.3425,10.3425,10.3425,10.3425,10.3425,10.3425,10.3425,10.3425,10.3425,10.3425,10.3425,10.3425,10.3425,10.3425,10.3425,10.3425,10.3425,10.3425,10.3425,10.3425,10.3425,10.3425,10.3425,10.3425,8.4864,8.4853,8.4853,8.4853,8.4919,8.5104,8.5502,8.6144,8.6653,8.7013,8.7353,8.7591,8.7893,8.8135,8.8213,8.8361,8.854,8.8505,8.8505,8.8543,8.847,8.8399,8.8363,8.8435,8.8433,8.8399,8.8505,8.8612,8.8612,8.8612,8.8507,8.8211,8.7501,8.658,8.5599,8.5302,8.4919,8.4516,8.3673,8.3329,8.3391,8.2984,8.2254,8.1229,8.1225,8.1049,8.0404,8.0525,8.0659,8.0792,8.0164,7.924,7.8088,8.0831,8.3182,8.4627,8.3927,8.4017,8.5277,8.7374,8.919,9.0653,9.365,9.4042,9.0474,8.8227,8.9012,9.34,9.3935,9.5968,10.0678,9.9947,9.9341,9.9929,9.9807,10.0021,10.107,10.1845,10.2059,10.1534,10.2497,10.3425,10.3425,10.3425,10.3425,10.3425,10.3425,10.3425,10.3425,10.3425,10.3425,10.3425,10.3425,10.3425,10.3425,10.3425,10.3425,10.3425,10.3425,10.3425,10.3425,10.3425,10.3425,10.3425,10.3425,10.3425,10.3425,10.3425,10.3425,10.3425,10.3425,10.3425,10.3425,10.3425,10.3425,8.4088,8.391,8.3879,8.391,8.3941,8.4072,8.4655,8.5575,8.5872,8.6165,8.6511,8.6836,8.7141,8.7424,8.7505,8.7653,8.7835,8.8129,8.8275,8.8275,8.8537,8.8577,8.8435,8.8577,8.8577,8.847,8.8577,8.8612,8.8612,8.8612,8.8505,8.8214,8.7633,8.6635,8.5438,8.4789,8.4274,8.3874,8.2427,8.1844,8.2323,8.1904,8.1036,7.9932,7.925,7.8592,7.7719,7.7719,7.7622,7.7429,7.7332,7.7135,7.6804,7.6999,7.8499,8.1228,7.9148,7.8605,8.0496,8.1014,8.2529,8.5408,8.8477,8.6942,7.9585,8.1513,8.5904,9.1794,9.2294,9.3935,9.6789,9.5055,9.4807,9.7175,9.7937,9.8222,9.8466,9.9804,10.0339,9.9179,10.1177,10.2711,10.3246,10.3425,10.3425,10.3425,10.3425,10.3425,10.3425,10.3425,10.3425,10.3425,10.3425,10.3425,10.3425,10.3425,10.3425,10.3425,10.3425,10.3425,10.3425,10.3425,10.3425,10.3425,10.3425,10.3425,10.3425,10.3425,10.3425,10.3425,10.3425,10.3425,10.3425,10.3425,10.3425,8.1853,8.0706,8.0694,8.079,8.0854,8.0917,8.1943,8.3598,8.2851,0.0,0.0,8.3719,8.3962,8.419,8.4263,8.4406,8.469,8.5957,8.6555,8.663,8.7976,8.8577,8.847,8.8577,8.8577,8.847,8.8577,8.8612,8.8612,8.8612,8.8543,8.8102,8.6446,8.5261,8.4511,8.2332,8.0979,8.0699,7.9993,7.9447,7.8984,7.8315,7.7524,7.6687,7.5934,7.5315,7.487,7.4625,7.4439,7.4439,7.4439,7.3353,7.1019,7.415,7.6974,7.8765,7.6326,7.5018,7.585,7.627,7.7248,7.9058,8.2091,8.0684,7.3155,7.5378,7.97,8.5658,8.6193,8.7513,9.0581,9.108,9.1757,9.2722,9.3942,9.5268,9.6651,9.8216,9.8851,9.8894,9.9001,10.0499,10.2747,10.3282,10.3425,10.3425,10.3353,10.3425,10.3425,10.3425,10.3425,10.3425,10.3425,10.3425,10.3425,10.3425,10.3425,10.3425,10.3425,10.3425,10.3425,10.3425,10.3425,10.3425,10.3425,10.3425,10.3425,10.3425,10.3425,10.3425,10.3425,10.3425,10.3425,10.3425,10.3425,8.0684,8.0013,8.0107,8.0128,0.0,8.0242,8.0679,8.1395,8.0876,8.1452,8.2826,8.2953,8.3112,8.3297,8.3441,8.3548,8.3723,8.4503,8.4947,8.4985,8.5807,8.6181,8.6077,8.6181,8.6144,8.6077,8.6111,8.6181,8.6181,8.6144,8.6039,8.5791,8.4593,8.369,8.3135,8.1545,8.0026,7.854,7.8124,7.7832,7.7776,7.7016,7.6252,7.5247,7.4671,0.0,0.0,0.0,0.0,0.0,0.0,0.0,0.0,0.0,0.0,7.3531,7.0094,6.7818,6.7606,6.8562,6.9905,7.1551,7.4609,7.3544,6.6783,6.9285,7.3664,7.9584,8.1471,8.4108,8.8548,8.762,8.7083,8.8149,8.9667,9.092,9.1939,9.3927,9.5097,9.4441,9.4192,9.5298,9.8252,10.1177,10.3282,10.3389,10.2783,10.2497,10.3246,10.3425,10.3425,10.3425,10.3425,10.3425,10.3425,10.3425,10.3425,10.3425,10.3425,10.3425,10.3425,10.3425,10.3425,10.3425,10.3425,10.3425,10.3425,10.3425,10.3425,10.3425,10.3425,10.3425,10.3425,10.3425,10.3425,7.9548,7.932,7.9423,7.951,7.9546,7.9127,7.889,7.8863,7.8894,7.9882,8.1465,8.1327,8.1291,8.14,8.1648,8.1902,8.2271,8.2635,8.3003,8.3302,8.3639,8.3751,8.3751,8.3751,8.3751,8.3751,8.3751,8.3751,8.3751,8.3751,8.3653,8.3369,8.2702,8.2072,8.1606,0.0,0.0,0.0,7.6495,7.636,7.646,7.5799,7.4958,7.3857,7.3428,0.0,7.286,7.286,7.2729,7.24,7.0394,0.0,0.0,0.0,0.0,0.0,0.0,0.0,0.0,0.0,0.0,0.0,6.5614,6.4866,6.0458,6.2575,6.705,7.3706,7.7228,8.1399,8.6937,8.3822,8.1874,8.3138,8.4768,8.5912,8.6333,8.8727,8.9899,8.8445,8.8727,9.0252,9.3831,9.8894,10.2212,10.1391,10.0856,10.0749,10.1391,10.1249,10.1784,10.2533,10.3032,10.3425,10.3425,10.3425,10.3425,10.3425,10.3425,10.3139,10.264,10.2783,10.3425,10.3425,10.3425,10.3425,10.3425,10.3425,10.3425,10.3425,10.3425,10.3068,10.1926,10.2212,10.2961,7.768,7.6547,7.6518,7.6672,7.6701,7.4459,7.4426,7.5824,7.6057,7.6355,7.6608,7.5407,7.4872,7.486,7.4928,7.581,7.7395,7.8741,8.0162,8.1657,8.3115,8.3751,8.3751,8.3751,8.3751,8.3751,8.3751,8.3751,8.3751,8.3751,8.3653,8.3294,8.1625,8.0566,8.0055,7.6928,7.5554,7.5908,7.4956,7.4085,7.3347,7.2529,7.1782,7.0951,7.0443,6.9978,6.977,6.9803,6.9211,6.8027,6.875,6.6975,6.2076,6.3142,6.298,0.0,5.6492,0.0,0.0,0.0,0.0,0.0,0.0,0.0,0.0,5.4414,5.8611,6.7576,7.3102,7.7623,8.1077,7.8761,7.7072,7.7215,7.8629,8.0209,8.1691,8.3339,8.3894,8.2762,8.4705,8.8086,9.2974,9.7003,9.818,9.6111,9.6397,9.6397,9.5505,9.5362,9.6646,9.9072,10.1641,10.2569,10.2569,10.2997,10.3104,10.3282,10.3068,10.2497,9.975,10.1427,10.3353,10.3425,10.3425,10.3389,10.3425,10.3353,10.3353,10.3389,10.3246,10.1534,9.7288,9.8252,10.1142,7.5068,7.3626,7.3751,7.3544,7.3056,7.202,7.2579,7.4243,7.4492,7.4593,7.4547,7.3002,7.1868,7.1133,7.1086,7.2011,7.3675,7.4413,7.5611,7.7229,7.8913,7.9669,7.9713,8.0573,8.0984,8.0947,8.0087,7.9676,7.9638,7.8741,7.8163,7.7965,7.6979,7.5836,7.4625,7.3653,7.3655,7.4582,7.3778,7.3118,7.269,7.1913,7.1128,7.0416,6.9879,6.9055,6.806,6.7994,6.6975,6.4805,6.4542,6.2569,5.8566,5.7825,5.5866,0.0,0.0,0.0,0.0,0.0,0.0,0.0,0.0,0.0,0.0,0.0,5.0401,5.6393,6.7046,7.4093,7.5512,7.3032,7.1292,7.1294,7.2721,7.3949,7.4739,7.6741,7.7062,7.4368,8.0782,8.6472,8.8948,9.3191,9.5469,9.4113,9.0403,8.8142,8.9137,9.2011,9.5041,9.8109,9.8394,9.7645,9.5754,9.6967,9.8716,10.025,9.9322,9.7717,9.6397,9.7253,9.9393,10.264,10.3425,10.2925,10.1213,10.0856,10.1498,10.2569,10.2069,9.9329,9.5232,9.6628,9.9729,7.2518,7.123,6.9583,6.8491,6.7804,6.8266,6.9508,7.1239,7.1704,7.1697,7.1249,7.0106,6.848,6.6664,6.6678,6.7813,6.9748,6.9784,7.1072,7.3381,7.4692,7.5489,7.5854,7.6976,7.7574,7.747,7.6348,7.5787,7.5712,7.4105,7.3196,7.3008,7.1287,6.9835,6.8739,7.0181,7.1484,7.2524,7.2706,7.2715,7.2524,7.1893,7.1207,7.0383,6.9548,6.8481,6.7074,6.6383,6.4706,6.1879,5.9676,5.721,5.4451,5.2434,0.0,0.0,0.0,0.0,0.0,0.0,0.0,0.0,0.0,3.7931,4.0853,0.0,4.2823,0.0,6.0652,6.988,6.9786,6.7108,0.0,0.0,6.6371,6.7215,6.7649,6.9729,6.9693,6.6014,7.613,8.3439,8.3264,8.8886,9.2154,8.9794,8.4323,8.1669,8.4763,8.9109,9.2829,9.5326,9.365,9.0581,8.7977,8.9618,9.3007,9.6932,9.5612,9.365,9.29,9.3328,9.5683,10.0963,10.2319,10.0749,9.711,9.6504,9.7574,10.0258,9.9443,9.6842,9.3937,9.4584,9.6528,7.0326,6.9656,6.2729,5.9773,5.9817,6.1338,6.302,6.4816,6.6261,6.6063,6.4732,6.4608,6.2813,5.9897,6.0017,0.0,6.4707,6.4846,6.74,7.1896,7.2046,7.2784,7.4039,7.4151,7.4236,7.4217,7.4142,7.4067,7.3918,7.231,7.1478,7.1145,6.5218,6.2634,6.3653,6.6264,6.8145,6.9205,7.1704,7.277,7.2148,7.1821,7.1297,7.0383,6.8586,6.7458,6.6975,6.4476,6.178,5.892,5.4843,5.1259,4.8492,0.0,0.0,0.0,0.0,0.0,0.0,0.0,0.0,0.0,0.0,0.0,0.0,0.0,0.0,3.955,5.4564,0.0,6.3735,6.0986,0.0,0.0,0.0,5.9945,6.1385,6.2192,6.1736,5.952,0.0,0.0,7.6855,8.452,8.6979,7.853,7.9567,8.2022,8.4287,8.494,8.6407,8.9511,8.7335,8.4231,8.1912,8.3803,8.7692,9.3007,9.4078,9.2544,9.0189,9.1509,9.4898,9.8323,9.9108,9.7217,9.1081,8.9761,9.1046,9.459,9.5056,9.3757,9.033,9.0234,9.0487,6.3874,6.0009,5.501,5.3475,5.4425,5.5166,5.7026,5.9477,5.9149,5.9284,5.9471,5.7532,5.5398,5.319,5.2217,0.0,0.0,0.0,6.0584,6.4402,6.6374,6.8076,6.9522,7.0459,7.0932,7.0906,6.9906,6.887,6.7861,6.6253,6.3437,5.948,0.0,0.0,5.7301,6.1091,6.4049,6.6071,6.7911,6.9497,7.0769,7.0156,6.9178,6.7769,6.5926,6.4481,6.3194,6.0399,5.7144,5.3396,4.9089,4.4706,0.0,0.0,0.0,0.0,0.0,0.0,0.0,0.0,0.0,0.0,0.0,2.6676,2.9397,0.0,0.0,0.0,4.2858,5.1281,5.7058,5.4665,0.0,0.0,0.0,0.0,0.0,0.0,0.0,5.2659,6.3764,7.1364,7.1224,7.5727,7.9712,8.1531,7.8189,7.652,7.9042,0.0,8.0057,8.3125,8.0949,7.9165,7.9843,8.2519,8.5337,8.7906,8.8262,8.7121,8.4302,8.6158,8.9297,9.208,9.3007,9.1082,8.4996,8.0985,8.1263,9.0224,9.2211,9.033,8.4943,8.344,8.2812,5.5404,0.0,0.0,0.0,0.0,4.8643,5.0251,5.2347,5.1692,5.1824,5.2385,5.0063,0.0,0.0,0.0,0.0,0.0,0.0,5.3829,5.7504,6.028,6.2654,6.4642,6.5697,6.625,6.6165,6.5018,6.3534,6.1776,5.7922,5.3374,4.8344,0.0,0.0,0.0,0.0,6.0292,6.2986,6.5153,6.7281,6.9351,6.8994,6.8093,6.6634,6.4069,6.1745,5.9478,5.6223,5.2442,4.8097,4.3401,0.0,0.0,0.0,0.0,0.0,0.0,0.0,0.0,0.0,0.0,0.0,0.0,0.0,0.0,0.0,0.0,0.0,0.0,0.0,5.0344,4.9091,4.8156,0.0,0.0,0.0,0.0,0.0,0.0,0.0,0.0,0.0,6.25,6.7222,7.3172,0.0,0.0,7.1941,7.5482,7.4902,7.5168,7.8095,7.5252,0.0,7.6739,7.9843,8.1876,8.1876,8.3411,8.3196,7.9236,8.0378,8.2941,8.6079,8.6651,8.388,7.5898,7.0647,7.2707,8.3597,8.6892,8.4943,7.9625,7.6676,7.5317,0.0,0.0,0.0,0.0,0.0,0.0,0.0,0.0,4.3939,4.3805,0.0,4.2335,0.0,0.0,0.0,0.0,4.0352,4.3657,0.0,0.0,5.4132,5.6614,5.9513,5.9609,5.957,5.9601,5.9489,5.8456,5.634,4.7252,0.0,0.0,0.0,0.0,0.0,0.0,5.7172,5.9837,6.4145,6.6912,6.7831,6.8738,6.8689,6.7647,6.358,5.9757,5.6557,5.2245,4.7998,4.3641,3.799,0.0,0.0,0.0,0.0,0.0,0.0,0.0,0.0,0.0,0.0,0.0,0.0,0.0,0.0,0.0,0.0,0.0,0.0,0.0,0.0,4.4493,0.0,0.0,0.0,0.0,0.0,0.0,0.0,0.0,0.0,4.9762,4.9836,6.0322,6.8112,6.8443,0.0,0.0,0.0,0.0,7.2278,7.4979,7.0466,6.7795,7.05,7.3493,7.549,7.5526,0.0,0.0,7.6382,7.5419,7.6431,7.9894,8.0493,7.5951,6.161,5.9009,6.3064,7.4958,7.7589,7.655,7.3684,7.031,6.841,0.0,0.0,0.0,0.0,0.0,0.0,0.0,0.0,0.0,3.5108,0.0,3.4476,0.0,0.0,0.0,0.0,0.0,0.0,0.0,0.0,4.6369,4.9364,5.1512,5.25,5.2923,0.0,5.171,4.8164,0.0,0.0,0.0,0.0,0.0,0.0,0.0,0.0,5.3112,5.6893,6.1403,6.4622,6.6446,6.643,6.585,6.4895,6.1939,5.7788,5.2245,4.6984,4.2204,0.0,0.0,0.0,0.0,0.0,0.0,0.0,0.0,0.0,0.0,0.0,0.0,0.0,0.0,0.0,0.0,0.0,0.0,0.0,0.0,0.0,0.0,0.0,4.389,0.0,0.0,0.0,0.0,0.0,0.0,0.0,0.0,0.0,4.3305,5.3808,6.1778,6.1876,6.2971,6.5316,6.971,0.0,0.0,0.0,0.0,0.0,0.0,0.0,6.9033,6.8997,7.4277,7.6382,7.0103,6.5936,6.5107,7.0315,0.0,0.0,5.2032,5.0705,5.5581,6.6122,6.8259,6.7366,6.4235,5.9563,5.6592,0.0,0.0,0.0,0.0,0.0,0.0,0.0,0.0,0.0,2.8427,2.8841,0.0,0.0,0.0,0.0,0.0,0.0,0.0,0.0,0.0,0.0,0.0,4.3967,4.5521,0.0,0.0,0.0,0.0,0.0,0.0,0.0,0.0,0.0,0.0,0.0,0.0,4.9694,5.4662,5.9122,6.2647,6.5176,6.5004,6.4177,6.2779,5.9997,5.5875,5.0189,0.0,0.0,0.0,0.0,0.0,0.0,0.0,0.0,0.0,0.0,0.0,0.0,0.0,0.0,0.0,0.0,0.0,0.0,0.0,0.0,0.0,0.0,0.0,0.0,0.0,4.0545,0.0,0.0,0.0,0.0,0.0,0.0,0.0,0.0,0.0,0.0,0.0,5.5358,5.5508,5.8434,6.2241,6.685,6.7947,6.86,0.0,0.0,0.0,0.0,0.0,0.0,0.0,0.0,0.0,0.0,0.0,0.0,0.0,0.0,5.7805,4.3348,4.2538,4.711,5.6711,0.0,0.0,0.0,0.0,0.0,0.0,0.0,0.0,0.0,0.0,0.0,0.0,0.0,0.0,0.0,2.2244,0.0,0.0,1.767,0.0,0.0,0.0,0.0,0.0,0.0,0.0,0.0,0.0,0.0,0.0,0.0,0.0,0.0,0.0,0.0,0.0,0.0,0.0,0.0,0.0,0.0,4.7147,5.3178,5.769,6.1254,6.3896,6.4686,6.3988,6.1632,5.7972,5.4218,5.0567,0.0,0.0,0.0,0.0,0.0,0.0,0.0,0.0,0.0,0.0,0.0,0.0,0.0,0.0,0.0,0.0,0.0,0.0,0.0,0.0,0.0,0.0,0.0,0.0,0.0,0.0,3.4411,3.5851,3.6755,0.0,0.0,0.0,0.0,0.0,0.0,0.0,0.0,0.0,4.9315,5.4566,6.0631,6.6307,6.6051,6.5435,6.6139,6.6715,6.7036,6.6703,6.5946,6.3468,0.0,0.0,0.0,0.0,0.0,0.0,0.0,0.0,0.0,0.0,0.0,0.0,0.0,0.0,0.0,0.0,0.0,0.0,0.0,0.0,0.0,0.0,0.0,0.0,0.0,0.0,0.0,0.0,0.0,0.0,0.0,0.0,0.0,0.0,0.0,0.0,0.0,0.0,0.0,0.0,0.0,0.0,0.0,0.0,0.0,0.0,0.0,0.0,0.0,0.0,0.0,0.0,0.0,0.0,4.5653,5.1726,5.7372,6.1494,6.3891,6.3939,6.3159,6.1553,5.6967,5.2834,0.0,0.0,0.0,0.0,0.0,0.0,0.0,0.0,0.0,0.0,0.0,0.0,0.0,0.0,0.0,0.0,0.0,0.0,0.0,0.0,0.0,0.0,0.0,0.0,0.0,0.0,0.0,0.0,3.2514,3.3537,3.3512,0.0,0.0,0.0,0.0,0.0,0.0,0.0,0.0,0.0,0.0,5.5247,5.4875,5.9861,6.436,6.6609,6.5407,6.4138,6.3786,6.1179,5.858,5.6644,0.0,0.0,0.0,0.0,0.0,0.0,0.0,0.0,0.0,0.0,0.0,0.0,0.0,0.0,0.0,0.0,0.0,0.0,0.0,0.0,0.0,0.0,0.0,0.0,0.0,0.0,0.0,0.0,0.0,0.0,0.0,0.0,0.0,0.0,0.0,0.0,0.0,0.0,0.0,0.0,0.0,0.0,0.0,0.0,0.0,0.0,0.0,0.0,0.0,0.0,0.0,0.0,0.0,4.3466,5.0245,5.5752,5.9816,6.2163,6.245,6.1743,6.0151,5.56,5.098,0.0,0.0,0.0,0.0,0.0,0.0,0.0,0.0,0.0,0.0,0.0,0.0,0.0,0.0,0.0,0.0,0.0,0.0,0.0,0.0,0.0,0.0,0.0,0.0,0.0,0.0,0.0,0.0,2.9313,3.1128,3.1148,0.0,0.0,0.0,0.0,0.0,0.0,0.0,0.0,0.0,0.0,5.1482,4.9633,5.5644,0.0,0.0,6.2081,5.9244,5.8972,5.7644,5.5801,5.3193,4.959,0.0,0.0,0.0,0.0,0.0,0.0,0.0,0.0,0.0,0.0,0.0,0.0,0.0,0.0,0.0,0.0,0.0,0.0,0.0,0.0,0.0,0.0,0.0,0.0,0.0,0.0,0.0,0.0,0.0,0.0,0.0,0.0,0.0,0.0,0.0,0.0,0.0,0.0,0.0,0.0,0.0,0.0,0.0,0.0,0.0,0.0,0.0,0.0,0.0,0.0,0.0,0.0,4.1032,4.8808,5.337,5.7018,5.9624,6.0496,5.9858,5.7628,5.3846,4.8829,0.0,0.0,0.0,0.0,0.0,0.0,0.0,0.0,0.0,0.0,0.0,0.0,0.0,0.0,0.0,0.0,0.0,0.0,0.0,0.0,0.0,0.0,0.0,0.0,0.0,0.0,0.0,0.0,0.0,0.0,0.0,0.0,0.0,0.0,0.0,0.0,0.0,0.0,0.0,0.0,0.0,4.9108,4.922,5.312,5.7563,0.0,5.7258,5.3326,5.3304,5.5076,5.4333,4.8098,0.0,0.0,0.0,0.0,0.0,0.0,0.0,0.0,0.0,0.0,0.0,0.0,0.0,0.0,0.0,0.0,0.0,0.0,0.0,0.0,0.0,0.0,0.0,0.0,0.0,0.0,0.0,0.0,0.0,0.0,0.0,0.0,0.0,0.0,0.0,0.0,0.0,0.0,0.0,0.0,0.0,0.0,0.0,0.0,0.0,0.0,0.0,0.0,0.0,0.0,0.0,0.0,0.0,0.0,4.8865,5.3512,5.7146,5.9703,5.98,5.8601,5.6293,5.1665,0.0,0.0,0.0,0.0,0.0,0.0,0.0,0.0,0.0,0.0,0.0,0.0,0.0,0.0,0.0,0.0,0.0,0.0,0.0,0.0,0.0,0.0,0.0,0.0,0.0,0.0,0.0,1.8092,0.0,0.0,0.0,0.0,0.0,0.0,0.0,0.0,0.0,0.0,0.0,0.0,0.0,0.0,4.713,4.5914,5.0811,5.4899,0.0,0.0,5.0866,5.2928,5.1462,4.9361,0.0,0.0,0.0,0.0,0.0,0.0,0.0,0.0,0.0,0.0,0.0,0.0,0.0,0.0,0.0,0.0,0.0,0.0,0.0,0.0,0.0,0.0,0.0,0.0,0.0,0.0,0.0,0.0,0.0,0.0,0.0,0.0,0.0,0.0,0.0,0.0,0.0,0.0,0.0,0.0,0.0,0.0,0.0,0.0,0.0,0.0,0.0,0.0,0.0,0.0,0.0,0.0,0.0,0.0,4.0353,4.8942,5.3005,5.6268,5.8829,5.8481,5.7177,5.4916,5.1232,4.6315,0.0,0.0,0.0,0.0,0.0,0.0,0.0,0.0,0.0,0.0,0.0,0.0,0.0,0.0,0.0,0.0,0.0,0.0,0.0,0.0,0.0,0.0,0.0,0.0,0.0,0.0,0.0,0.0,0.0,0.0,0.0,0.0,0.0,0.0,0.0,0.0,0.0,0.0,0.0,0.0,0.0,0.0,4.4561,4.7555,0.0,0.0,0.0,4.7392,4.8915,0.0,0.0,0.0,0.0,0.0,0.0,0.0,0.0,0.0,0.0,0.0,0.0,0.0,0.0,0.0,0.0,0.0,0.0,0.0,0.0,0.0,0.0,0.0,0.0,0.0,0.0,0.0,0.0,0.0,0.0,0.0,0.0,0.0,0.0,0.0,0.0,0.0,0.0,0.0,0.0,0.0,0.0,0.0,0.0,0.0,0.0,0.0,0.0,0.0,0.0,0.0,0.0,0.0,0.0,0.0,0.0,0.0,4.8776,5.1914,5.4832,5.7572,5.7295,5.5868,5.3547,5.159,4.6741,0.0,0.0,0.0,0.0,0.0,0.0,0.0,0.0,0.0,0.0,0.0,0.0,0.0,0.0,0.0,0.0,0.0,0.0,0.0,0.0,0.0,0.0,0.0,0.0,0.0,0.0,0.0,0.0,0.0,0.0,0.0,0.0,0.0,0.0,0.0,0.0,0.0,0.0,0.0,0.0,0.0,4.0649,4.321,4.385,4.5056,0.0,0.0,4.3025,4.3192,4.5306,0.0,0.0,0.0,0.0,0.0,0.0,0.0,0.0,0.0,0.0,0.0,0.0,0.0,0.0,0.0,0.0,0.0,0.0,0.0,0.0,0.0,0.0,0.0,0.0,0.0,0.0,0.0,0.0,0.0,0.0,0.0,0.0,0.0,0.0,0.0,0.0,0.0,0.0,0.0,0.0,0.0,0.0,0.0,0.0,0.0,0.0,0.0,0.0,0.0,0.0,0.0,0.0,0.0,0.0,0.0,0.0,4.7191,5.0453,5.3908,5.7793,5.7625,5.5795,5.2514,5.0467,4.5642,0.0,0.0,0.0,0.0,0.0,0.0,0.0,0.0,0.0,0.0,0.0,0.0,0.0,0.0,0.0,0.0,0.0,0.0,0.0,0.0,0.0,0.0,0.0,0.0,0.0,0.0,0.0,0.0,0.0,0.0,0.0,0.0,0.0,0.0,0.0,0.0,0.0,0.0,0.0,0.0,0.0,3.8929,3.708,4.0065,0.0,0.0,0.0,0.0,3.9661,4.0402,0.0,0.0,0.0,0.0,0.0,0.0,0.0,0.0,0.0,0.0,0.0,0.0,0.0,0.0,0.0,0.0,0.0,0.0,0.0,0.0,0.0,0.0,0.0,0.0,0.0,0.0,0.0,0.0,0.0,0.0,0.0,0.0,0.0,0.0,0.0,0.0,0.0,0.0,0.0,0.0,0.0,0.0,0.0,0.0,0.0,0.0,0.0,0.0,0.0,0.0,0.0,0.0,0.0,0.0,0.0,0.0,4.557,4.9689,5.3411,5.694,5.7498,5.5987,5.2317,5.1109,4.6267,0.0,0.0,0.0,0.0,0.0,0.0,0.0,0.0,0.0,0.0,0.0,0.0,0.0,0.0,0.0,0.0,0.0,0.0,0.0,0.0,0.0,0.0,0.0,0.0,0.0,0.0,0.0,0.0,0.0,0.0,0.0,0.0,0.0,0.0,0.0,0.0,0.0,0.0,0.0,0.0,3.4215,3.5773,3.4926,0.0,0.0,0.0,0.0,0.0,0.0,3.8011,3.78,0.0,0.0,0.0,0.0,0.0,0.0,0.0,0.0,0.0,0.0,0.0,0.0,0.0,0.0,0.0,0.0,0.0,0.0,0.0,0.0,0.0,0.0,0.0,0.0,0.0,0.0,0.0,0.0,0.0,0.0,0.0,0.0,0.0,0.0,0.0,0.0,0.0,0.0,0.0,0.0,0.0,0.0,0.0,0.0,0.0,0.0,0.0,0.0,0.0,0.0,0.0,0.0,0.0,0.0,0.0,4.4199,4.8926,5.2859,5.5959,5.732,5.616,5.2502,5.1843,4.7133,3.7934,0.0,0.0,0.0,0.0,0.0,0.0,0.0,0.0,0.0,0.0,0.0,0.0,0.0,0.0,0.0,0.0,0.0,0.0,0.0,0.0,0.0,0.0,0.0,0.0,0.0,0.0,0.0,0.0,0.0,0.0,0.0,0.0,0.0,0.0,0.0,0.0,0.0,0.0,0.0,3.0717,3.2192,0.0,0.0,0.0,0.0,0.0,0.0,0.0,0.0,3.5395,0.0,0.0,0.0,0.0,0.0,0.0,0.0,0.0,0.0,0.0,0.0,0.0,0.0,0.0,0.0,0.0,0.0,0.0,0.0,0.0,0.0,0.0,0.0,0.0,0.0,0.0,0.0,0.0,0.0,0.0,0.0,0.0,0.0,0.0,0.0,0.0,0.0,0.0,0.0,0.0,0.0,0.0,0.0,0.0,0.0,0.0,0.0,0.0,0.0,0.0,0.0,0.0,0.0,0.0,0.0,0.0,4.731,5.1861,5.6126,5.7552,5.6426,5.2744,5.109,4.6401,3.8291,0.0,0.0,0.0,0.0,0.0,0.0,0.0,0.0,0.0,0.0,0.0,0.0,0.0,0.0,0.0,0.0,0.0,0.0,0.0,0.0,0.0,0.0,0.0,0.0,0.0,0.0,0.0,0.0,0.0,0.0,0.0,0.0,0.0,0.0,0.0,0.0,0.0,0.0,2.5614,2.8333,0.0,0.0,0.0,0.0,0.0,0.0,0.0,0.0,3.0698,0.0,0.0,0.0,0.0,0.0,0.0,0.0,0.0,0.0,0.0,0.0,0.0,0.0,0.0,0.0,0.0,0.0,0.0,0.0,0.0,0.0,0.0,0.0,0.0,0.0,0.0,0.0,0.0,0.0,0.0,0.0,0.0,0.0,0.0,0.0,0.0,0.0,0.0,0.0,0.0,0.0,0.0,0.0,0.0,0.0,0.0,0.0,0.0,0.0,0.0,0.0,0.0,0.0,0.0,0.0,0.0,0.0,0.0,5.1329,5.5031,5.729,5.6667,5.3107,5.0499,4.5707,0.0,0.0,0.0,0.0,0.0,0.0,0.0,0.0,0.0,0.0,0.0,0.0,0.0,0.0,0.0,0.0,0.0,0.0,0.0,0.0,0.0,0.0,0.0,0.0,0.0,0.0,0.0,0.0,0.0,0.0,0.0,0.0,0.0,0.0,0.0,0.0,0.0,0.0,0.0,0.0,0.0,0.0,0.0,0.0,0.0,0.0,0.0,0.0,0.0,0.0,0.0,0.0,0.0,0.0,0.0,0.0,0.0,0.0,0.0,0.0,0.0,0.0,0.0,0.0,0.0,0.0,0.0,0.0,0.0,0.0,0.0,0.0,0.0,0.0,0.0,0.0,0.0,0.0,0.0,0.0,0.0,0.0,0.0,0.0,0.0,0.0,0.0,0.0,0.0,0.0,0.0,0.0,0.0,0.0,0.0,0.0,0.0,0.0,0.0,0.0,0.0,0.0,0.0,0.0,0.0,0.0,0.0,0.0,5.0161,5.3509,5.6498,5.6488,5.3378,5.0173,4.5111,0.0,0.0,0.0,0.0,0.0,0.0,0.0,0.0,0.0,0.0,0.0,0.0,0.0,0.0,0.0,0.0,0.0,0.0,0.0,0.0,0.0,0.0,0.0,0.0,0.0,0.0,0.0,0.0,0.0,0.0,0.0,0.0,0.0,0.0,0.0,0.0,0.0,0.0,0.0,0.0,0.0,0.0,0.0,0.0,0.0,0.0,0.0,0.0,2.7222,0.0,0.0,0.0,0.0,0.0,0.0,0.0,0.0,0.0,0.0,0.0,0.0,0.0,0.0,0.0,0.0,0.0,0.0,0.0,0.0,0.0,0.0,0.0,0.0,0.0,0.0,0.0,0.0,0.0,0.0,0.0,0.0,0.0,0.0,0.0,0.0,0.0,0.0,0.0,0.0,0.0,0.0,0.0,0.0,0.0,0.0,0.0,0.0,0.0,0.0,0.0,0.0,0.0,0.0,0.0,0.0,0.0,0.0,0.0,4.7467,5.2025,5.5052,5.5594,5.3446,5.0307,4.4769,0.0,0.0,0.0,0.0,0.0,0.0,0.0,0.0,0.0,0.0,0.0,0.0,0.0,0.0,0.0,0.0,0.0,0.0,0.0,0.0,0.0,0.0,0.0,0.0,0.0,0.0,0.0,0.0,0.0,0.0,0.0,0.0,0.0,0.0,0.0,0.0,0.0,0.0,0.0,0.0,0.0,0.0,0.0,0.0,0.0,0.0,0.0,0.0,0.0,0.0,0.0,0.0,0.0,0.0,0.0,0.0,0.0,0.0,0.0,0.0,0.0,0.0,0.0,0.0,0.0,0.0,0.0,0.0,0.0,0.0,0.0,0.0,0.0,0.0,0.0,0.0,0.0,0.0,0.0,0.0,0.0,0.0,0.0,0.0,0.0,0.0,0.0,0.0,0.0,0.0,0.0,0.0,0.0,0.0,0.0,0.0,0.0,0.0,0.0,0.0,0.0,0.0,0.0,0.0,0.0,0.0,0.0,0.0,4.5621,5.0454,5.4445,5.4726,5.1051,4.8678,4.3577,0.0,0.0,0.0,0.0,0.0,0.0,0.0,0.0,0.0,0.0,0.0,0.0,0.0,0.0,0.0,0.0,0.0,0.0,0.0,0.0,0.0,0.0,0.0,0.0,0.0,0.0,0.0,0.0,0.0,0.0,0.0,0.0,0.0,0.0,0.0,0.0,0.0,0.0,0.0,0.0,0.0,0.0,0.0,0.0,0.0,0.0,0.0,0.0,0.0,0.0,0.0,0.0,0.0,0.0,0.0,0.0,0.0,0.0,0.0,0.0,0.0,0.0,0.0,0.0,0.0,0.0,0.0,0.0,0.0,0.0,0.0,0.0,0.0,0.0,0.0,0.0,0.0,0.0,0.0,0.0,0.0,0.0,0.0,0.0,0.0,0.0,0.0,0.0,0.0,0.0,0.0,0.0,0.0,0.0,0.0,0.0,0.0,0.0,0.0,0.0,0.0,0.0,0.0,0.0,0.0,0.0,0.0,0.0,0.0,4.8132,5.1667,5.1692,4.8076,4.5894,4.0876,0.0,0.0,0.0,0.0,0.0,0.0,0.0,0.0,0.0,0.0,0.0,0.0,0.0,0.0,0.0,0.0,0.0,0.0,0.0,0.0,0.0,0.0,0.0,0.0,0.0,0.0,0.0,0.0,0.0,0.0,0.0,0.0,0.0,0.0,0.0,0.0,0.0,0.0,0.0,0.0,0.0,0.0,0.0,0.0,0.0,0.0,0.0,0.0,0.0,0.0,0.0,0.0,0.0,0.0,0.0,0.0,0.0,0.0,0.0,0.0,0.0,0.0,0.0,0.0,0.0,0.0,0.0,0.0,0.0,0.0,0.0,0.0,0.0,0.0,0.0,0.0,0.0,0.0,0.0,0.0,0.0,0.0,0.0,0.0,0.0,0.0,0.0,0.0,0.0,0.0,0.0,0.0,0.0,0.0,0.0,0.0,0.0,0.0,0.0,0.0,0.0,0.0,0.0,0.0,0.0,0.0,0.0,0.0,0.0,4.4911,4.5205,4.5195,4.4664,4.1576,3.5973,0.0,0.0,0.0,0.0,0.0,0.0,0.0,0.0,0.0,0.0,0.0,0.0,0.0,0.0,0.0,0.0,0.0,0.0,0.0,0.0,0.0,0.0,0.0,0.0,0.0,0.0,0.0,0.0,0.0,0.0,0.0,0.0,0.0,0.0,0.0,0.0,0.0,0.0,0.0,0.0,0.0,0.0,0.0,0.0,0.0,0.0,0.0,0.0,0.0,0.0,0.0,0.0,0.0,0.0,0.0,0.0,0.0,0.0,0.0,0.0,0.0,0.0,0.0,0.0,0.0,0.0,0.0,0.0,0.0,0.0,0.0,0.0,0.0,0.0,0.0,0.0,0.0,0.0,0.0,0.0,0.0,0.0,0.0,0.0,0.0,0.0,0.0,0.0,0.0,0.0,0.0,0.0,0.0,0.0,0.0,0.0,0.0,0.0,0.0,0.0,0.0,0.0,0.0,0.0,0.0,0.0,0.0,0.0,0.0,3.694,3.9021,3.9532,3.8438,3.7193,3.2606,2.4483,0.0,0.0,0.0,0.0,0.0,0.0,0.0,0.0,0.0,0.0,0.0,0.0,0.0,0.0,0.0,0.0,0.0,0.0,0.0,0.0,0.0,0.0,0.0,0.0,0.0,0.0,0.0,0.0,0.0,0.0,0.0,0.0,0.0,0.0,0.0,0.0,0.0,0.0,0.0,0.0,0.0,0.0,0.0,0.0,0.0,0.0,0.0,0.0,0.0,0.0,0.0,0.0,0.0,0.0,0.0,0.0,0.0,0.0,0.0,0.0,0.0,0.0,0.0,0.0,0.0,0.0,0.0,0.0,0.0,0.0,0.0,0.0,0.0,0.0,0.0,0.0,0.0,0.0,0.0,0.0,0.0,0.0,0.0,0.0,0.0,0.0,0.0,0.0,0.0,0.0,0.0,0.0,0.0,0.0,0.0,0.0,0.0,0.0,0.0,0.0,0.0,0.0,0.0,0.0,0.0,0.0,0.0,0.0,3.0002,3.2815,3.3685,3.2558,3.1518,2.7764,0.0,0.0,0.0,0.0,0.0,0.0,0.0,0.0,0.0,0.0,0.0,0.0,0.0,0.0,0.0,0.0,0.0,0.0,0.0,0.0,0.0,0.0,0.0,0.0,0.0,0.0,0.0,0.0,0.0,0.0,0.0,0.0,0.0,0.0,0.0,0.0,0.0,0.0,0.0,0.0,0.0,0.0,0.0,0.0,0.0,0.0,0.0,0.0,0.0,0.0,0.0,0.0,0.0,0.0,0.0,0.0,0.0,0.0,0.0,0.0,0.0,0.0,0.0,0.0,0.0,0.0,0.0,0.0,0.0,0.0,0.0,0.0,0.0,0.0,0.0,0.0,0.0,0.0,0.0,0.0,0.0,0.0,0.0,0.0,0.0,0.0,0.0,0.0,0.0,0.0,0.0,0.0,0.0,0.0,0.0,0.0,0.0,0.0,0.0,0.0,0.0,0.0,0.0,0.0,0.0,0.0,0.0,0.0,1.8386,2.4637,2.6631,2.7629,2.7402,2.445,2.1044,0.0,0.0,0.0,0.0,0.0,0.0,0.0,0.0,0.0,0.0,0.0,0.0,0.0,0.0,0.0,0.0,0.0,0.0,0.0,0.0,0.0,0.0,0.0,0.0,0.0,0.0,0.0,0.0,0.0,0.0,0.0,0.0,0.0,0.0,0.0,0.0,0.0,0.0,0.0,0.0,0.0,0.0,0.0,0.0,0.0,0.0,0.0,0.0,0.0,0.0,0.0,0.0,0.0,0.0,0.0,0.0,0.0,0.0,0.0,0.0,0.0,0.0,0.0,0.0,0.0,0.0,0.0,0.0,0.0,0.0,0.0,0.0,0.0,0.0,0.0,0.0,0.0,0.0,0.0,0.0,0.0,0.0,0.0,0.0,0.0,0.0,0.0,0.0,0.0,0.0,0.0,0.0,0.0,0.0,0.0,0.0,0.0,0.0,0.0,0.0,0.0,0.0,0.0,0.0,0.0,0.0,0.0,0.0,0.0,1.8154,0.0,2.4144,0.0,2.1954,1.9213,0.0,0.0,0.0,0.0,0.0,0.0,0.0,0.0,0.0,0.0,0.0,0.0,0.0,0.0,0.0,0.0,0.0,0.0,0.0,0.0,0.0,0.0,0.0,0.0,0.0,0.0,0.0,0.0,0.0,0.0,0.0,0.0,0.0,0.0,0.0,0.0,0.0,0.0,0.0,0.0,0.0,0.0,0.0,0.0,0.0,0.0,0.0,0.0,0.0,0.0,0.0,0.0,0.0,0.0,0.0,0.0,0.0,0.0,0.0,0.0,0.0,0.0,0.0,0.0,0.0,0.0,0.0,0.0,0.0,0.0,0.0,0.0,0.0,0.0,0.0,0.0,0.0,0.0,0.0,0.0,0.0,0.0,0.0,0.0,0.0,0.0,0.0,0.0,0.0,0.0,0.0,0.0,0.0,0.0,0.0,0.0,0.0,0.0,0.0,0.0,0.0,0.0,0.0,0.0,0.0,0.0,0.0,0.0,0.0,1.418,1.8444,2.1022,2.1526,1.9433,1.7184,0.0,0.0,0.0,0.0,0.0,0.0,0.0,0.0,0.0,0.0,0.0,0.0,0.0,0.0,0.0,0.0,0.0,0.0,0.0,0.0,0.0,0.0,0.0,0.0,0.0,0.0,0.0,0.0,0.0,0.0,0.0,0.0,0.0,0.0,0.0,0.0,0.0,0.0,0.0,0.0,0.0,0.0,0.0,0.0,0.0,0.0,0.0,0.0,0.0,0.0,0.0,0.0,0.0,0.0,0.0,0.0,0.0,0.0,0.0,0.0,0.0,0.0,0.0,0.0,0.0,0.0,0.0,0.0,0.0,0.0,0.0,0.0,0.0,0.0,0.0,0.0,0.0,0.0,0.0,0.0,0.0,0.0,0.0,0.0,0.0,0.0,0.0,0.0,0.0,0.0,0.0,0.0,0.0,0.0,0.0,0.0,0.0,0.0,0.0,0.0,0.0,0.0,0.0,0.0,0.0,0.0,0.0,0.0,0.0,1.2579,1.5613,1.8092,1.9661,1.6591,1.488,0.0,0.0,0.0,0.0,0.0,0.0,0.0,0.0,0.0,0.0,0.0,0.0,0.0,0.0,0.0,0.0,0.0,0.0,0.0,0.0,0.0,0.0,0.0,0.0,0.0,0.0,0.0,0.0,0.0,0.0,0.0,0.0,0.0,0.0,0.0,0.0,0.0,0.0,0.0,0.0,0.0,0.0,0.0,0.0,0.0,0.0,0.0,0.0,0.0,0.0,0.0,0.0,0.0,0.0,0.0,0.0,0.0,0.0,0.0,0.0,0.0,0.0,0.0,0.0,0.0,0.0,0.0,0.0,0.0,0.0,0.0,0.0,0.0,0.0,0.0,0.0,0.0,0.0,0.0,0.0,0.0,0.0,0.0,0.0,0.0,0.0,0.0,0.0,0.0,0.0,0.0,0.0,0.0,0.0,0.0,0.0,0.0,0.0,0.0,0.0,0.0,0.0,0.0,0.0,0.0,0.0,0.0,0.0,0.0,0.0,1.3287,1.4612,1.6167,1.4266,1.3136,1.3133,0.0,0.0,0.0,0.0,0.0,0.0,0.0,0.0,0.0,0.0,0.0,0.0,0.0,0.0,0.0,0.0,0.0,0.0,0.0,0.0,0.0,0.0,0.0,0.0,0.0,0.0,0.0,0.0,0.0,0.0,0.0,0.0,0.0,0.0,0.0,0.0,0.0,0.0,0.0,0.0,0.0,0.0,0.0,0.0,0.0,0.0,0.0,0.0,0.0,0.0,0.0,0.0,0.0,0.0,0.0,0.0,0.0,0.0,0.0,0.0,0.0,0.0,0.0,0.0,0.0,0.0,0.0,0.0,0.0,0.0,0.0,0.0,0.0,0.0,0.0,0.0,0.0,0.0,0.0,0.0,0.0,0.0,0.0,0.0,0.0,0.0,0.0,0.0,0.0,0.0,0.0,0.0,0.0,0.0,0.0,0.0,0.0,0.0,0.0,0.0,0.0,0.0,0.0,0.0,0.0,0.0,0.0,0.0,0.0,0.0,1.288,1.3929,1.3634,1.3168,0.0,0.0,0.0,0.0,0.0,0.0,0.0,0.0,0.0,0.0,0.0,0.0,0.0,0.0,0.0,0.0,0.0,0.0,0.0,0.0,0.0,0.0,0.0,0.0,0.0,0.0,0.0,0.0,0.0,0.0,0.0,0.0,0.0,0.0,0.0,0.0,0.0,0.0,0.0,0.0,0.0,0.0,0.0,0.0,0.0,0.0,0.0,0.0,0.0,0.0,0.0,0.0,0.0,0.0,0.0,0.0,0.0,0.0,0.0,0.0,0.0,0.0,0.0,0.0,0.0,0.0,0.0,0.0,0.0,0.0,0.0,0.0,0.0,0.0,0.0,0.0,0.0,0.0,0.0,0.0,0.0,0.0,0.0,0.0,0.0,0.0,0.0,0.0,0.0,0.0,0.0,0.0,0.0,0.0,0.0,0.0,0.0,0.0,0.0,0.0,0.0,0.0,0.0,0.0,0.0,0.0,0.0,0.0,0.0,0.0,0.0,1.2095,1.2222,1.3674,0.0,1.2299,0.0,0.0,0.0,0.0,0.0,0.0,0.0,0.0,0.0,0.0,0.0,0.0,0.0,0.0,0.0,0.0,0.0,0.0,0.0,0.0,0.0,0.0,0.0,0.0,0.0,0.0,0.0,0.0,0.0,0.0,0.0,0.0,0.0,0.0,0.0,0.0,0.0,0.0,0.0,0.0,0.0,0.0,0.0,0.0,0.0,0.0,0.0,0.0,0.0,0.0,0.0,0.0,0.0,0.0,0.0,0.0,0.0,0.0,0.0,0.0,0.0,0.0,0.0,0.0,0.0,0.0,0.0,0.0,0.0,0.0,0.0,0.0,0.0,0.0,0.0,0.0,0.0,0.0,0.0,0.0,0.0,0.0,0.0,0.0,0.0,0.0,0.0,0.0,0.0,0.0,0.0,0.0,0.0,0.0,0.0,0.0,0.0,0.0,0.0,0.0,0.0,0.0,0.0,0.0,0.0,0.0,0.0,0.0,0.0,0.0,0.0,0.0,1.0841,1.0866,1.0516,0.0,0.0,0.0,0.0,0.0,0.0,0.0,0.0,0.0,0.0,0.0,0.0,0.0,0.0,0.0,0.0,0.0,0.0,0.0,0.0,0.0,0.0,0.0,0.0,0.0,0.0,0.0,0.0,0.0,0.0,0.0,0.0,0.0,0.0,0.0,0.0,0.0,0.0,0.0,0.0,0.0,0.0,0.0,0.0,0.0,0.0,0.0,0.0,0.0,0.0,0.0,0.0,0.0,0.0,0.0,0.0,0.0,0.0,0.0,0.0,0.0,0.0,0.0,0.0,0.0,0.0,0.0,0.0,0.0,0.0,0.0,0.0,0.0,0.0,0.0,0.0,0.0,0.0,0.0,0.0,0.0,0.0,0.0,0.0,0.0,0.0,0.0,0.0,0.0,0.0,0.0,0.0,0.0,0.0,0.0,0.0,0.0,0.0,0.0,0.0,0.0,0.0,0.0,0.0,0.0,0.0,0.0,0.0,0.0,0.0,0.9672,0.9797,0.9803,0.9838,0.9894,0.0,0.0,0.0,0.0,0.0,0.0,0.0,0.0,0.0,0.0,0.0,0.0,0.0,0.0,0.0,0.0,0.0,0.0,0.0,0.0,0.0,0.0,0.0,0.0,0.0,0.0,0.0,0.0,0.0,0.0,0.0,0.0,0.0,0.0,0.0,0.0,0.0,0.0,0.0,0.0,0.0,0.0,0.0,0.0,0.0,0.0,0.0,0.0,0.0,0.0,0.0,0.0,0.0,0.0,0.0,0.0,0.0,0.0,0.0,0.0,0.0,0.0,0.0,0.0,0.0,0.0,0.0,0.0,0.0,0.0,0.0,0.0,0.0,0.0,0.0,0.0,0.0,0.0,0.0,0.0,0.0,0.0,0.0,0.0,0.0,0.0,0.0,0.0,0.0,0.0,0.0,0.0,0.0,0.0,0.0,0.0,0.0,0.0,0.0,0.0,0.0,0.0,0.0,0.0,0.0,0.0,0.0,0.0,0.0,0.0,0.0,0.0,0.0,0.0,0.9889,0.0,0.0,0.0,0.0,0.0,0.0,0.0,0.0,0.0,0.0,0.0,0.0,0.0,0.0,0.0,0.0,0.0,0.0,0.0,0.0,0.0,0.0,0.0,0.0,0.0,0.0,0.0,0.0,0.0,0.0,0.0,0.0,0.0,0.0,0.0,0.0,0.0,0.0,0.0,0.0,0.0,0.0,0.0,0.0,0.0,0.0,0.0,0.0,0.0,0.0,0.0,0.0,0.0,0.0,0.0,0.0,0.0,0.0,0.0,0.0,0.0,0.0,0.0,0.0,0.0,0.0,0.0,0.0,0.0,0.0,0.0,0.0,0.0,0.0,0.0,0.0,0.0,0.0,0.0,0.0,0.0,0.0,0.0,0.0,0.0,0.0,0.0,0.0,0.0,0.0,0.0,0.0,0.0,0.0,0.0,0.0,0.0,0.0,0.0,0.0,0.0,0.0,0.0,0.0,0.0,0.0,0.0,0.0,0.0,0.0,0.0,0.0,0.0,0.0,0.0,0.0,0.0,0.0,0.0,0.0,0.0,0.0,0.0,0.0,0.0,0.0,0.0,0.0,0.0,0.0,0.0,0.0,0.0,0.0,0.0,0.0,0.0,0.0,0.0,0.0,0.0,0.0,0.0,0.0,0.0,0.0,0.0,0.0,0.0,0.0,0.0,0.0,0.0,0.0,0.0,0.0,0.0,0.0,0.0,0.0,0.0,0.0,0.0,0.0,0.0,0.0,0.0,0.0,0.0,0.0,0.0,0.0,0.0,0.0,0.0,0.0,0.0,0.0,0.0,0.0,0.0,0.0,0.0,0.0,0.0,0.0,0.0,0.0,0.0,0.0,0.0,0.0,0.0,0.0,0.0,0.0,0.0,0.0,0.0,0.0,0.0,0.0,0.0,0.0,0.0,0.0,0.0,0.0,0.0,0.0,0.0,0.0,0.0,0.0,0.0,0.0,0.0,0.0,0.0,0.0,0.0,0.0,0.0,0.0,0.0,0.0,0.0,0.0,0.0,0.0,0.0,0.0,0.0,0.0,0.0,0.0,0.0,0.0,0.0,0.0,0.0,0.0,0.0,0.0,0.0,0.0,0.0,0.0,0.0,0.0,0.0,0.0,0.0,0.0,0.0,0.0,0.0,0.0,0.0,0.0,0.0,0.0,0.0,0.0,0.0,0.0,0.0,0.0,0.0,0.0,0.0,0.0,0.0,0.0,0.0,0.0,0.0,0.0,0.0,0.0,0.0,0.0,0.0,0.0,0.0,0.0,0.0,0.0,0.0,0.0,0.0,0.0,0.0,0.0,0.0,0.0,0.0,0.0,0.0,0.0,0.0,0.0,0.0,0.0,0.0,0.0,0.0,0.0,0.0,0.0,0.0,0.0,0.0,0.0,0.0,0.0,0.0,0.0,0.0,0.0,0.0,0.0,0.0,0.0,0.0,0.0,0.0,0.0,0.0,0.0,0.0,0.0,0.0,0.0,0.0,0.0,0.0,0.0,0.0,0.0,0.0,0.0,0.0,0.0,0.0,0.0,0.0,0.0,0.0,0.0,0.0,0.0,0.0,0.0,0.0,0.0,0.0,0.0,0.0,0.0,0.0,0.0,0.0,0.0,0.0,0.0,0.0,0.0,0.0,0.0,0.0,0.0,0.0,0.0,0.0,0.0,0.0,0.0,0.0,0.0,0.0,0.0,0.0,0.0,0.0,0.0,0.0,0.0,0.0,0.0,0.0,0.0,0.0,0.0,0.0,0.0,0.0,0.0,0.0,0.0,0.0,0.0,0.0,0.0,0.0,0.0,0.0,0.0,0.0,0.0,0.0,0.0,0.0,0.0,0.0,0.0,0.0,0.0,0.0,0.0,0.0,0.0,0.0,0.0,0.0,0.0,0.0,0.0,0.0,0.0,0.0,0.0,0.0,0.0,0.0,0.0,0.0,0.0,0.0,0.0,0.0,0.0,0.0,0.0,0.0,0.0,0.0,0.0,0.0,0.0,0.0,0.0,0.0,0.0,0.0,0.0,0.0,0.0,0.0,0.0,0.0,0.0,0.0,0.0,0.0,0.0,0.0,0.0,0.0,0.0,0.0,0.0,0.0,0.0,0.0,0.0,0.0,0.0,0.0,0.0,0.0,0.0,0.0,0.0,0.0,0.0,0.0,0.0,0.0,0.0,0.0,0.0,0.0,0.0,0.0,0.0,0.0,0.0,0.0,0.0,0.0,0.0,0.0,0.0,0.0,0.0,0.0,0.0,0.0,0.0,0.0,0.0,0.0,0.0,0.0,0.0,0.0,0.0,0.0,0.0,0.0,0.0,0.0,0.0,0.0,0.0,0.0,0.0,0.0,0.0,0.0,0.0,0.0,0.0,0.0,0.0,0.0,0.0,0.0,0.0,0.0,0.0,0.0,0.0,0.0,0.0,0.0,0.0,0.0,0.0,0.0,0.0,0.0,0.0,0.0,0.0,0.0,0.0,0.0,0.0,0.0,0.0,0.0,0.0,0.0,0.0,0.0,0.0,0.0,0.0,0.0,0.0,0.0,0.0,0.0,0.0,0.0,0.0,0.0,0.0,0.0,0.0,0.0,0.0,0.0,0.0,0.0,0.0,0.0,0.0,0.0,0.0,0.0,0.0,0.0,0.0,0.0,0.0,0.0,0.0,0.0,0.0,0.0,0.0,0.0,0.0,0.0,0.0,0.0,0.0,0.0,0.0,0.0,0.0,0.0,0.0,0.0,0.0,0.0,0.0,0.0,0.0,0.0,0.0,0.0,0.0,0.0,0.0,0.0,0.0,0.0,0.0,0.0,0.0,0.0,0.0,0.0,0.0,0.0,0.0,0.0,0.0,0.0,0.0,0.0,0.0,0.0,0.0,0.0,0.0,0.0,0.0,0.0,0.0,0.0,0.0,0.0,0.0,0.0,0.0,0.0,0.0,0.0,0.0,0.0,0.0,0.0,0.0,0.0,0.0,0.0,0.0,0.0,0.0,0.0,0.0,0.0,0.0,0.0,0.0,0.0,0.0,0.0,0.0,0.0,0.0,0.0,0.0,0.0,0.0,0.0,0.0,0.0,0.0,0.0,0.0,0.0,0.0,0.0,0.0,0.0,0.0,0.0,0.0,0.0,0.0,0.0,0.0,0.0,0.0,0.0,0.0,0.0,0.0,0.0,0.0,0.0,0.0,0.0,0.0,0.0,0.0,0.0,0.0,0.0,0.0,0.0,0.0,0.0,0.0,0.0,0.0,0.0,0.0,0.0,0.0,0.0,0.0,0.0,0.0,0.0,0.0,0.0,0.0,0.0,0.0,0.0,0.0,0.0,0.0,0.0,0.0,0.0,0.0,0.0,0.0,0.0,0.0,0.0,0.0,0.0,0.0,0.0,0.0,0.0,0.0,0.0,0.0,0.0,0.0,0.0,0.0,0.0,0.0,0.0,0.0,0.0,0.0,0.0,0.0,0.0,0.0,0.0,0.0,0.0,0.0,0.0,0.0,0.0,0.0,0.0,0.0,0.0,0.0,0.0,0.0,0.0,0.0,0.0,0.0,0.0,0.0,0.0,0.0,0.0,0.0,0.0,0.0,0.0,0.0,0.0,0.0,0.0,0.0,0.0,0.0,0.0,0.0,0.0,0.0,0.0,0.0,0.0,0.0,0.0,0.0,0.0,0.0,0.0,0.0,0.0,0.0,0.0,0.0,0.0,0.0,0.0,0.0,0.0,0.0,0.0,0.0,0.0,0.0,0.0,0.0,0.0,0.0,0.0,0.0,0.0,0.0,0.0,0.0,0.0,0.0,0.0,0.0,0.0,0.0,0.0,0.0,0.0,0.0,0.0,0.0,0.0,0.0,0.0,0.0,0.0,0.0,0.0,0.0,0.0,0.0,0.0,0.0,0.0,0.0,0.0,0.0,0.0,0.0,0.0,0.0,0.0,0.0,0.0,0.0,0.0,0.0,0.0,0.0,0.0,0.0,0.0,0.0,0.0,0.0,0.0,0.0,0.0,0.0,0.0,0.0,0.0,0.0,0.0,0.0,0.0,0.0,0.0,0.0,0.0,0.0,0.0,0.0,0.0,0.0,0.0,0.0,0.0,0.0,0.0,0.0,0.0,0.0,0.0,0.0,0.0,0.0,0.0,0.0,0.0,0.0,0.0,0.0,0.0,0.0,0.0,0.0,0.0,0.0,0.0,0.0,0.0,0.0,0.0,0.0,0.0,0.0,0.0,0.0,0.0,0.0,0.0,0.0,0.0,0.0,0.0,0.0,0.0,0.0,0.0,0.0,0.0,0.0,0.0,0.0,0.0,0.0,0.0,0.0,0.0,0.0,0.0,0.0,0.0,0.0,0.0,0.0,0.0,0.0,0.0,0.0,0.0,0.0]}],[{"header":{"parameterUnit":"kt","parameterCategory":2,"dx":1,"dy":1,"la1":29.587661999999998,"la2":31.0,"lo1":-88.76705300000003,"lo2":-86.6583820000003,"nx":115,"ny":88,"refTime":"2022-10-18T18:00:00:Z","depth":0,"parameterNumber":2,"parameterNumberName":"V-component_of_WINDS"},"data":[1.3963,1.3976,1.4029,1.4187,1.4392,1.4418,1.455,1.4748,1.4748,1.4807,1.4899,1.5143,1.5381,1.5618,1.5625,1.5625,1.5625,1.5625,1.5625,1.5818,1.7176,1.8523,2.0458,2.3367,2.6373,2.8999,3.1214,3.2397,3.3008,3.3618,3.4034,3.4177,3.419,3.4216,3.428,3.4748,3.5293,3.5878,3.6436,3.6981,3.7462,3.7644,3.7644,3.7644,3.7644,3.7644,3.7644,3.7644,3.7644,3.7644,3.7644,3.7644,3.7644,3.7644,3.7644,3.7644,3.7644,3.7644,3.7644,3.7644,3.7644,3.7644,3.7644,3.7644,3.7644,3.7644,3.6981,3.5345,3.428,3.428,3.419,3.419,3.4203,3.4203,3.4203,3.4203,3.419,3.419,3.419,3.419,3.419,3.419,3.419,3.419,3.419,3.419,3.419,3.5034,3.5176,3.5839,3.6579,3.6942,3.7319,3.7644,3.7644,3.7644,3.7644,3.7644,3.7644,3.7644,3.7644,3.7644,3.7644,3.7644,3.7644,3.7644,3.7644,3.7644,3.8306,3.8743,4.0059,4.1159,4.1395,4.3166,4.6901,1.4273,1.4313,1.4543,1.4682,1.4715,1.4715,1.4754,1.4787,1.4787,1.4926,1.5157,1.5433,1.5565,1.5618,1.5625,1.5625,1.5625,1.5625,1.5818,1.6397,1.7369,1.8908,2.0814,2.3089,2.5609,2.831,3.0568,3.165,3.2683,3.3255,3.3774,3.4112,3.419,3.4203,3.4358,3.4787,3.5449,3.6046,3.6618,3.7124,3.741,3.7644,3.7644,3.7644,3.7644,3.7644,3.7644,3.7644,3.7644,3.7644,3.7644,3.7644,3.7644,3.7644,3.7644,3.7644,3.7644,3.7644,3.7644,3.7644,3.7644,3.7644,3.7644,3.7644,3.7644,3.7644,3.7644,3.6488,3.4982,3.4397,3.4254,3.419,3.4203,3.4216,3.4216,3.4216,3.4203,3.419,3.419,3.419,3.419,3.419,3.419,3.419,3.419,3.419,3.4631,3.5605,3.6423,3.6838,3.7098,3.741,3.7644,3.7644,3.7644,3.7644,3.7644,3.7644,3.7644,3.7644,3.7644,3.7644,3.7644,3.7644,3.7644,3.7644,3.7644,3.7644,3.7644,3.7869,3.9402,4.0714,4.1173,4.2725,4.645,1.4389,1.459,1.4721,1.486,1.4985,1.4998,1.5097,1.5229,1.5249,1.5315,1.5453,1.5552,1.5625,1.5625,1.5625,1.5625,1.5625,1.5625,1.5818,1.659,1.7746,1.9283,2.1387,2.3478,2.5733,2.763,2.9628,3.1278,3.2488,3.3034,3.3566,3.4099,3.4216,3.4358,3.4787,3.5267,3.5865,3.6384,3.7007,3.7384,3.7579,3.7644,3.7644,3.7644,3.7644,3.7644,3.7644,3.7644,3.7644,3.7644,3.7644,3.7644,3.7644,3.7644,3.7644,3.7644,3.7644,3.7644,3.7644,3.7644,3.7644,3.7644,3.7644,3.7644,3.7644,3.7644,3.7644,3.7488,3.5994,3.4891,3.4748,3.4293,3.4267,3.4307,3.4398,3.4501,3.4423,3.4397,3.4384,3.4332,3.4228,3.4228,3.419,3.419,3.4358,3.441,3.5917,3.7007,3.7189,3.7475,3.7527,3.7644,3.7644,3.7644,3.7644,3.7644,3.7644,3.7644,3.7644,3.7644,3.7644,3.7644,3.7644,3.7644,3.7644,3.7644,3.7644,3.7644,3.7644,3.7869,3.8967,4.0059,4.0728,4.1839,4.5142,1.4682,1.4873,1.4946,1.5091,1.5282,1.5288,1.542,1.5618,1.5625,1.5605,1.5625,1.5625,1.5625,1.5625,1.5625,1.5625,1.5625,1.5625,1.6004,1.6776,1.7939,1.9475,2.1378,2.3657,2.5743,2.7618,2.9032,3.0316,3.1739,3.2696,3.3371,3.3904,3.419,3.4475,3.4995,3.5566,3.6137,3.667,3.7215,3.7566,3.7644,3.7644,3.7644,3.7644,3.7644,3.7644,3.7644,3.7644,3.7644,3.7644,3.7644,3.7644,3.7644,3.7644,3.7644,3.7644,3.7644,3.7644,3.7644,3.7644,3.7644,3.7644,3.7644,3.7644,3.7644,3.7644,3.7644,3.7644,3.7124,3.6098,3.5293,3.4735,3.4384,3.4591,3.4716,3.472,3.493,3.4696,3.4449,3.4307,3.4332,3.4254,3.4203,3.4293,3.4501,3.5514,3.6994,3.7592,3.7631,3.7644,3.7644,3.7644,3.7644,3.7644,3.7644,3.7644,3.7644,3.7644,3.7644,3.7644,3.7644,3.7644,3.7644,3.7644,3.7644,3.7644,3.7644,3.7644,3.7869,3.7856,3.8743,3.9402,4.0296,4.1632,4.4501,1.5344,1.5176,1.5447,1.5532,1.5592,1.5572,1.5592,1.5625,1.5625,1.5625,1.5625,1.5625,1.5625,1.5625,1.5625,1.5625,1.5625,1.5625,1.6011,1.7161,1.8124,1.9667,2.1759,2.3846,2.5921,2.742,2.8785,3.0014,3.0906,3.2086,3.2982,3.3397,3.3904,3.4566,3.5176,3.5722,3.6306,3.6877,3.7371,3.7644,3.7644,3.7644,3.7644,3.7644,3.7644,3.7644,3.7644,3.7644,3.7644,3.7644,3.7644,3.7644,3.7644,3.7644,3.7644,3.7644,3.7644,3.7644,3.7644,3.7644,3.7644,3.7644,3.7644,3.7644,3.7644,3.7644,3.7644,3.7644,3.7605,3.6761,3.5774,3.5124,3.5361,3.5527,3.5443,3.5488,3.541,3.5024,3.5049,3.554,3.5176,3.4228,3.4267,3.5228,3.5501,3.6618,3.7579,3.7618,3.7644,3.7644,3.7644,3.7644,3.7644,3.7644,3.7644,3.7644,3.7644,3.7644,3.7644,3.7644,3.7644,3.7644,3.7644,3.7644,3.7644,3.7644,3.7644,3.7644,3.7869,3.7856,3.8293,3.8967,4.0073,4.1632,4.4281,1.5453,1.5473,1.5585,1.5625,1.5625,1.5625,1.5625,1.5625,1.5625,1.5625,1.5625,1.5625,1.5625,1.5625,1.5625,1.5625,1.5625,1.5625,1.6204,1.7161,1.8124,1.985,2.1768,2.3856,2.5921,2.742,2.8923,2.9876,3.0926,3.1878,3.2748,3.3307,3.3891,3.4683,3.5371,3.5839,3.6423,3.7033,3.7475,3.7605,3.7644,3.7644,3.7644,3.7644,3.7644,3.7644,3.7644,3.7644,3.7644,3.7644,3.7644,3.7644,3.7644,3.7644,3.7644,3.7644,3.7644,3.7644,3.7644,3.7644,3.7644,3.7644,3.7644,3.7644,3.7644,3.7644,3.7644,3.7644,3.7592,3.7371,3.641,3.5644,3.6197,3.6511,3.6406,3.6288,3.5921,3.5576,3.5922,3.6514,3.5852,3.4774,3.4865,3.5839,3.6722,3.7189,3.7449,3.7553,3.7644,3.7644,3.7644,3.7644,3.7644,3.7644,3.7644,3.7644,3.7644,3.7644,3.7644,3.7644,3.7644,3.7644,3.7644,3.7644,3.7644,3.7644,3.7644,3.7644,3.7869,3.8081,3.8293,3.8967,3.985,4.1632,4.4266,1.5625,1.5625,1.5625,1.5625,1.5625,1.5625,1.5625,1.5625,1.5625,1.5625,1.5625,1.5625,1.5625,1.5625,1.5625,1.5625,1.5625,1.5625,1.6197,1.7161,1.8124,1.985,2.1759,2.3856,2.5921,2.7606,2.8923,2.9876,3.0809,3.1385,3.2229,3.3151,3.38,3.4826,3.5514,3.5955,3.6553,3.7111,3.7501,3.7605,3.7644,3.7644,3.7644,3.7644,3.7644,3.7644,3.7644,3.7644,3.7644,3.7644,3.7644,3.7644,3.7644,3.7644,3.7644,3.7644,3.7644,3.7644,3.7644,3.7644,3.7644,3.7644,3.7644,3.7644,3.7644,3.7644,3.7644,3.7644,3.7618,3.7605,3.6994,3.6566,3.6618,3.7072,3.7151,3.7059,3.68,3.6682,3.6785,3.7059,3.6748,3.5878,3.5878,3.6657,3.6955,3.7124,3.7319,3.7527,3.7644,3.7644,3.7644,3.7644,3.7644,3.7644,3.7644,3.7644,3.7644,3.7644,3.7644,3.7644,3.7644,3.7644,3.7644,3.7644,3.7644,3.7644,3.7644,3.7644,3.7644,3.7856,3.8518,3.8967,3.985,4.1617,4.4046,1.5625,1.5625,1.5625,1.5625,1.5625,1.5625,1.5625,1.5625,1.5625,1.5625,1.5625,1.5625,1.5625,1.5625,1.5625,1.5625,1.5625,1.5625,1.6197,1.7154,1.8124,1.985,2.1759,2.3856,2.5921,2.7606,2.8923,2.9863,3.059,3.1099,3.1683,3.2553,3.367,3.4709,3.5449,3.5865,3.6228,3.6864,3.7293,3.7514,3.7644,3.7644,3.7644,3.7644,3.7644,3.7644,3.7644,3.7644,3.7644,3.7644,3.7644,3.7644,3.7644,3.7644,3.7644,3.7644,3.7644,3.7644,3.7644,3.7644,3.7644,3.7644,3.7644,3.7644,3.7644,3.7644,3.7644,3.7644,3.7644,3.7644,3.7644,3.741,3.7176,3.7306,3.7699,3.7686,3.741,3.7436,3.754,3.7436,3.7124,3.702,3.6942,3.7059,3.7384,3.7462,3.7488,3.7644,3.7644,3.7644,3.7644,3.7644,3.7644,3.7644,3.7644,3.7644,3.7644,3.7644,3.7644,3.7644,3.7644,3.7644,3.7644,3.7644,3.7644,3.7644,3.7644,3.7644,3.7644,3.8081,3.8743,3.8967,3.8743,4.0965,4.4485,1.5625,1.5625,1.5625,1.5625,1.5625,1.5625,1.5625,1.5625,1.5625,1.5625,1.5625,1.5625,1.5625,1.5625,1.5625,1.5625,1.5625,1.5625,1.6004,1.7154,1.8131,1.9858,2.1759,2.3846,2.5921,2.7618,2.8935,2.9863,3.0761,3.0761,3.1424,3.2488,3.3605,3.4527,3.5098,3.5514,3.5826,3.6527,3.6903,3.7228,3.7514,3.7605,3.7618,3.7644,3.7644,3.7644,3.7644,3.7644,3.7644,3.7644,3.7644,3.7644,3.7644,3.7644,3.7644,3.7644,3.7644,3.7644,3.7644,3.7644,3.7644,3.7644,3.7644,3.7644,3.7644,3.7644,3.7644,3.7644,3.7644,3.7644,3.7644,3.7644,3.7488,3.7488,3.7817,3.7817,3.754,3.7501,3.7566,3.7592,3.7423,3.7488,3.7501,3.7566,3.7605,3.7644,3.7644,3.7644,3.7644,3.7644,3.7644,3.7644,3.7644,3.7644,3.7644,3.7644,3.7644,3.7644,3.7644,3.7644,3.7644,3.7644,3.7644,3.7644,3.7644,3.7644,3.7644,3.7644,3.7644,3.8081,3.8518,3.8531,3.8306,4.141,4.5377,1.5625,1.5625,1.5625,1.5625,1.5625,1.5625,1.5625,1.5625,1.5625,1.5625,1.5625,1.5625,1.5625,1.5625,1.5625,1.5625,1.5625,1.5625,1.5818,1.6969,1.8124,1.9858,2.1768,2.3657,2.5921,2.7606,2.8935,2.9863,3.0761,3.106,3.167,3.2398,3.3358,3.4177,3.4657,3.5098,3.5345,3.6085,3.6462,3.6761,3.7267,3.7345,3.7423,3.7644,3.7644,3.7644,3.7644,3.7644,3.7644,3.7644,3.7644,3.7644,3.7644,3.7644,3.7644,3.7644,3.7644,3.7644,3.7644,3.7644,3.7644,3.7644,3.7644,3.7644,3.7644,3.7644,3.7644,3.7644,3.7644,3.7644,3.7644,3.7644,3.7644,3.7644,3.7644,3.7644,3.7791,3.7765,3.7673,3.7449,3.6553,3.6267,3.6605,3.6527,3.7319,3.7644,3.7644,3.7644,3.7644,3.7644,3.7644,3.7644,3.7644,3.7644,3.7644,3.7644,3.7644,3.7644,3.7644,3.7644,3.7644,3.7644,3.7644,3.7644,3.7644,3.7644,3.7644,3.7644,3.7644,3.7869,3.8081,3.8306,3.8756,4.141,4.5377,1.5625,1.5625,1.5625,1.5625,1.5625,1.5625,1.5625,1.5625,1.5625,1.5625,1.5625,1.5625,1.5625,1.5625,1.5625,1.5625,1.5625,1.5625,1.5818,1.659,1.7939,1.9467,2.1378,2.3667,2.5743,2.7606,2.8923,2.9863,3.0774,3.1216,3.1813,3.2527,3.3242,3.3852,3.4228,3.4774,3.5047,3.5189,3.5722,3.6202,3.667,3.6864,3.715,3.741,3.7566,3.7644,3.7644,3.7644,3.7644,3.7644,3.7644,3.7644,3.7644,3.7644,3.7644,3.7644,3.7644,3.7644,3.7644,3.7644,3.7644,3.7644,3.7644,3.7644,3.7644,3.7644,3.7644,3.7644,3.7644,3.7644,3.7644,3.7644,3.7644,3.7644,3.7644,3.7843,3.7686,3.7819,3.7386,3.7281,3.5592,3.4423,3.5137,3.5943,3.7033,3.7631,3.7644,3.7644,3.7644,3.7644,3.7644,3.7644,3.7644,3.7644,3.7644,3.7644,3.7644,3.7644,3.7644,3.7644,3.7644,3.7644,3.7644,3.7644,3.7644,3.7644,3.7644,3.7644,3.7644,3.7644,3.7856,3.8306,3.9191,4.0965,4.4501,1.5625,1.5625,1.5625,1.5625,1.5625,1.5625,1.5625,1.5625,1.5625,1.5625,1.5625,1.5625,1.5625,1.5625,1.5625,1.5625,1.5625,1.5625,1.5811,1.6583,1.7746,1.9291,2.1187,2.3278,2.5555,2.7606,2.8923,2.9888,3.0865,3.1359,3.1969,3.2657,3.3397,3.3865,3.4228,3.4397,3.4657,3.4982,3.5319,3.5618,3.6176,3.6514,3.6903,3.7046,3.7436,3.7566,3.7631,3.7644,3.7644,3.7644,3.7644,3.7644,3.7644,3.7644,3.7644,3.7644,3.7644,3.7644,3.7644,3.7644,3.7644,3.7644,3.7644,3.7644,3.7644,3.7644,3.7644,3.7644,3.7644,3.7644,3.7644,3.7644,3.7644,3.7644,3.7644,3.7631,3.7686,3.7385,3.7201,3.6824,3.5423,3.4267,3.4969,3.5696,3.6774,3.754,3.7592,3.7644,3.7644,3.7644,3.7644,3.7644,3.7644,3.7644,3.7644,3.7644,3.7644,3.7644,3.7644,3.7644,3.7644,3.7644,3.7644,3.7644,3.7644,3.7644,3.7644,3.7644,3.7644,3.7644,3.7869,3.7869,3.8981,4.1632,4.472,1.5625,1.5625,1.5625,1.5625,1.5625,1.5625,1.5625,1.5625,1.5625,1.5625,1.5625,1.5625,1.5625,1.5625,1.5625,1.5625,1.5625,1.5625,1.5625,1.6397,1.7361,1.8908,2.0814,2.2899,2.5356,2.7221,2.8761,2.9913,3.0926,3.1735,3.2255,3.2878,3.3696,3.4073,3.419,3.4241,3.4397,3.4657,3.4761,3.5034,3.5553,3.5994,3.6345,3.6696,3.7228,3.7371,3.7631,3.7644,3.7644,3.7644,3.7644,3.7644,3.7644,3.7644,3.7644,3.7644,3.7644,3.7644,3.7644,3.7644,3.7644,3.7644,3.7644,3.7644,3.7644,3.7644,3.7644,3.7644,3.7644,3.7644,3.7644,3.7644,3.7644,3.7644,3.7644,3.7644,3.7503,3.6951,3.661,3.6367,3.5228,3.4319,3.4839,3.5566,3.6618,3.7488,3.7579,3.7644,3.7644,3.7644,3.7644,3.7644,3.7644,3.7644,3.7644,3.7644,3.7644,3.7644,3.7644,3.7644,3.7644,3.7644,3.7644,3.7644,3.7644,3.7644,3.7644,3.7644,3.7644,3.7644,3.7644,3.7644,4.0087,4.2518,4.4281,1.5625,1.5625,1.5625,1.5625,1.5625,1.5625,1.5625,1.5625,1.5625,1.5625,1.5625,1.5625,1.5625,1.5625,1.5625,1.5625,1.5625,1.5625,1.5625,1.6011,1.7169,1.8323,2.0241,2.2519,2.4969,2.6847,2.8364,2.9978,3.1416,3.2125,3.2826,3.3358,3.3904,3.4112,3.419,3.419,3.4254,3.428,3.4319,3.4592,3.4891,3.5254,3.5709,3.6475,3.6787,3.7046,3.7605,3.7644,3.7644,3.7644,3.7644,3.7644,3.7644,3.7644,3.7644,3.7644,3.7644,3.7644,3.7644,3.7644,3.7644,3.7644,3.7644,3.7644,3.7644,3.7644,3.7644,3.7644,3.7644,3.7644,3.7644,3.7644,3.7644,3.7644,3.7644,3.7644,3.7516,3.6859,3.6228,3.591,3.5267,3.4631,3.4878,3.615,3.7241,3.754,3.7644,3.7644,3.7644,3.7644,3.7644,3.7644,3.7644,3.7644,3.7644,3.7644,3.7644,3.7644,3.7644,3.7644,3.7644,3.7644,3.7644,3.7644,3.7644,3.7644,3.7644,3.7644,3.7644,3.7644,3.7644,3.7644,3.9416,4.0979,4.2075,1.5625,1.5625,1.5625,1.5625,1.5625,1.5625,1.5625,1.5625,1.5625,1.5625,1.5625,1.5625,1.5625,1.5625,1.5625,1.5625,1.5625,1.5625,1.5625,1.5818,1.6776,1.8131,1.9658,2.1759,2.4214,2.6461,2.8027,2.9702,3.1241,3.2358,3.3346,3.3956,3.4099,3.4164,3.419,3.419,3.419,3.419,3.419,3.428,3.4475,3.4839,3.5449,3.6059,3.6579,3.7046,3.754,3.7644,3.7644,3.7644,3.7644,3.7644,3.7644,3.7644,3.7644,3.7644,3.7644,3.7644,3.7644,3.7644,3.7644,3.7644,3.7644,3.7644,3.7644,3.7644,3.7644,3.7644,3.7644,3.7644,3.7644,3.7644,3.7644,3.7644,3.7644,3.7644,3.7647,3.6563,3.5844,3.5696,3.5553,3.4943,3.554,3.6761,3.7358,3.7579,3.7644,3.7644,3.7644,3.7644,3.7644,3.7644,3.7644,3.7644,3.7644,3.7644,3.7644,3.7644,3.7644,3.7644,3.7644,3.7644,3.7644,3.7644,3.7644,3.7644,3.7644,3.7644,3.7644,3.7644,3.7644,3.7644,3.7869,3.832,3.9863,1.5625,1.5625,1.5625,1.5625,1.5625,1.5625,1.5625,1.5625,1.5625,1.5625,1.5625,1.5625,1.5625,1.5625,1.5625,1.5625,1.5625,1.5625,1.5625,1.5818,1.6397,1.7547,1.9091,2.1187,2.3259,2.5577,2.7663,2.9545,3.113,3.2689,3.3618,3.4073,3.4177,3.419,3.419,3.419,3.419,3.419,3.419,3.419,3.4254,3.454,3.5098,3.5917,3.6228,3.6851,3.741,3.7644,3.7644,3.7644,3.7644,3.7644,3.7644,3.7644,3.7644,3.7644,3.7644,3.7644,3.7644,3.7644,3.7644,3.7644,3.7644,3.7644,3.7644,3.7644,3.7644,3.7644,3.7644,3.7644,3.7644,3.7644,3.7644,3.7644,3.7644,3.7644,3.7358,3.628,3.5748,3.5839,3.5904,3.5994,3.6345,3.7137,3.7527,3.7644,3.7644,3.7644,3.7644,3.7644,3.7644,3.7644,3.7644,3.7644,3.7644,3.7644,3.7644,3.7644,3.7644,3.7644,3.7644,3.7644,3.7644,3.7644,3.7644,3.7644,3.7644,3.7644,3.7644,3.7644,3.7644,3.7644,3.7869,3.8094,3.9205,1.5625,1.5625,1.5625,1.5625,1.5625,1.5625,1.5625,1.5625,1.5625,1.5625,1.5625,1.5625,1.5625,1.5625,1.5625,1.5625,1.5625,1.5625,1.5625,1.5625,1.6204,1.6976,1.8139,2.0432,2.2529,2.499,2.7762,2.9912,3.1395,3.2732,3.3761,3.4073,3.419,3.419,3.419,3.419,3.419,3.419,3.419,3.419,3.419,3.4216,3.4826,3.5527,3.5994,3.6449,3.7293,3.7592,3.7644,3.7644,3.7644,3.7644,3.7644,3.7644,3.7644,3.7644,3.7644,3.7644,3.7644,3.7644,3.7644,3.7644,3.7644,3.7644,3.7644,3.7644,3.7644,3.7644,3.7644,3.7644,3.7644,3.7644,3.7644,3.7644,3.7644,3.7644,3.7501,3.6631,3.6449,3.6449,3.5475,3.5891,3.6903,3.7306,3.7644,3.7644,3.7644,3.7644,3.7644,3.7644,3.7644,3.7644,3.7644,3.7644,3.7644,3.7644,3.7644,3.7644,3.7644,3.7644,3.7644,3.7644,3.7644,3.7644,3.7644,3.7644,3.7644,3.7644,3.7644,3.7644,3.7644,3.7644,3.7644,3.8094,3.832,1.5625,1.5625,1.5625,1.5625,1.5625,1.5625,1.5625,1.5625,1.5625,1.5625,1.5625,1.5625,1.5625,1.5625,1.5625,1.5625,1.5625,1.5625,1.5625,1.5625,1.6004,1.6783,1.8139,1.9883,2.2097,2.4623,2.7233,2.9084,3.1053,3.2747,3.3625,3.4164,3.419,3.419,3.419,3.419,3.419,3.419,3.419,3.419,3.419,3.4216,3.454,3.5189,3.5722,3.6254,3.6994,3.741,3.7631,3.7644,3.7644,3.7644,3.7644,3.7644,3.7644,3.7644,3.7644,3.7644,3.7644,3.7644,3.7644,3.7644,3.7644,3.7644,3.7644,3.7644,3.7644,3.7644,3.7644,3.7644,3.7644,3.7644,3.7644,3.7644,3.7644,3.7605,3.741,3.728,3.7072,3.6241,3.5124,3.5579,3.7046,3.7644,3.7644,3.7644,3.7644,3.7644,3.7644,3.7644,3.7644,3.7644,3.7644,3.7644,3.7644,3.7644,3.7644,3.7644,3.7644,3.7644,3.7644,3.7644,3.7644,3.7644,3.7644,3.7644,3.7644,3.7644,3.7644,3.7644,3.7644,3.7644,3.7644,3.7869,3.8094,1.5625,1.5625,1.5625,1.5625,1.5625,1.5625,1.5625,1.5625,1.5625,1.5625,1.5625,1.5625,1.5625,1.5625,1.5625,1.5625,1.5625,1.5625,1.5625,1.5625,1.5811,1.659,1.7547,1.9091,2.1428,2.3858,2.6135,2.848,3.1237,3.2652,3.3548,3.419,3.419,3.419,3.419,3.419,3.419,3.419,3.419,3.419,3.419,3.419,3.4501,3.506,3.5644,3.6202,3.6761,3.7345,3.7631,3.7644,3.7644,3.7644,3.7644,3.7644,3.7644,3.7644,3.7644,3.7644,3.7644,3.7644,3.7644,3.7644,3.7644,3.7644,3.7644,3.7644,3.7644,3.7644,3.7644,3.7644,3.7644,3.7644,3.7644,3.7644,3.7644,3.7644,3.7631,3.7631,3.7176,3.6501,3.554,3.5657,3.715,3.7644,3.7644,3.7644,3.7644,3.7644,3.7644,3.7644,3.7644,3.7644,3.7644,3.7644,3.7644,3.7644,3.7644,3.7644,3.7644,3.7644,3.7644,3.7644,3.7644,3.7644,3.7644,3.7644,3.7644,3.7644,3.7644,3.7644,3.7644,3.7644,3.7644,3.7644,3.7869,1.5625,1.5625,1.5625,1.5625,1.5625,1.5625,1.5625,1.5625,1.5625,1.5625,1.5625,1.5625,1.5625,1.5625,1.5625,1.5625,1.5625,1.5625,1.5625,1.5625,1.5625,1.6011,1.7161,1.8516,2.0497,2.2821,2.5263,2.7901,3.0656,3.257,3.3381,3.3985,3.419,3.419,3.419,3.419,3.419,3.419,3.419,3.419,3.419,3.4203,3.4423,3.4826,3.5566,3.6111,3.6644,3.7228,3.7644,3.7644,3.7644,3.7644,3.7644,3.7644,3.7644,3.7644,3.7644,3.7644,3.7644,3.7644,3.7644,3.7644,3.7644,3.7644,3.7644,3.7644,3.7644,3.7644,3.7644,3.7644,3.7644,3.7644,3.7644,3.7644,3.7644,3.7644,3.7644,3.7592,3.7332,3.6825,3.6046,3.5709,3.6851,3.7644,3.7644,3.7644,3.7644,3.7644,3.7644,3.7644,3.7644,3.7644,3.7644,3.7644,3.7644,3.7644,3.7644,3.7644,3.7644,3.7644,3.7644,3.7644,3.7644,3.7644,3.7644,3.7644,3.7644,3.7644,3.7644,3.7644,3.7644,3.7644,3.7644,3.7644,3.7644,1.5625,1.5625,1.5625,1.5625,1.5625,1.5625,1.5625,1.5625,1.5625,1.5625,1.5625,1.5625,1.5625,1.5625,1.5625,1.5625,1.5625,1.5625,1.5625,1.5625,1.5625,1.6011,1.6583,1.7799,1.9398,2.1868,2.4205,2.6742,2.9267,3.111,3.2545,3.3574,3.3985,3.419,3.419,3.419,3.419,3.419,3.419,3.419,3.419,3.419,3.4216,3.4579,3.5293,3.5943,3.6306,3.7007,3.7631,3.7644,3.7644,3.7644,3.7644,3.7644,3.7644,3.7644,3.7644,3.7644,3.7644,3.7644,3.7644,3.7644,3.7644,3.7644,3.7644,3.7644,3.7644,3.7644,3.7644,3.7644,3.7644,3.7644,3.7644,3.7644,3.7644,3.7644,3.7644,3.7644,3.7592,3.7215,3.6813,3.6566,3.7267,3.7644,3.7644,3.7644,3.7644,3.7644,3.7644,3.7644,3.7644,3.7644,3.7644,3.7644,3.7644,3.7644,3.7644,3.7644,3.7644,3.7644,3.7644,3.7644,3.7644,3.7644,3.7644,3.7644,3.7644,3.7644,3.7644,3.7644,3.7644,3.7644,3.7644,3.7644,3.7644,1.5625,1.5625,1.5625,1.5625,1.5625,1.5625,1.5625,1.5625,1.5625,1.5625,1.5625,1.5625,1.5625,1.5625,1.5625,1.5625,1.5625,1.5625,1.5625,1.5625,1.5625,1.5818,1.639,1.7026,1.8272,2.0662,2.2767,2.5664,2.8416,3.0475,3.1926,3.3381,3.3985,3.419,3.419,3.419,3.419,3.419,3.419,3.419,3.419,3.419,3.419,3.4384,3.4982,3.5657,3.5968,3.6774,3.728,3.7566,3.7644,3.7644,3.7644,3.7644,3.7644,3.7644,3.7644,3.7644,3.7644,3.7644,3.7644,3.7644,3.7644,3.7644,3.7644,3.7644,3.7644,3.7644,3.7644,3.7644,3.7644,3.7644,3.7644,3.7644,3.7644,3.7644,3.7644,3.7644,3.7644,3.7644,3.7644,3.7644,3.7644,3.7644,3.7644,3.7644,3.7644,3.7644,3.7644,3.7644,3.7644,3.7644,3.7644,3.7644,3.7644,3.7644,3.7644,3.7644,3.7644,3.7644,3.7644,3.7644,3.7644,3.7644,3.7644,3.7644,3.7644,3.7644,3.7644,3.7644,3.7644,3.7644,3.7644,3.7644,3.7644,1.5625,1.5625,1.5625,1.5625,1.5625,1.5625,1.5625,1.5625,1.5625,1.5625,1.5625,1.5625,1.5625,1.5625,1.5625,1.5625,1.5625,1.5625,1.5625,1.5625,1.5625,1.5818,1.6018,1.6501,1.7779,1.9615,2.1411,2.4287,2.7552,2.9632,3.1512,3.297,3.3779,3.419,3.419,3.419,3.419,3.419,3.419,3.419,3.419,3.419,3.419,3.4216,3.4631,3.5215,3.5878,3.6488,3.6994,3.7371,3.7553,3.7644,3.7644,3.7644,3.7644,3.7644,3.7644,3.7644,3.7644,3.7644,3.7644,3.7644,3.7644,3.7644,3.7644,3.7644,3.7644,3.7644,3.7644,3.7644,3.7644,3.7644,3.7644,3.7644,3.7644,3.7644,3.7644,3.7644,3.7644,3.7644,3.7644,3.7644,3.7644,3.7644,3.7644,3.7644,3.7644,3.7644,3.7644,3.7644,3.7644,3.7644,3.7644,3.7644,3.7644,3.7644,3.7644,3.7644,3.7644,3.7644,3.7644,3.7644,3.7644,3.7644,3.7644,3.7644,3.7644,3.7644,3.7644,3.7644,3.7644,3.7644,3.7644,3.7644,3.7644,1.5625,1.5625,1.5625,1.5625,1.5625,1.5625,1.5625,1.5625,1.5625,1.5625,1.5625,1.5625,1.5625,1.5625,1.5625,1.5625,1.5625,1.5625,1.5625,1.5625,1.5625,1.5625,1.5845,1.6409,1.7528,1.911,2.1085,2.3507,2.6164,2.9007,3.0683,3.2132,3.3561,3.4177,3.419,3.419,3.419,3.419,3.419,3.419,3.419,3.419,3.419,3.4203,3.4358,3.4852,3.567,3.6423,3.6813,3.6877,3.7371,3.7618,3.7644,3.7644,3.7644,3.7644,3.7644,3.7644,3.7644,3.7644,3.7644,3.7644,3.7644,3.7644,3.7644,3.7644,3.7644,3.7644,3.7644,3.7644,3.7644,3.7644,3.7644,3.7644,3.7644,3.7644,3.7644,3.7644,3.7644,3.7644,3.7644,3.7644,3.7644,3.7644,3.7644,3.7644,3.7644,3.7644,3.7644,3.7644,3.7644,3.7644,3.7644,3.7644,3.7644,3.7644,3.7644,3.7644,3.7644,3.7644,3.7644,3.7644,3.7644,3.7644,3.7644,3.7644,3.7644,3.7644,3.7644,3.7644,3.7644,3.7644,3.7644,3.7644,3.7644,1.5625,1.5625,1.5625,1.5625,1.5625,1.5625,1.5625,1.5625,1.5625,1.5625,1.5625,1.5625,1.5625,1.5625,1.5625,1.5625,1.5625,1.5625,1.5625,1.5625,1.5625,1.5625,1.5651,1.5931,1.7052,1.8502,2.0096,2.2337,2.5345,2.7973,3.0048,3.1719,3.3163,3.3985,3.419,3.419,3.419,3.419,3.419,3.419,3.419,3.419,3.419,3.419,3.4203,3.4332,3.493,3.5813,3.6462,3.6825,3.7306,3.7644,3.7644,3.7644,3.7644,3.7644,3.7644,3.7644,3.7644,3.7644,3.7644,3.7644,3.7644,3.7644,3.7644,3.7644,3.7644,3.7644,3.7644,3.7644,3.7644,3.7644,3.7644,3.7644,3.7644,3.7644,3.7644,3.7644,3.7644,3.7644,3.7644,3.7644,3.7644,3.7644,3.7644,3.7644,3.7644,3.7644,3.7644,3.7644,3.7644,3.7644,3.7644,3.7644,3.7644,3.7644,3.7644,3.7644,3.7644,3.7644,3.7644,3.7644,3.7644,3.7644,3.7644,3.7644,3.7644,3.7644,3.7644,3.7644,3.7644,3.7644,3.7644,3.7644,3.7644,1.5625,1.5625,1.5625,1.5625,1.5625,1.5625,1.5625,1.5625,1.5625,1.5625,1.5625,1.5625,1.5625,1.5625,1.5625,1.5625,1.5625,1.5625,1.5625,1.5625,1.5625,1.5625,1.5625,1.5638,1.6485,1.7922,1.922,2.1403,2.4601,2.7115,2.9278,3.1512,3.2763,3.3792,3.419,3.419,3.419,3.419,3.419,3.419,3.419,3.419,3.419,3.419,3.419,3.4203,3.4293,3.5176,3.5943,3.6345,3.689,3.7293,3.7605,3.7644,3.7644,3.7644,3.7644,3.7644,3.7644,3.7644,3.7644,3.7644,3.7644,3.7644,3.7644,3.7644,3.7644,3.7644,3.7644,3.7644,3.7644,3.7644,3.7644,3.7644,3.7644,3.7644,3.7644,3.7644,3.7644,3.7644,3.7644,3.7644,3.7644,3.7644,3.7644,3.7644,3.7644,3.7644,3.7644,3.7644,3.7644,3.7644,3.7644,3.7644,3.7644,3.7644,3.7644,3.7644,3.7644,3.7644,3.7644,3.7644,3.7644,3.7644,3.7644,3.7644,3.7644,3.7644,3.7644,3.7644,3.7644,3.7644,3.7644,3.7644,3.7644,1.5625,1.5625,1.5625,1.5625,1.5625,1.5625,1.5625,1.5625,1.5625,1.5625,1.5625,1.5625,1.5625,1.5625,1.5625,1.5625,1.5625,1.5625,1.5625,1.5625,1.5625,1.5625,1.5625,1.5625,1.62,1.7286,1.8507,2.0646,2.3362,2.626,2.8943,3.098,3.2471,3.3767,3.419,3.419,3.419,3.419,3.419,3.419,3.419,3.419,3.419,3.419,3.419,3.419,3.4241,3.4761,3.515,3.5267,3.5865,3.667,3.7436,3.7644,3.7644,3.7644,3.7644,3.7644,3.7644,3.7644,3.7644,3.7644,3.7644,3.7644,3.7644,3.7644,3.7644,3.7644,3.7644,3.7644,3.7644,3.7644,3.7644,3.7644,3.7644,3.7644,3.7644,3.7644,3.7644,3.7644,3.7644,3.7644,3.7644,3.7644,3.7644,3.7644,3.7644,3.7644,3.7644,3.7644,3.7644,3.7644,3.7644,3.7644,3.7644,3.7644,3.7644,3.7644,3.7644,3.7644,3.7644,3.7644,3.7644,3.7644,3.7644,3.7644,3.7644,3.7644,3.7644,3.7644,3.7644,3.7644,3.7644,3.7644,3.7644,1.5625,1.5625,1.5625,1.5625,1.5625,1.5625,1.5625,1.5625,1.5625,1.5625,1.5625,1.5625,1.5625,1.5625,1.5625,1.5625,1.5625,1.5625,1.5625,1.5625,1.5625,1.5625,1.5625,1.5625,1.5971,1.701,1.8233,2.0072,2.2564,2.5013,2.7655,3.0124,3.162,3.2988,3.4164,3.419,3.419,3.419,3.419,3.419,3.419,3.419,3.419,3.419,3.419,3.419,3.419,3.4384,3.467,3.5073,3.5631,3.6475,3.7501,3.7644,3.7644,3.7644,3.7644,3.7644,3.7644,3.7644,3.7644,3.7644,3.7644,3.7644,3.7644,3.7644,3.7644,3.7644,3.7644,3.7644,3.7644,3.7644,3.7644,3.7644,3.7644,3.7644,3.7644,3.7644,3.7644,3.7644,3.7644,3.7644,3.7644,3.7644,3.7644,3.7644,3.7644,3.7644,3.7644,3.7644,3.7644,3.7644,3.7644,3.7644,3.7644,3.7644,3.7644,3.7644,3.7644,3.7644,3.7644,3.7644,3.7644,3.7644,3.7644,3.7644,3.7644,3.7644,3.7644,3.7644,3.7644,3.7644,3.7644,3.7644,3.7644,1.5625,1.5625,1.5625,1.5625,1.5625,1.5625,1.5625,1.5625,1.5625,1.5625,1.5625,1.5625,1.5625,1.5625,1.5625,1.5625,1.5625,1.5625,1.5625,1.5625,1.5625,1.5625,1.5625,1.5625,1.5925,1.6688,1.7698,1.9434,2.171,2.3953,2.657,2.9175,3.0671,3.2156,3.3662,3.3917,3.4034,3.4151,3.419,3.419,3.419,3.419,3.419,3.419,3.419,3.4381,3.4394,3.4586,3.477,3.5138,3.5755,3.6315,3.6968,3.7449,3.7644,3.7644,3.7644,3.7644,3.7644,3.7644,3.7644,3.7644,3.7644,3.7644,3.7644,3.7644,3.7644,3.7644,3.7644,3.7644,3.7644,3.7644,3.7644,3.7644,3.7644,3.7644,3.7644,3.7644,3.7644,3.7644,3.7644,3.7644,3.7644,3.7644,3.7644,3.7644,3.7644,3.7644,3.7644,3.7644,3.7644,3.7644,3.7644,3.7644,3.7644,3.7644,3.7644,3.7644,3.7644,3.7644,3.7644,3.7644,3.7644,3.7644,3.7644,3.7644,3.7644,3.7644,3.7644,3.7644,3.7644,3.7644,3.7644,3.7644,3.7644,1.5625,1.5625,1.5625,1.5625,1.5625,1.5625,1.5625,1.5625,1.5625,1.5625,1.5625,1.5625,1.5625,1.5625,1.5625,1.5625,1.5625,1.5625,1.5625,1.5625,1.5625,1.5625,1.5625,1.5625,1.5651,1.5865,1.7198,1.8719,2.0386,2.2756,2.532,2.7672,2.933,3.0988,3.2758,3.3223,3.3644,3.4008,3.4164,3.419,3.419,3.419,3.419,3.419,3.419,3.4599,3.5008,3.5403,3.5634,3.5728,3.6048,3.5993,3.6412,3.7046,3.7644,3.7644,3.7644,3.7644,3.7644,3.7644,3.7644,3.7644,3.7644,3.7644,3.7644,3.7644,3.7644,3.7644,3.7644,3.7644,3.7644,3.7644,3.7644,3.7644,3.7644,3.7644,3.7644,3.7644,3.7644,3.7644,3.7644,3.7644,3.7644,3.7644,3.7644,3.7644,3.7644,3.7644,3.7644,3.7644,3.7644,3.7644,3.7644,3.7644,3.7644,3.7644,3.7644,3.7644,3.7644,3.7644,3.7644,3.7644,3.7644,3.7644,3.7644,3.7644,3.7644,3.7644,3.7644,3.7644,3.7644,3.7644,3.7644,3.7644,3.7644,1.6377,1.6377,1.6576,1.6576,1.6583,1.6583,1.639,1.6004,1.6004,1.5818,1.5625,1.5625,1.5625,1.5625,1.5625,1.5625,1.5625,1.5625,1.5625,1.5625,1.5625,1.5625,1.5625,1.5625,1.5625,1.5625,1.6018,1.7205,1.9228,2.1173,2.3701,2.6818,2.8415,3.0046,3.1765,3.2952,3.3598,3.3631,3.3982,3.4177,3.419,3.419,3.419,3.4177,3.4599,3.5212,3.6014,3.6203,3.6406,3.6924,3.7043,3.7056,3.707,3.7454,3.7644,3.7644,3.7644,3.7644,3.7644,3.7644,3.7644,3.7644,3.7644,3.7644,3.7644,3.7644,3.7644,3.7644,3.7644,3.7644,3.7644,3.7644,3.7644,3.7644,3.7644,3.7644,3.7644,3.7644,3.7644,3.7644,3.7644,3.7644,3.7644,3.7644,3.7644,3.7644,3.7644,3.7644,3.7644,3.7644,3.7644,3.7644,3.7644,3.7644,3.7644,3.7644,3.7644,3.7644,3.7644,3.7644,3.7644,3.7644,3.7644,3.7644,3.7644,3.7644,3.7644,3.7644,3.7644,3.7644,3.7644,3.7644,3.7644,3.7644,3.7644,1.7532,1.7532,1.7731,1.7931,1.7924,1.7724,1.7347,1.6783,1.6583,1.6397,1.5818,1.5818,1.5625,1.5625,1.5818,1.5825,1.5625,1.5625,1.5625,1.5625,1.5625,1.5625,1.5818,1.5625,1.5631,1.5818,1.5631,1.6583,1.8308,2.0041,2.227,2.5168,2.7121,2.8927,3.0786,3.2163,3.2839,3.3047,3.3579,3.3878,3.3878,3.4073,3.4381,3.479,3.5606,3.6623,3.7419,3.8009,3.8427,3.8672,3.8632,3.8676,3.8689,3.8787,3.8477,3.7712,3.7673,3.7569,3.7621,3.7765,3.7644,3.7644,3.7644,3.7644,3.7644,3.7644,3.7644,3.7644,3.7644,3.7644,3.7644,3.7644,3.7644,3.7644,3.7644,3.7644,3.7644,3.7644,3.7644,3.7644,3.7644,3.7644,3.7644,3.7644,3.7644,3.7644,3.7644,3.7644,3.7644,3.7644,3.7644,3.7644,3.7644,3.7644,3.7644,3.7644,3.7644,3.7644,3.7644,3.7644,3.7644,3.7644,3.7644,3.7644,3.7644,3.7644,3.7644,3.7644,3.7644,3.7644,3.7644,3.7644,3.7644,3.7644,3.7644,1.8908,1.89,1.9283,1.9458,1.9475,1.9067,1.8508,1.7946,1.7547,1.6962,1.639,1.639,1.6011,1.5631,1.6004,1.6004,1.5625,1.5625,1.5625,1.5625,1.5625,1.5818,1.639,1.5818,1.5818,1.6197,1.5818,1.6204,1.7754,1.9283,2.1187,2.3298,2.5765,2.7674,2.9428,3.0923,3.1917,3.245,3.3008,3.332,3.341,3.3826,3.4632,3.5633,3.7347,3.8354,3.9155,4.0612,4.124,4.0858,4.0858,4.0858,4.0858,4.0736,3.9712,3.8026,3.7464,3.7421,3.7787,3.7753,3.7566,3.7592,3.7592,3.7644,3.7644,3.7644,3.7644,3.7644,3.7644,3.7644,3.7644,3.7644,3.7644,3.7644,3.7644,3.7644,3.7644,3.7644,3.7644,3.7644,3.7644,3.7644,3.7644,3.7644,3.7644,3.7644,3.7644,3.7644,3.7644,3.7644,3.7644,3.7644,3.7644,3.7644,3.7644,3.7644,3.7644,3.7644,3.7644,3.7644,3.7644,3.7644,3.7644,3.7644,3.7644,3.7644,3.7644,3.7644,3.7644,3.7644,3.7644,3.7644,3.7644,3.7644,3.7644,2.2757,2.194,2.0527,2.0735,2.1759,2.1559,2.0805,1.9658,1.9091,1.8323,1.7369,1.6969,1.6576,1.6197,1.6197,1.6011,1.5631,1.6011,1.6197,1.6197,1.6583,1.6769,1.6769,1.639,1.6197,1.6197,1.5818,1.5818,1.6397,1.8131,2.0232,2.2329,2.477,2.6904,2.8792,3.0303,3.1316,3.1891,3.2424,3.293,3.3441,3.3482,3.4138,3.5538,3.7295,3.8711,4.0113,4.1942,4.3003,4.2806,4.2806,4.3199,4.4017,4.2428,4.0164,3.7878,3.7298,3.7069,3.7649,3.7214,3.7033,3.7059,3.7436,3.7644,3.7644,3.7644,3.7644,3.7644,3.7644,3.7644,3.7644,3.7644,3.7644,3.7644,3.7644,3.7644,3.7644,3.7644,3.7644,3.7644,3.7644,3.7644,3.7644,3.7644,3.7644,3.7644,3.7644,3.7644,3.7644,3.7644,3.7644,3.7644,3.7644,3.7644,3.7644,3.7644,3.7644,3.7644,3.7644,3.7644,3.7644,3.7644,3.7644,3.7644,3.7644,3.7644,3.7644,3.7644,3.7644,3.7644,3.7644,3.7644,3.7644,3.7644,3.7644,2.583,2.4403,2.316,2.318,2.4015,2.3826,2.269,2.1196,2.0432,1.9291,1.8331,1.8131,1.7539,1.6576,1.6576,1.6197,1.5625,1.5818,1.6004,1.6011,1.639,1.6769,1.6962,1.639,1.6197,1.6576,1.5818,1.5625,1.5818,1.6976,1.9083,2.1568,2.4005,2.6263,2.819,2.9791,3.0705,3.1294,3.1839,3.2487,3.297,3.3286,3.4358,3.6337,3.8018,3.9767,4.1358,4.3054,4.4054,4.4071,4.4261,4.4849,4.5608,4.3452,4.0966,3.8357,3.79,3.7527,3.7103,3.672,3.6436,3.6449,3.6968,3.7176,3.6994,3.7397,3.7644,3.7644,3.7644,3.7644,3.7644,3.7644,3.7644,3.7644,3.7644,3.7644,3.7644,3.7644,3.7644,3.7644,3.7644,3.7644,3.7644,3.7644,3.7644,3.7644,3.7644,3.7644,3.7644,3.7644,3.7644,3.7644,3.7644,3.7644,3.7644,3.7644,3.7644,3.7644,3.7644,3.7644,3.7644,3.7644,3.7644,3.7644,3.7644,3.7644,3.7644,3.7644,3.7644,3.7644,3.7644,3.7644,3.7644,3.7644,3.7644,2.8309,2.6649,2.6417,2.6615,2.645,2.5888,2.4571,2.2899,2.1568,2.0423,1.8908,1.9283,1.8508,1.7154,1.7154,1.6583,1.5625,1.5625,1.5631,1.5625,1.5625,1.6197,1.7154,1.6204,1.6197,1.6962,1.6004,1.5625,1.5625,1.6011,1.7731,2.0614,2.3438,2.57,2.7793,2.9294,3.022,3.0774,3.1281,3.1932,3.2524,3.3437,3.5018,3.7635,3.9219,4.0966,4.2652,4.4028,4.4631,4.4613,4.4979,4.5453,4.5687,4.3951,4.1587,3.9299,3.9149,3.8317,3.6041,3.5835,3.5748,3.5826,3.6332,3.6514,3.6098,3.6683,3.7163,3.7202,3.7241,3.7332,3.7605,3.7644,3.7605,3.7514,3.7237,3.7553,3.7605,3.7644,3.7644,3.7644,3.7644,3.7644,3.7644,3.7644,3.7644,3.7644,3.7644,3.7644,3.7644,3.7644,3.7644,3.7644,3.7644,3.7644,3.7644,3.7644,3.7644,3.7644,3.7644,3.7644,3.7644,3.7644,3.7644,3.7644,3.7644,3.7644,3.7644,3.7644,3.7644,3.7644,3.7644,3.7644,3.7644,3.7644,3.7644,2.979,2.8749,2.8737,2.8551,2.8563,2.7595,2.6296,2.4613,2.3288,2.1949,2.0423,1.9667,1.8508,1.7154,1.7154,1.6576,1.5625,1.6011,1.6204,1.6197,1.6583,1.7161,1.7561,1.6583,1.6576,1.6962,1.6004,1.5625,1.5625,1.5625,1.6783,1.8708,2.232,2.5356,2.7793,2.8923,2.9863,3.0774,3.1288,3.1922,3.2846,3.3722,3.5228,3.7424,3.9717,4.1486,4.284,4.4981,4.6034,4.5707,4.5684,4.5412,4.5173,4.3441,4.1303,3.8861,3.7826,3.6671,3.4727,3.4552,3.4566,3.4605,3.5527,3.6072,3.5826,3.4579,3.3995,3.48,3.5073,3.5774,3.7228,3.7592,3.7462,3.7007,3.5852,3.5745,3.7276,3.7644,3.7644,3.7644,3.7644,3.7644,3.7644,3.7644,3.7644,3.7644,3.7644,3.7644,3.7644,3.7644,3.7644,3.7644,3.7644,3.7644,3.7644,3.7644,3.7644,3.7644,3.7644,3.7644,3.7644,3.7644,3.7644,3.7644,3.7644,3.7644,3.7644,3.7644,3.7644,3.7644,3.7644,3.7644,3.7644,3.7644,3.7644,3.0469,3.0048,3.0048,3.0048,2.9863,2.9096,2.7781,2.5722,2.4235,2.2909,2.1577,2.0423,1.9083,1.7931,1.7347,1.6576,1.5811,1.6004,1.6004,1.6011,1.6197,1.6583,1.6976,1.639,1.6191,1.6583,1.6004,1.5625,1.5625,1.5625,1.6204,1.7746,2.0805,2.4214,2.7606,2.8749,2.9863,3.0761,3.1076,3.1987,3.3692,3.4585,3.6193,3.8527,4.0276,4.1967,4.3429,4.4866,4.5635,4.5477,4.5354,4.5289,4.4857,4.2302,3.9899,3.7679,3.6058,3.4372,3.2949,3.2668,3.2683,3.2995,3.4086,3.4228,3.293,3.2112,3.2398,3.3995,3.419,3.493,3.6644,3.6872,3.6649,3.6371,3.5589,3.5665,3.6787,3.732,3.7399,3.6955,3.7306,3.7644,3.7644,3.7644,3.7644,3.7644,3.7644,3.7644,3.7644,3.7644,3.7644,3.7644,3.7644,3.7644,3.7644,3.7644,3.7644,3.7644,3.7644,3.7644,3.7644,3.7644,3.7644,3.7644,3.7644,3.7644,3.7644,3.7644,3.7644,3.7644,3.7644,3.7644,3.7644,3.7644,3.7644,3.0606,3.0541,3.0737,3.0541,3.0345,2.9978,2.8531,2.6163,2.4624,2.3289,2.1971,2.0647,1.9319,1.8184,1.7406,1.6642,1.6081,1.5738,1.5565,1.5565,1.5611,1.5818,1.639,1.5818,1.5818,1.6197,1.5818,1.5625,1.5625,1.5625,1.6004,1.7147,1.9027,2.2405,2.6734,2.837,2.9636,3.0528,3.0613,3.1827,3.4099,3.5189,3.7144,3.9635,4.0816,4.2229,4.3971,4.3971,4.414,4.4479,4.4648,4.4534,4.4119,4.0941,3.8075,3.6165,3.4005,3.2158,3.1101,3.0491,3.0447,3.1086,3.2203,3.1644,2.877,2.9467,3.1055,3.341,3.3592,3.419,3.5228,3.554,3.5447,3.5609,3.5404,3.5508,3.5839,3.682,3.7017,3.6098,3.6825,3.7384,3.7579,3.7644,3.7644,3.7644,3.7644,3.7644,3.7644,3.7644,3.7644,3.7644,3.7644,3.7644,3.7644,3.7644,3.7644,3.7644,3.7644,3.7644,3.7644,3.7644,3.7644,3.7644,3.7644,3.7644,3.7644,3.7644,3.7644,3.7644,3.7644,3.7644,3.7644,3.7644,3.7644,3.0197,2.9574,3.0371,3.0005,2.8831,2.8654,2.8015,2.676,2.4542,0.0,0.0,1.9136,1.8038,1.6556,1.6379,1.5834,1.5124,1.5157,1.5262,1.5275,1.5513,1.5818,1.6197,1.5818,1.5818,1.6197,1.5818,1.5625,1.5625,1.5625,1.6011,1.7125,1.8769,2.0863,2.3437,2.6355,2.8477,2.9372,3.0506,3.1696,3.3324,3.4868,3.677,3.8654,3.9951,4.1106,4.2144,4.2652,4.2977,4.2977,4.2977,4.2351,4.1003,3.9426,3.7128,3.384,3.2006,3.05,2.9116,2.8327,2.8307,2.8775,2.9879,2.8968,2.5547,2.6323,2.8223,3.1177,3.1372,3.1852,3.2969,3.3375,3.3624,3.3748,3.3497,3.3736,3.494,3.5748,3.6223,3.5994,3.6033,3.6579,3.7397,3.7592,3.7644,3.7644,3.7618,3.7644,3.7644,3.7644,3.7644,3.7644,3.7644,3.7644,3.7644,3.7644,3.7644,3.7644,3.7644,3.7644,3.7644,3.7644,3.7644,3.7644,3.7644,3.7644,3.7644,3.7644,3.7644,3.7644,3.7644,3.7644,3.7644,3.7644,3.7644,2.8968,2.8925,2.9553,2.9164,0.0,2.7825,2.6409,2.411,2.2619,2.1065,1.9122,1.839,1.7476,1.6569,1.603,1.5673,1.514,1.509,1.4979,1.4985,1.513,1.5196,1.5565,1.5196,1.5189,1.5565,1.5377,1.5196,1.5196,1.5189,1.5558,1.6676,1.8174,2.0092,2.2276,2.4931,2.7165,2.8975,3.0185,3.1842,3.402,3.5709,3.7397,3.938,4.0543,0.0,0.0,0.0,0.0,0.0,0.0,0.0,0.0,0.0,0.0,3.1402,2.9393,2.7745,2.6121,2.5634,2.5616,2.5866,2.6787,2.6043,2.2832,2.3015,2.4647,2.7403,2.8451,2.9991,3.2229,3.1891,3.1481,3.1432,3.0656,3.0863,3.2557,3.4652,3.5319,3.3908,3.3587,3.4216,3.5761,3.6825,3.7592,3.7631,3.741,3.7306,3.7579,3.7644,3.7644,3.7644,3.7644,3.7644,3.7644,3.7644,3.7644,3.7644,3.7644,3.7644,3.7644,3.7644,3.7644,3.7644,3.7644,3.7644,3.7644,3.7644,3.7644,3.7644,3.7644,3.7644,3.7644,3.7644,3.7644,2.7391,2.77,2.832,2.7961,2.6809,2.5901,2.3743,2.0763,2.0036,1.9362,1.8434,1.7472,1.6909,1.6376,1.5501,1.518,1.5062,1.4757,1.4636,1.4688,1.4748,1.4768,1.4768,1.4768,1.4768,1.4768,1.4768,1.4768,1.4768,1.4768,1.5315,1.6205,1.7579,1.9514,2.1676,0.0,0.0,0.0,2.9555,3.1629,3.4643,3.6154,3.7782,3.9893,4.0911,0.0,4.2066,4.2066,4.199,4.18,4.0642,0.0,0.0,0.0,0.0,0.0,0.0,0.0,0.0,0.0,0.0,0.0,2.3074,2.2335,2.0082,1.958,2.0659,2.3416,2.584,2.8426,3.1213,2.9889,2.8792,2.8627,2.7338,2.7501,2.9727,3.2953,3.3612,3.0238,3.0119,3.1518,3.392,3.5994,3.7202,3.6903,3.6709,3.667,3.6903,3.6851,3.7046,3.7319,3.7501,3.7644,3.7644,3.7644,3.7644,3.7644,3.7644,3.754,3.7358,3.741,3.7644,3.7644,3.7644,3.7644,3.7644,3.7644,3.7644,3.7644,3.7644,3.7514,3.7098,3.7202,3.7475,2.5803,2.5241,2.6161,2.5468,2.3633,2.1175,1.9421,1.8379,1.7559,1.6753,1.5934,1.5171,1.4554,1.4213,1.4056,1.388,1.3647,1.3884,1.4135,1.4398,1.4655,1.4768,1.4768,1.4768,1.4768,1.4768,1.4768,1.4768,1.4768,1.4768,1.5315,1.6191,1.7164,1.8785,2.0704,2.1515,2.3099,2.5952,2.8585,3.1067,3.3233,3.4984,3.6575,3.8323,3.9248,3.9996,4.0282,4.0301,3.9959,3.9275,3.9693,3.8668,3.584,3.287,2.9871,0.0,2.3834,0.0,0.0,0.0,0.0,0.0,0.0,0.0,0.0,1.5603,1.653,1.9697,2.3929,2.6917,2.8313,2.6162,2.4856,2.5275,2.3291,2.3569,2.7929,3.0333,2.9914,2.5105,2.6911,3.0116,3.361,3.5306,3.5735,3.4982,3.5085,3.5085,3.4761,3.4709,3.5176,3.6059,3.6994,3.7332,3.7332,3.7488,3.7527,3.7592,3.7514,3.7306,3.6306,3.6916,3.7618,3.7644,3.7644,3.7631,3.7644,3.7618,3.7618,3.7631,3.7579,3.6955,3.541,3.5761,3.6813,2.313,2.3038,2.4141,2.266,1.9405,1.779,1.6756,1.6459,1.5664,1.5176,1.4828,1.4025,1.3482,1.2863,1.2694,1.2697,1.266,1.2619,1.2823,1.327,1.356,1.3869,1.4056,1.4207,1.428,1.4273,1.4121,1.4049,1.4042,1.3884,1.431,1.5155,1.6012,1.7334,1.8952,2.0253,2.2168,2.4774,2.6853,2.9727,3.2936,3.4687,3.6437,3.8034,3.8934,3.9468,3.9294,3.9256,3.8668,3.7415,3.7263,3.6124,3.3643,3.0584,2.6796,0.0,0.0,0.0,0.0,0.0,0.0,0.0,0.0,0.0,0.0,0.0,1.3152,1.4847,2.0019,2.4074,2.5817,2.3027,2.1456,2.2479,1.9485,1.9297,2.3924,2.7364,2.6911,2.0799,2.4698,2.8723,3.041,3.323,3.4748,3.4254,3.2458,3.0996,3.091,3.2809,3.4592,3.5709,3.5813,3.554,3.4852,3.5293,3.593,3.6488,3.615,3.5566,3.5085,3.5397,3.6176,3.7358,3.7644,3.7462,3.6838,3.6709,3.6942,3.7332,3.715,3.5908,3.3723,3.4218,3.5806,1.9941,2.0593,2.0942,1.8834,1.5498,1.4822,1.4458,1.4332,1.3938,1.3774,1.3688,1.2993,1.2383,1.1755,1.1457,1.1348,1.1515,1.1053,1.1416,1.2115,1.2332,1.2633,1.3204,1.34,1.3504,1.366,1.3462,1.3363,1.335,1.3067,1.3401,1.4191,1.4666,1.5642,1.7139,1.9133,2.1344,2.374,2.5568,2.8277,3.1911,3.4291,3.6282,3.8016,3.8749,3.8942,3.8725,3.8326,3.7358,3.5726,3.4454,3.303,3.1279,2.8027,0.0,0.0,0.0,0.0,0.0,0.0,0.0,0.0,0.0,1.0966,1.1234,0.0,1.0281,0.0,1.5968,2.0203,2.2339,1.9402,0.0,0.0,1.5628,1.5518,1.9718,2.3839,2.3827,1.7226,2.237,2.6509,2.7054,3.0823,3.3087,3.2018,2.9035,2.7524,2.8567,3.1337,3.3787,3.4696,3.4086,3.2969,3.2021,3.2618,3.3852,3.528,3.48,3.4086,3.3813,3.3969,3.4826,3.6748,3.7241,3.667,3.5345,3.5124,3.5514,3.6243,3.5704,3.4294,3.1659,3.1877,3.2767,1.6884,1.7852,1.535,1.3662,1.2578,1.234,1.225,1.2159,1.2281,1.2095,1.156,1.1392,1.1076,1.0561,1.0313,0.0,1.0104,0.9691,1.0073,1.1066,1.1089,1.1528,1.2556,1.2575,1.2756,1.3086,1.3073,1.306,1.3034,1.275,1.3086,1.3829,1.3269,1.3742,1.5723,1.791,2.0185,2.2653,2.4865,2.6846,2.8784,3.292,3.5937,3.8016,3.8214,3.836,3.8668,3.7225,3.5669,3.4017,3.1663,2.9594,2.7856,0.0,0.0,0.0,0.0,0.0,0.0,0.0,0.0,0.0,0.0,0.0,0.0,0.0,0.0,0.8587,1.2597,0.0,1.6483,1.4642,0.0,0.0,0.0,1.2332,1.6018,1.9908,2.0208,1.4565,0.0,0.0,2.4786,2.8691,2.9949,2.5895,2.5278,2.6453,3.0055,3.0706,3.145,3.2579,3.1787,3.0658,2.9814,3.0502,3.1917,3.3852,3.4241,3.3683,3.2826,3.3307,3.454,3.5787,3.6072,3.5384,3.3151,3.2449,3.2689,3.2801,3.273,3.1598,2.8264,2.7803,2.7234,1.3577,1.3304,1.1818,1.1001,1.0703,1.0474,1.044,1.0755,1.043,1.032,1.0353,0.9757,0.9395,0.902,0.8621,0.0,0.0,0.0,0.8111,0.9051,0.9476,1.0174,1.1011,1.1633,1.2029,1.2184,1.2169,1.2144,1.1966,1.1682,1.1471,1.1158,0.0,0.0,1.3889,1.5942,1.8366,2.0991,2.3053,2.5295,2.752,3.0505,3.3367,3.6223,3.6356,3.6296,3.6485,3.4871,3.2992,3.0828,2.8341,2.5681,0.0,0.0,0.0,0.0,0.0,0.0,0.0,0.0,0.0,0.0,0.0,0.7085,0.7329,0.0,0.0,0.0,0.872,1.055,1.1479,1.1246,0.0,0.0,0.0,0.0,0.0,0.0,0.0,1.1554,1.575,1.9122,1.992,2.2791,2.5324,2.6491,2.4091,2.3577,2.6639,0.0,2.9138,3.0255,2.9463,2.8814,2.906,3.0034,3.106,3.1995,3.2125,3.1709,3.0684,3.1359,3.2501,3.3514,3.3852,3.2926,3.0099,2.7294,2.6208,2.9098,2.9739,2.8264,2.4558,2.2748,2.1417,1.0644,0.0,0.0,0.0,0.0,0.8577,0.8635,0.8995,0.8766,0.8672,0.8766,0.8153,0.0,0.0,0.0,0.0,0.0,0.0,0.6133,0.7061,0.7802,0.8666,0.9517,1.0405,1.079,1.1072,1.1026,1.0917,1.0615,0.9953,0.9291,0.8524,0.0,0.0,0.0,0.0,1.672,1.9407,2.1484,2.3826,2.6448,2.8578,3.1032,3.4135,3.4606,3.4579,3.434,3.2461,3.0278,2.7629,2.5057,0.0,0.0,0.0,0.0,0.0,0.0,0.0,0.0,0.0,0.0,0.0,0.0,0.0,0.0,0.0,0.0,0.0,0.0,0.0,0.8312,0.8877,0.8925,0.0,0.0,0.0,0.0,0.0,0.0,0.0,0.0,0.0,1.5005,1.7855,2.0982,0.0,0.0,2.1139,2.4344,2.5608,2.6803,2.8424,2.7018,0.0,2.7931,2.906,2.9801,2.9801,3.0359,3.0281,2.884,2.9255,2.9983,3.0906,3.1111,2.9498,2.5027,2.1094,2.0677,2.4564,2.5739,2.4558,2.1149,1.8408,1.6697,0.0,0.0,0.0,0.0,0.0,0.0,0.0,0.0,0.7254,0.7134,0.0,0.6705,0.0,0.0,0.0,0.0,0.3974,0.4108,0.0,0.0,0.5809,0.6826,0.8099,0.851,0.9036,0.9573,0.9555,0.952,0.9049,0.7695,0.0,0.0,0.0,0.0,0.0,0.0,1.5319,1.8151,2.0533,2.304,2.553,2.7598,2.9689,3.1724,3.3098,3.3466,3.2489,3.0164,2.7572,2.4943,2.1823,0.0,0.0,0.0,0.0,0.0,0.0,0.0,0.0,0.0,0.0,0.0,0.0,0.0,0.0,0.0,0.0,0.0,0.0,0.0,0.0,0.7845,0.0,0.0,0.0,0.0,0.0,0.0,0.0,0.0,0.0,1.0577,1.0593,1.4482,1.7298,1.7382,0.0,0.0,0.0,0.0,2.436,2.7105,2.4263,2.2684,2.5312,2.6749,2.7476,2.7489,0.0,0.0,2.7801,2.745,2.7442,2.79,2.7912,2.5229,1.6797,1.4576,1.5578,2.0085,2.0971,2.0154,1.786,1.5427,1.3763,0.0,0.0,0.0,0.0,0.0,0.0,0.0,0.0,0.0,0.5247,0.0,0.4845,0.0,0.0,0.0,0.0,0.0,0.0,0.0,0.0,0.4465,0.5406,0.6325,0.7262,0.7791,0.0,0.819,0.7521,0.0,0.0,0.0,0.0,0.0,0.0,0.0,0.0,1.3119,1.6046,1.848,2.1153,2.402,2.6,2.8121,3.0261,3.139,3.1376,3.0012,2.7126,2.4244,0.0,0.0,0.0,0.0,0.0,0.0,0.0,0.0,0.0,0.0,0.0,0.0,0.0,0.0,0.0,0.0,0.0,0.0,0.0,0.0,0.0,0.0,0.0,0.7542,0.0,0.0,0.0,0.0,0.0,0.0,0.0,0.0,0.0,0.8222,1.1806,1.4262,1.4001,1.4828,1.6892,2.0649,0.0,0.0,0.0,0.0,0.0,0.0,0.0,2.5126,2.5113,2.7035,2.7801,2.5516,2.3188,2.2101,2.3527,0.0,0.0,1.3214,1.159,1.2577,1.618,1.6388,1.5708,1.4241,1.2118,1.0489,0.0,0.0,0.0,0.0,0.0,0.0,0.0,0.0,0.0,0.3679,0.3733,0.0,0.0,0.0,0.0,0.0,0.0,0.0,0.0,0.0,0.0,0.0,0.4815,0.5892,0.0,0.0,0.0,0.0,0.0,0.0,0.0,0.0,0.0,0.0,0.0,0.0,1.1245,1.4264,1.6813,1.9602,2.2601,2.4953,2.6912,2.8776,2.9587,2.9397,2.8251,0.0,0.0,0.0,0.0,0.0,0.0,0.0,0.0,0.0,0.0,0.0,0.0,0.0,0.0,0.0,0.0,0.0,0.0,0.0,0.0,0.0,0.0,0.0,0.0,0.0,0.7058,0.0,0.0,0.0,0.0,0.0,0.0,0.0,0.0,0.0,0.0,0.0,1.1641,1.1293,1.2687,1.4943,1.8069,1.9644,2.1301,0.0,0.0,0.0,0.0,0.0,0.0,0.0,0.0,0.0,0.0,0.0,0.0,0.0,0.0,1.6167,1.0207,0.9139,0.9906,1.2572,0.0,0.0,0.0,0.0,0.0,0.0,0.0,0.0,0.0,0.0,0.0,0.0,0.0,0.0,0.0,0.2289,0.0,0.0,0.0887,0.0,0.0,0.0,0.0,0.0,0.0,0.0,0.0,0.0,0.0,0.0,0.0,0.0,0.0,0.0,0.0,0.0,0.0,0.0,0.0,0.0,0.0,0.9914,1.3012,1.5728,1.8581,2.1534,2.4185,2.6178,2.744,2.7496,2.7477,2.717,0.0,0.0,0.0,0.0,0.0,0.0,0.0,0.0,0.0,0.0,0.0,0.0,0.0,0.0,0.0,0.0,0.0,0.0,0.0,0.0,0.0,0.0,0.0,0.0,0.0,0.0,0.599,0.6564,0.6895,0.0,0.0,0.0,0.0,0.0,0.0,0.0,0.0,0.0,0.8918,1.135,1.3998,1.6379,1.7082,1.8763,2.213,2.0715,1.938,2.0234,2.2225,2.31,0.0,0.0,0.0,0.0,0.0,0.0,0.0,0.0,0.0,0.0,0.0,0.0,0.0,0.0,0.0,0.0,0.0,0.0,0.0,0.0,0.0,0.0,0.0,0.0,0.0,0.0,0.0,0.0,0.0,0.0,0.0,0.0,0.0,0.0,0.0,0.0,0.0,0.0,0.0,0.0,0.0,0.0,0.0,0.0,0.0,0.0,0.0,0.0,0.0,0.0,0.0,0.0,0.0,0.0,0.8874,1.2061,1.4704,1.7633,2.1068,2.2799,2.4879,2.7244,2.6867,2.6342,0.0,0.0,0.0,0.0,0.0,0.0,0.0,0.0,0.0,0.0,0.0,0.0,0.0,0.0,0.0,0.0,0.0,0.0,0.0,0.0,0.0,0.0,0.0,0.0,0.0,0.0,0.0,0.0,0.5368,0.5462,0.5383,0.0,0.0,0.0,0.0,0.0,0.0,0.0,0.0,0.0,0.0,1.124,1.1164,1.3958,1.7095,1.9889,1.8447,1.7336,1.8592,2.0322,2.1321,2.0757,0.0,0.0,0.0,0.0,0.0,0.0,0.0,0.0,0.0,0.0,0.0,0.0,0.0,0.0,0.0,0.0,0.0,0.0,0.0,0.0,0.0,0.0,0.0,0.0,0.0,0.0,0.0,0.0,0.0,0.0,0.0,0.0,0.0,0.0,0.0,0.0,0.0,0.0,0.0,0.0,0.0,0.0,0.0,0.0,0.0,0.0,0.0,0.0,0.0,0.0,0.0,0.0,0.0,0.7762,1.068,1.3514,1.6448,1.9749,2.1656,2.3701,2.5998,2.5485,2.4865,0.0,0.0,0.0,0.0,0.0,0.0,0.0,0.0,0.0,0.0,0.0,0.0,0.0,0.0,0.0,0.0,0.0,0.0,0.0,0.0,0.0,0.0,0.0,0.0,0.0,0.0,0.0,0.0,0.4708,0.4652,0.4239,0.0,0.0,0.0,0.0,0.0,0.0,0.0,0.0,0.0,0.0,0.9309,0.8194,1.1574,0.0,0.0,1.6055,1.5046,1.6078,1.8175,1.9623,1.9361,1.8049,0.0,0.0,0.0,0.0,0.0,0.0,0.0,0.0,0.0,0.0,0.0,0.0,0.0,0.0,0.0,0.0,0.0,0.0,0.0,0.0,0.0,0.0,0.0,0.0,0.0,0.0,0.0,0.0,0.0,0.0,0.0,0.0,0.0,0.0,0.0,0.0,0.0,0.0,0.0,0.0,0.0,0.0,0.0,0.0,0.0,0.0,0.0,0.0,0.0,0.0,0.0,0.0,0.6682,0.9156,1.2199,1.5011,1.7803,2.0683,2.2678,2.3576,2.3833,2.3029,0.0,0.0,0.0,0.0,0.0,0.0,0.0,0.0,0.0,0.0,0.0,0.0,0.0,0.0,0.0,0.0,0.0,0.0,0.0,0.0,0.0,0.0,0.0,0.0,0.0,0.0,0.0,0.0,0.0,0.0,0.0,0.0,0.0,0.0,0.0,0.0,0.0,0.0,0.0,0.0,0.0,0.8108,0.7137,0.9845,1.2761,0.0,1.3746,1.2557,1.329,1.6184,1.8048,1.715,0.0,0.0,0.0,0.0,0.0,0.0,0.0,0.0,0.0,0.0,0.0,0.0,0.0,0.0,0.0,0.0,0.0,0.0,0.0,0.0,0.0,0.0,0.0,0.0,0.0,0.0,0.0,0.0,0.0,0.0,0.0,0.0,0.0,0.0,0.0,0.0,0.0,0.0,0.0,0.0,0.0,0.0,0.0,0.0,0.0,0.0,0.0,0.0,0.0,0.0,0.0,0.0,0.0,0.0,0.9057,1.1741,1.4513,1.7402,1.9286,2.104,2.2316,2.1798,0.0,0.0,0.0,0.0,0.0,0.0,0.0,0.0,0.0,0.0,0.0,0.0,0.0,0.0,0.0,0.0,0.0,0.0,0.0,0.0,0.0,0.0,0.0,0.0,0.0,0.0,0.0,0.2987,0.0,0.0,0.0,0.0,0.0,0.0,0.0,0.0,0.0,0.0,0.0,0.0,0.0,0.0,0.7254,0.7169,0.8959,1.1045,0.0,0.0,1.1044,1.3074,1.4878,1.6277,0.0,0.0,0.0,0.0,0.0,0.0,0.0,0.0,0.0,0.0,0.0,0.0,0.0,0.0,0.0,0.0,0.0,0.0,0.0,0.0,0.0,0.0,0.0,0.0,0.0,0.0,0.0,0.0,0.0,0.0,0.0,0.0,0.0,0.0,0.0,0.0,0.0,0.0,0.0,0.0,0.0,0.0,0.0,0.0,0.0,0.0,0.0,0.0,0.0,0.0,0.0,0.0,0.0,0.0,0.5851,0.841,1.1025,1.3639,1.6453,1.8299,1.9827,2.1356,2.096,2.0018,0.0,0.0,0.0,0.0,0.0,0.0,0.0,0.0,0.0,0.0,0.0,0.0,0.0,0.0,0.0,0.0,0.0,0.0,0.0,0.0,0.0,0.0,0.0,0.0,0.0,0.0,0.0,0.0,0.0,0.0,0.0,0.0,0.0,0.0,0.0,0.0,0.0,0.0,0.0,0.0,0.0,0.0,0.6461,0.7958,0.0,0.0,0.0,0.9858,1.1743,0.0,0.0,0.0,0.0,0.0,0.0,0.0,0.0,0.0,0.0,0.0,0.0,0.0,0.0,0.0,0.0,0.0,0.0,0.0,0.0,0.0,0.0,0.0,0.0,0.0,0.0,0.0,0.0,0.0,0.0,0.0,0.0,0.0,0.0,0.0,0.0,0.0,0.0,0.0,0.0,0.0,0.0,0.0,0.0,0.0,0.0,0.0,0.0,0.0,0.0,0.0,0.0,0.0,0.0,0.0,0.0,0.0,0.729,1.0091,1.2785,1.5292,1.7244,1.8964,2.0154,2.0582,1.96,0.0,0.0,0.0,0.0,0.0,0.0,0.0,0.0,0.0,0.0,0.0,0.0,0.0,0.0,0.0,0.0,0.0,0.0,0.0,0.0,0.0,0.0,0.0,0.0,0.0,0.0,0.0,0.0,0.0,0.0,0.0,0.0,0.0,0.0,0.0,0.0,0.0,0.0,0.0,0.0,0.0,0.5081,0.5401,0.6847,0.8147,0.0,0.0,0.8851,0.9872,1.1928,0.0,0.0,0.0,0.0,0.0,0.0,0.0,0.0,0.0,0.0,0.0,0.0,0.0,0.0,0.0,0.0,0.0,0.0,0.0,0.0,0.0,0.0,0.0,0.0,0.0,0.0,0.0,0.0,0.0,0.0,0.0,0.0,0.0,0.0,0.0,0.0,0.0,0.0,0.0,0.0,0.0,0.0,0.0,0.0,0.0,0.0,0.0,0.0,0.0,0.0,0.0,0.0,0.0,0.0,0.0,0.0,0.6842,0.9237,1.1705,1.4276,1.6388,1.7726,1.821,1.8743,1.7864,0.0,0.0,0.0,0.0,0.0,0.0,0.0,0.0,0.0,0.0,0.0,0.0,0.0,0.0,0.0,0.0,0.0,0.0,0.0,0.0,0.0,0.0,0.0,0.0,0.0,0.0,0.0,0.0,0.0,0.0,0.0,0.0,0.0,0.0,0.0,0.0,0.0,0.0,0.0,0.0,0.0,0.4435,0.4553,0.572,0.0,0.0,0.0,0.0,0.8611,0.9793,0.0,0.0,0.0,0.0,0.0,0.0,0.0,0.0,0.0,0.0,0.0,0.0,0.0,0.0,0.0,0.0,0.0,0.0,0.0,0.0,0.0,0.0,0.0,0.0,0.0,0.0,0.0,0.0,0.0,0.0,0.0,0.0,0.0,0.0,0.0,0.0,0.0,0.0,0.0,0.0,0.0,0.0,0.0,0.0,0.0,0.0,0.0,0.0,0.0,0.0,0.0,0.0,0.0,0.0,0.0,0.0,0.6101,0.8315,1.0745,1.3276,1.5272,1.6584,1.7252,1.7973,1.7184,0.0,0.0,0.0,0.0,0.0,0.0,0.0,0.0,0.0,0.0,0.0,0.0,0.0,0.0,0.0,0.0,0.0,0.0,0.0,0.0,0.0,0.0,0.0,0.0,0.0,0.0,0.0,0.0,0.0,0.0,0.0,0.0,0.0,0.0,0.0,0.0,0.0,0.0,0.0,0.0,0.3144,0.3602,0.3671,0.0,0.0,0.0,0.0,0.0,0.0,0.834,0.9249,0.0,0.0,0.0,0.0,0.0,0.0,0.0,0.0,0.0,0.0,0.0,0.0,0.0,0.0,0.0,0.0,0.0,0.0,0.0,0.0,0.0,0.0,0.0,0.0,0.0,0.0,0.0,0.0,0.0,0.0,0.0,0.0,0.0,0.0,0.0,0.0,0.0,0.0,0.0,0.0,0.0,0.0,0.0,0.0,0.0,0.0,0.0,0.0,0.0,0.0,0.0,0.0,0.0,0.0,0.0,0.5133,0.7312,0.9797,1.2278,1.4291,1.5707,1.6428,1.7472,1.6691,1.3995,0.0,0.0,0.0,0.0,0.0,0.0,0.0,0.0,0.0,0.0,0.0,0.0,0.0,0.0,0.0,0.0,0.0,0.0,0.0,0.0,0.0,0.0,0.0,0.0,0.0,0.0,0.0,0.0,0.0,0.0,0.0,0.0,0.0,0.0,0.0,0.0,0.0,0.0,0.0,0.262,0.2746,0.0,0.0,0.0,0.0,0.0,0.0,0.0,0.0,0.7685,0.0,0.0,0.0,0.0,0.0,0.0,0.0,0.0,0.0,0.0,0.0,0.0,0.0,0.0,0.0,0.0,0.0,0.0,0.0,0.0,0.0,0.0,0.0,0.0,0.0,0.0,0.0,0.0,0.0,0.0,0.0,0.0,0.0,0.0,0.0,0.0,0.0,0.0,0.0,0.0,0.0,0.0,0.0,0.0,0.0,0.0,0.0,0.0,0.0,0.0,0.0,0.0,0.0,0.0,0.0,0.0,0.6544,0.8679,1.091,1.3155,1.4724,1.5498,1.6109,1.5189,1.2627,0.0,0.0,0.0,0.0,0.0,0.0,0.0,0.0,0.0,0.0,0.0,0.0,0.0,0.0,0.0,0.0,0.0,0.0,0.0,0.0,0.0,0.0,0.0,0.0,0.0,0.0,0.0,0.0,0.0,0.0,0.0,0.0,0.0,0.0,0.0,0.0,0.0,0.0,0.2128,0.2417,0.0,0.0,0.0,0.0,0.0,0.0,0.0,0.0,0.562,0.0,0.0,0.0,0.0,0.0,0.0,0.0,0.0,0.0,0.0,0.0,0.0,0.0,0.0,0.0,0.0,0.0,0.0,0.0,0.0,0.0,0.0,0.0,0.0,0.0,0.0,0.0,0.0,0.0,0.0,0.0,0.0,0.0,0.0,0.0,0.0,0.0,0.0,0.0,0.0,0.0,0.0,0.0,0.0,0.0,0.0,0.0,0.0,0.0,0.0,0.0,0.0,0.0,0.0,0.0,0.0,0.0,0.0,0.7671,0.9951,1.2047,1.3605,1.4354,1.4242,1.3322,0.0,0.0,0.0,0.0,0.0,0.0,0.0,0.0,0.0,0.0,0.0,0.0,0.0,0.0,0.0,0.0,0.0,0.0,0.0,0.0,0.0,0.0,0.0,0.0,0.0,0.0,0.0,0.0,0.0,0.0,0.0,0.0,0.0,0.0,0.0,0.0,0.0,0.0,0.0,0.0,0.0,0.0,0.0,0.0,0.0,0.0,0.0,0.0,0.0,0.0,0.0,0.0,0.0,0.0,0.0,0.0,0.0,0.0,0.0,0.0,0.0,0.0,0.0,0.0,0.0,0.0,0.0,0.0,0.0,0.0,0.0,0.0,0.0,0.0,0.0,0.0,0.0,0.0,0.0,0.0,0.0,0.0,0.0,0.0,0.0,0.0,0.0,0.0,0.0,0.0,0.0,0.0,0.0,0.0,0.0,0.0,0.0,0.0,0.0,0.0,0.0,0.0,0.0,0.0,0.0,0.0,0.0,0.0,0.6715,0.8954,1.0982,1.2523,1.3309,1.251,1.1772,0.0,0.0,0.0,0.0,0.0,0.0,0.0,0.0,0.0,0.0,0.0,0.0,0.0,0.0,0.0,0.0,0.0,0.0,0.0,0.0,0.0,0.0,0.0,0.0,0.0,0.0,0.0,0.0,0.0,0.0,0.0,0.0,0.0,0.0,0.0,0.0,0.0,0.0,0.0,0.0,0.0,0.0,0.0,0.0,0.0,0.0,0.0,0.0,0.3523,0.0,0.0,0.0,0.0,0.0,0.0,0.0,0.0,0.0,0.0,0.0,0.0,0.0,0.0,0.0,0.0,0.0,0.0,0.0,0.0,0.0,0.0,0.0,0.0,0.0,0.0,0.0,0.0,0.0,0.0,0.0,0.0,0.0,0.0,0.0,0.0,0.0,0.0,0.0,0.0,0.0,0.0,0.0,0.0,0.0,0.0,0.0,0.0,0.0,0.0,0.0,0.0,0.0,0.0,0.0,0.0,0.0,0.0,0.0,0.5933,0.7891,0.9831,1.1437,1.2708,1.1962,1.0955,0.0,0.0,0.0,0.0,0.0,0.0,0.0,0.0,0.0,0.0,0.0,0.0,0.0,0.0,0.0,0.0,0.0,0.0,0.0,0.0,0.0,0.0,0.0,0.0,0.0,0.0,0.0,0.0,0.0,0.0,0.0,0.0,0.0,0.0,0.0,0.0,0.0,0.0,0.0,0.0,0.0,0.0,0.0,0.0,0.0,0.0,0.0,0.0,0.0,0.0,0.0,0.0,0.0,0.0,0.0,0.0,0.0,0.0,0.0,0.0,0.0,0.0,0.0,0.0,0.0,0.0,0.0,0.0,0.0,0.0,0.0,0.0,0.0,0.0,0.0,0.0,0.0,0.0,0.0,0.0,0.0,0.0,0.0,0.0,0.0,0.0,0.0,0.0,0.0,0.0,0.0,0.0,0.0,0.0,0.0,0.0,0.0,0.0,0.0,0.0,0.0,0.0,0.0,0.0,0.0,0.0,0.0,0.0,0.5703,0.7091,0.9111,1.0143,1.0155,1.0014,0.9362,0.0,0.0,0.0,0.0,0.0,0.0,0.0,0.0,0.0,0.0,0.0,0.0,0.0,0.0,0.0,0.0,0.0,0.0,0.0,0.0,0.0,0.0,0.0,0.0,0.0,0.0,0.0,0.0,0.0,0.0,0.0,0.0,0.0,0.0,0.0,0.0,0.0,0.0,0.0,0.0,0.0,0.0,0.0,0.0,0.0,0.0,0.0,0.0,0.0,0.0,0.0,0.0,0.0,0.0,0.0,0.0,0.0,0.0,0.0,0.0,0.0,0.0,0.0,0.0,0.0,0.0,0.0,0.0,0.0,0.0,0.0,0.0,0.0,0.0,0.0,0.0,0.0,0.0,0.0,0.0,0.0,0.0,0.0,0.0,0.0,0.0,0.0,0.0,0.0,0.0,0.0,0.0,0.0,0.0,0.0,0.0,0.0,0.0,0.0,0.0,0.0,0.0,0.0,0.0,0.0,0.0,0.0,0.0,0.0,0.6123,0.7722,0.8303,0.783,0.7989,0.7576,0.0,0.0,0.0,0.0,0.0,0.0,0.0,0.0,0.0,0.0,0.0,0.0,0.0,0.0,0.0,0.0,0.0,0.0,0.0,0.0,0.0,0.0,0.0,0.0,0.0,0.0,0.0,0.0,0.0,0.0,0.0,0.0,0.0,0.0,0.0,0.0,0.0,0.0,0.0,0.0,0.0,0.0,0.0,0.0,0.0,0.0,0.0,0.0,0.0,0.0,0.0,0.0,0.0,0.0,0.0,0.0,0.0,0.0,0.0,0.0,0.0,0.0,0.0,0.0,0.0,0.0,0.0,0.0,0.0,0.0,0.0,0.0,0.0,0.0,0.0,0.0,0.0,0.0,0.0,0.0,0.0,0.0,0.0,0.0,0.0,0.0,0.0,0.0,0.0,0.0,0.0,0.0,0.0,0.0,0.0,0.0,0.0,0.0,0.0,0.0,0.0,0.0,0.0,0.0,0.0,0.0,0.0,0.0,0.0,0.4919,0.535,0.5749,0.6277,0.6399,0.5859,0.0,0.0,0.0,0.0,0.0,0.0,0.0,0.0,0.0,0.0,0.0,0.0,0.0,0.0,0.0,0.0,0.0,0.0,0.0,0.0,0.0,0.0,0.0,0.0,0.0,0.0,0.0,0.0,0.0,0.0,0.0,0.0,0.0,0.0,0.0,0.0,0.0,0.0,0.0,0.0,0.0,0.0,0.0,0.0,0.0,0.0,0.0,0.0,0.0,0.0,0.0,0.0,0.0,0.0,0.0,0.0,0.0,0.0,0.0,0.0,0.0,0.0,0.0,0.0,0.0,0.0,0.0,0.0,0.0,0.0,0.0,0.0,0.0,0.0,0.0,0.0,0.0,0.0,0.0,0.0,0.0,0.0,0.0,0.0,0.0,0.0,0.0,0.0,0.0,0.0,0.0,0.0,0.0,0.0,0.0,0.0,0.0,0.0,0.0,0.0,0.0,0.0,0.0,0.0,0.0,0.0,0.0,0.0,0.0,0.2907,0.3929,0.4504,0.4379,0.4567,0.422,0.3386,0.0,0.0,0.0,0.0,0.0,0.0,0.0,0.0,0.0,0.0,0.0,0.0,0.0,0.0,0.0,0.0,0.0,0.0,0.0,0.0,0.0,0.0,0.0,0.0,0.0,0.0,0.0,0.0,0.0,0.0,0.0,0.0,0.0,0.0,0.0,0.0,0.0,0.0,0.0,0.0,0.0,0.0,0.0,0.0,0.0,0.0,0.0,0.0,0.0,0.0,0.0,0.0,0.0,0.0,0.0,0.0,0.0,0.0,0.0,0.0,0.0,0.0,0.0,0.0,0.0,0.0,0.0,0.0,0.0,0.0,0.0,0.0,0.0,0.0,0.0,0.0,0.0,0.0,0.0,0.0,0.0,0.0,0.0,0.0,0.0,0.0,0.0,0.0,0.0,0.0,0.0,0.0,0.0,0.0,0.0,0.0,0.0,0.0,0.0,0.0,0.0,0.0,0.0,0.0,0.0,0.0,0.0,0.0,0.131,0.2583,0.3095,0.292,0.3035,0.2796,0.0,0.0,0.0,0.0,0.0,0.0,0.0,0.0,0.0,0.0,0.0,0.0,0.0,0.0,0.0,0.0,0.0,0.0,0.0,0.0,0.0,0.0,0.0,0.0,0.0,0.0,0.0,0.0,0.0,0.0,0.0,0.0,0.0,0.0,0.0,0.0,0.0,0.0,0.0,0.0,0.0,0.0,0.0,0.0,0.0,0.0,0.0,0.0,0.0,0.0,0.0,0.0,0.0,0.0,0.0,0.0,0.0,0.0,0.0,0.0,0.0,0.0,0.0,0.0,0.0,0.0,0.0,0.0,0.0,0.0,0.0,0.0,0.0,0.0,0.0,0.0,0.0,0.0,0.0,0.0,0.0,0.0,0.0,0.0,0.0,0.0,0.0,0.0,0.0,0.0,0.0,0.0,0.0,0.0,0.0,0.0,0.0,0.0,0.0,0.0,0.0,0.0,0.0,0.0,0.0,0.0,0.0,0.0,-0.1004,0.0376,0.1046,0.1629,0.2157,0.1924,0.1656,0.0,0.0,0.0,0.0,0.0,0.0,0.0,0.0,0.0,0.0,0.0,0.0,0.0,0.0,0.0,0.0,0.0,0.0,0.0,0.0,0.0,0.0,0.0,0.0,0.0,0.0,0.0,0.0,0.0,0.0,0.0,0.0,0.0,0.0,0.0,0.0,0.0,0.0,0.0,0.0,0.0,0.0,0.0,0.0,0.0,0.0,0.0,0.0,0.0,0.0,0.0,0.0,0.0,0.0,0.0,0.0,0.0,0.0,0.0,0.0,0.0,0.0,0.0,0.0,0.0,0.0,0.0,0.0,0.0,0.0,0.0,0.0,0.0,0.0,0.0,0.0,0.0,0.0,0.0,0.0,0.0,0.0,0.0,0.0,0.0,0.0,0.0,0.0,0.0,0.0,0.0,0.0,0.0,0.0,0.0,0.0,0.0,0.0,0.0,0.0,0.0,0.0,0.0,0.0,0.0,0.0,0.0,0.0,0.0,-0.1071,0.0,0.0316,0.0,0.1103,0.1175,0.0,0.0,0.0,0.0,0.0,0.0,0.0,0.0,0.0,0.0,0.0,0.0,0.0,0.0,0.0,0.0,0.0,0.0,0.0,0.0,0.0,0.0,0.0,0.0,0.0,0.0,0.0,0.0,0.0,0.0,0.0,0.0,0.0,0.0,0.0,0.0,0.0,0.0,0.0,0.0,0.0,0.0,0.0,0.0,0.0,0.0,0.0,0.0,0.0,0.0,0.0,0.0,0.0,0.0,0.0,0.0,0.0,0.0,0.0,0.0,0.0,0.0,0.0,0.0,0.0,0.0,0.0,0.0,0.0,0.0,0.0,0.0,0.0,0.0,0.0,0.0,0.0,0.0,0.0,0.0,0.0,0.0,0.0,0.0,0.0,0.0,0.0,0.0,0.0,0.0,0.0,0.0,0.0,0.0,0.0,0.0,0.0,0.0,0.0,0.0,0.0,0.0,0.0,0.0,0.0,0.0,0.0,0.0,0.0,-0.1647,-0.129,-0.0688,0.0094,0.0466,0.0713,0.0,0.0,0.0,0.0,0.0,0.0,0.0,0.0,0.0,0.0,0.0,0.0,0.0,0.0,0.0,0.0,0.0,0.0,0.0,0.0,0.0,0.0,0.0,0.0,0.0,0.0,0.0,0.0,0.0,0.0,0.0,0.0,0.0,0.0,0.0,0.0,0.0,0.0,0.0,0.0,0.0,0.0,0.0,0.0,0.0,0.0,0.0,0.0,0.0,0.0,0.0,0.0,0.0,0.0,0.0,0.0,0.0,0.0,0.0,0.0,0.0,0.0,0.0,0.0,0.0,0.0,0.0,0.0,0.0,0.0,0.0,0.0,0.0,0.0,0.0,0.0,0.0,0.0,0.0,0.0,0.0,0.0,0.0,0.0,0.0,0.0,0.0,0.0,0.0,0.0,0.0,0.0,0.0,0.0,0.0,0.0,0.0,0.0,0.0,0.0,0.0,0.0,0.0,0.0,0.0,0.0,0.0,0.0,0.0,-0.16,-0.1813,-0.1424,-0.0472,-0.0072,0.0292,0.0,0.0,0.0,0.0,0.0,0.0,0.0,0.0,0.0,0.0,0.0,0.0,0.0,0.0,0.0,0.0,0.0,0.0,0.0,0.0,0.0,0.0,0.0,0.0,0.0,0.0,0.0,0.0,0.0,0.0,0.0,0.0,0.0,0.0,0.0,0.0,0.0,0.0,0.0,0.0,0.0,0.0,0.0,0.0,0.0,0.0,0.0,0.0,0.0,0.0,0.0,0.0,0.0,0.0,0.0,0.0,0.0,0.0,0.0,0.0,0.0,0.0,0.0,0.0,0.0,0.0,0.0,0.0,0.0,0.0,0.0,0.0,0.0,0.0,0.0,0.0,0.0,0.0,0.0,0.0,0.0,0.0,0.0,0.0,0.0,0.0,0.0,0.0,0.0,0.0,0.0,0.0,0.0,0.0,0.0,0.0,0.0,0.0,0.0,0.0,0.0,0.0,0.0,0.0,0.0,0.0,0.0,0.0,0.0,0.0,-0.1749,-0.1536,-0.1201,-0.0498,0.0029,0.0287,0.0,0.0,0.0,0.0,0.0,0.0,0.0,0.0,0.0,0.0,0.0,0.0,0.0,0.0,0.0,0.0,0.0,0.0,0.0,0.0,0.0,0.0,0.0,0.0,0.0,0.0,0.0,0.0,0.0,0.0,0.0,0.0,0.0,0.0,0.0,0.0,0.0,0.0,0.0,0.0,0.0,0.0,0.0,0.0,0.0,0.0,0.0,0.0,0.0,0.0,0.0,0.0,0.0,0.0,0.0,0.0,0.0,0.0,0.0,0.0,0.0,0.0,0.0,0.0,0.0,0.0,0.0,0.0,0.0,0.0,0.0,0.0,0.0,0.0,0.0,0.0,0.0,0.0,0.0,0.0,0.0,0.0,0.0,0.0,0.0,0.0,0.0,0.0,0.0,0.0,0.0,0.0,0.0,0.0,0.0,0.0,0.0,0.0,0.0,0.0,0.0,0.0,0.0,0.0,0.0,0.0,0.0,0.0,0.0,0.0,-0.1639,-0.1495,-0.0953,-0.0402,0.0,0.0,0.0,0.0,0.0,0.0,0.0,0.0,0.0,0.0,0.0,0.0,0.0,0.0,0.0,0.0,0.0,0.0,0.0,0.0,0.0,0.0,0.0,0.0,0.0,0.0,0.0,0.0,0.0,0.0,0.0,0.0,0.0,0.0,0.0,0.0,0.0,0.0,0.0,0.0,0.0,0.0,0.0,0.0,0.0,0.0,0.0,0.0,0.0,0.0,0.0,0.0,0.0,0.0,0.0,0.0,0.0,0.0,0.0,0.0,0.0,0.0,0.0,0.0,0.0,0.0,0.0,0.0,0.0,0.0,0.0,0.0,0.0,0.0,0.0,0.0,0.0,0.0,0.0,0.0,0.0,0.0,0.0,0.0,0.0,0.0,0.0,0.0,0.0,0.0,0.0,0.0,0.0,0.0,0.0,0.0,0.0,0.0,0.0,0.0,0.0,0.0,0.0,0.0,0.0,0.0,0.0,0.0,0.0,0.0,0.0,-0.1781,-0.1392,-0.1377,0.0,-0.0188,0.0,0.0,0.0,0.0,0.0,0.0,0.0,0.0,0.0,0.0,0.0,0.0,0.0,0.0,0.0,0.0,0.0,0.0,0.0,0.0,0.0,0.0,0.0,0.0,0.0,0.0,0.0,0.0,0.0,0.0,0.0,0.0,0.0,0.0,0.0,0.0,0.0,0.0,0.0,0.0,0.0,0.0,0.0,0.0,0.0,0.0,0.0,0.0,0.0,0.0,0.0,0.0,0.0,0.0,0.0,0.0,0.0,0.0,0.0,0.0,0.0,0.0,0.0,0.0,0.0,0.0,0.0,0.0,0.0,0.0,0.0,0.0,0.0,0.0,0.0,0.0,0.0,0.0,0.0,0.0,0.0,0.0,0.0,0.0,0.0,0.0,0.0,0.0,0.0,0.0,0.0,0.0,0.0,0.0,0.0,0.0,0.0,0.0,0.0,0.0,0.0,0.0,0.0,0.0,0.0,0.0,0.0,0.0,0.0,0.0,0.0,0.0,-0.1427,-0.1214,-0.0897,0.0,0.0,0.0,0.0,0.0,0.0,0.0,0.0,0.0,0.0,0.0,0.0,0.0,0.0,0.0,0.0,0.0,0.0,0.0,0.0,0.0,0.0,0.0,0.0,0.0,0.0,0.0,0.0,0.0,0.0,0.0,0.0,0.0,0.0,0.0,0.0,0.0,0.0,0.0,0.0,0.0,0.0,0.0,0.0,0.0,0.0,0.0,0.0,0.0,0.0,0.0,0.0,0.0,0.0,0.0,0.0,0.0,0.0,0.0,0.0,0.0,0.0,0.0,0.0,0.0,0.0,0.0,0.0,0.0,0.0,0.0,0.0,0.0,0.0,0.0,0.0,0.0,0.0,0.0,0.0,0.0,0.0,0.0,0.0,0.0,0.0,0.0,0.0,0.0,0.0,0.0,0.0,0.0,0.0,0.0,0.0,0.0,0.0,0.0,0.0,0.0,0.0,0.0,0.0,0.0,0.0,0.0,0.0,0.0,0.0,-0.2322,-0.1927,-0.1685,-0.147,-0.1346,0.0,0.0,0.0,0.0,0.0,0.0,0.0,0.0,0.0,0.0,0.0,0.0,0.0,0.0,0.0,0.0,0.0,0.0,0.0,0.0,0.0,0.0,0.0,0.0,0.0,0.0,0.0,0.0,0.0,0.0,0.0,0.0,0.0,0.0,0.0,0.0,0.0,0.0,0.0,0.0,0.0,0.0,0.0,0.0,0.0,0.0,0.0,0.0,0.0,0.0,0.0,0.0,0.0,0.0,0.0,0.0,0.0,0.0,0.0,0.0,0.0,0.0,0.0,0.0,0.0,0.0,0.0,0.0,0.0,0.0,0.0,0.0,0.0,0.0,0.0,0.0,0.0,0.0,0.0,0.0,0.0,0.0,0.0,0.0,0.0,0.0,0.0,0.0,0.0,0.0,0.0,0.0,0.0,0.0,0.0,0.0,0.0,0.0,0.0,0.0,0.0,0.0,0.0,0.0,0.0,0.0,0.0,0.0,0.0,0.0,0.0,0.0,0.0,0.0,-0.1633,0.0,0.0,0.0,0.0,0.0,0.0,0.0,0.0,0.0,0.0,0.0,0.0,0.0,0.0,0.0,0.0,0.0,0.0,0.0,0.0,0.0,0.0,0.0,0.0,0.0,0.0,0.0,0.0,0.0,0.0,0.0,0.0,0.0,0.0,0.0,0.0,0.0,0.0,0.0,0.0,0.0,0.0,0.0,0.0,0.0,0.0,0.0,0.0,0.0,0.0,0.0,0.0,0.0,0.0,0.0,0.0,0.0,0.0,0.0,0.0,0.0,0.0,0.0,0.0,0.0,0.0,0.0,0.0,0.0,0.0,0.0,0.0,0.0,0.0,0.0,0.0,0.0,0.0,0.0,0.0,0.0,0.0,0.0,0.0,0.0,0.0,0.0,0.0,0.0,0.0,0.0,0.0,0.0,0.0,0.0,0.0,0.0,0.0,0.0,0.0,0.0,0.0,0.0,0.0,0.0,0.0,0.0,0.0,0.0,0.0,0.0,0.0,0.0,0.0,0.0,0.0,0.0,0.0,0.0,0.0,0.0,0.0,0.0,0.0,0.0,0.0,0.0,0.0,0.0,0.0,0.0,0.0,0.0,0.0,0.0,0.0,0.0,0.0,0.0,0.0,0.0,0.0,0.0,0.0,0.0,0.0,0.0,0.0,0.0,0.0,0.0,0.0,0.0,0.0,0.0,0.0,0.0,0.0,0.0,0.0,0.0,0.0,0.0,0.0,0.0,0.0,0.0,0.0,0.0,0.0,0.0,0.0,0.0,0.0,0.0,0.0,0.0,0.0,0.0,0.0,0.0,0.0,0.0,0.0,0.0,0.0,0.0,0.0,0.0,0.0,0.0,0.0,0.0,0.0,0.0,0.0,0.0,0.0,0.0,0.0,0.0,0.0,0.0,0.0,0.0,0.0,0.0,0.0,0.0,0.0,0.0,0.0,0.0,0.0,0.0,0.0,0.0,0.0,0.0,0.0,0.0,0.0,0.0,0.0,0.0,0.0,0.0,0.0,0.0,0.0,0.0,0.0,0.0,0.0,0.0,0.0,0.0,0.0,0.0,0.0,0.0,0.0,0.0,0.0,0.0,0.0,0.0,0.0,0.0,0.0,0.0,0.0,0.0,0.0,0.0,0.0,0.0,0.0,0.0,0.0,0.0,0.0,0.0,0.0,0.0,0.0,0.0,0.0,0.0,0.0,0.0,0.0,0.0,0.0,0.0,0.0,0.0,0.0,0.0,0.0,0.0,0.0,0.0,0.0,0.0,0.0,0.0,0.0,0.0,0.0,0.0,0.0,0.0,0.0,0.0,0.0,0.0,0.0,0.0,0.0,0.0,0.0,0.0,0.0,0.0,0.0,0.0,0.0,0.0,0.0,0.0,0.0,0.0,0.0,0.0,0.0,0.0,0.0,0.0,0.0,0.0,0.0,0.0,0.0,0.0,0.0,0.0,0.0,0.0,0.0,0.0,0.0,0.0,0.0,0.0,0.0,0.0,0.0,0.0,0.0,0.0,0.0,0.0,0.0,0.0,0.0,0.0,0.0,0.0,0.0,0.0,0.0,0.0,0.0,0.0,0.0,0.0,0.0,0.0,0.0,0.0,0.0,0.0,0.0,0.0,0.0,0.0,0.0,0.0,0.0,0.0,0.0,0.0,0.0,0.0,0.0,0.0,0.0,0.0,0.0,0.0,0.0,0.0,0.0,0.0,0.0,0.0,0.0,0.0,0.0,0.0,0.0,0.0,0.0,0.0,0.0,0.0,0.0,0.0,0.0,0.0,0.0,0.0,0.0,0.0,0.0,0.0,0.0,0.0,0.0,0.0,0.0,0.0,0.0,0.0,0.0,0.0,0.0,0.0,0.0,0.0,0.0,0.0,0.0,0.0,0.0,0.0,0.0,0.0,0.0,0.0,0.0,0.0,0.0,0.0,0.0,0.0,0.0,0.0,0.0,0.0,0.0,0.0,0.0,0.0,0.0,0.0,0.0,0.0,0.0,0.0,0.0,0.0,0.0,0.0,0.0,0.0,0.0,0.0,0.0,0.0,0.0,0.0,0.0,0.0,0.0,0.0,0.0,0.0,0.0,0.0,0.0,0.0,0.0,0.0,0.0,0.0,0.0,0.0,0.0,0.0,0.0,0.0,0.0,0.0,0.0,0.0,0.0,0.0,0.0,0.0,0.0,0.0,0.0,0.0,0.0,0.0,0.0,0.0,0.0,0.0,0.0,0.0,0.0,0.0,0.0,0.0,0.0,0.0,0.0,0.0,0.0,0.0,0.0,0.0,0.0,0.0,0.0,0.0,0.0,0.0,0.0,0.0,0.0,0.0,0.0,0.0,0.0,0.0,0.0,0.0,0.0,0.0,0.0,0.0,0.0,0.0,0.0,0.0,0.0,0.0,0.0,0.0,0.0,0.0,0.0,0.0,0.0,0.0,0.0,0.0,0.0,0.0,0.0,0.0,0.0,0.0,0.0,0.0,0.0,0.0,0.0,0.0,0.0,0.0,0.0,0.0,0.0,0.0,0.0,0.0,0.0,0.0,0.0,0.0,0.0,0.0,0.0,0.0,0.0,0.0,0.0,0.0,0.0,0.0,0.0,0.0,0.0,0.0,0.0,0.0,0.0,0.0,0.0,0.0,0.0,0.0,0.0,0.0,0.0,0.0,0.0,0.0,0.0,0.0,0.0,0.0,0.0,0.0,0.0,0.0,0.0,0.0,0.0,0.0,0.0,0.0,0.0,0.0,0.0,0.0,0.0,0.0,0.0,0.0,0.0,0.0,0.0,0.0,0.0,0.0,0.0,0.0,0.0,0.0,0.0,0.0,0.0,0.0,0.0,0.0,0.0,0.0,0.0,0.0,0.0,0.0,0.0,0.0,0.0,0.0,0.0,0.0,0.0,0.0,0.0,0.0,0.0,0.0,0.0,0.0,0.0,0.0,0.0,0.0,0.0,0.0,0.0,0.0,0.0,0.0,0.0,0.0,0.0,0.0,0.0,0.0,0.0,0.0,0.0,0.0,0.0,0.0,0.0,0.0,0.0,0.0,0.0,0.0,0.0,0.0,0.0,0.0,0.0,0.0,0.0,0.0,0.0,0.0,0.0,0.0,0.0,0.0,0.0,0.0,0.0,0.0,0.0,0.0,0.0,0.0,0.0,0.0,0.0,0.0,0.0,0.0,0.0,0.0,0.0,0.0,0.0,0.0,0.0,0.0,0.0,0.0,0.0,0.0,0.0,0.0,0.0,0.0,0.0,0.0,0.0,0.0,0.0,0.0,0.0,0.0,0.0,0.0,0.0,0.0,0.0,0.0,0.0,0.0,0.0,0.0,0.0,0.0,0.0,0.0,0.0,0.0,0.0,0.0,0.0,0.0,0.0,0.0,0.0,0.0,0.0,0.0,0.0,0.0,0.0,0.0,0.0,0.0,0.0,0.0,0.0,0.0,0.0,0.0,0.0,0.0,0.0,0.0,0.0,0.0,0.0,0.0,0.0,0.0,0.0,0.0,0.0,0.0,0.0,0.0,0.0,0.0,0.0,0.0,0.0,0.0,0.0,0.0,0.0,0.0,0.0,0.0,0.0,0.0,0.0,0.0,0.0,0.0,0.0,0.0,0.0,0.0,0.0,0.0,0.0,0.0,0.0,0.0,0.0,0.0,0.0,0.0,0.0,0.0,0.0,0.0,0.0,0.0,0.0,0.0,0.0,0.0,0.0,0.0,0.0,0.0,0.0,0.0,0.0,0.0,0.0,0.0,0.0,0.0,0.0,0.0,0.0,0.0,0.0,0.0,0.0,0.0,0.0,0.0,0.0,0.0,0.0,0.0,0.0,0.0,0.0,0.0,0.0,0.0,0.0,0.0,0.0,0.0,0.0,0.0,0.0,0.0,0.0,0.0,0.0,0.0,0.0,0.0,0.0,0.0,0.0,0.0,0.0,0.0,0.0,0.0,0.0,0.0,0.0,0.0,0.0,0.0,0.0,0.0,0.0,0.0,0.0,0.0,0.0,0.0,0.0,0.0,0.0,0.0,0.0,0.0,0.0,0.0,0.0,0.0,0.0,0.0,0.0,0.0,0.0,0.0,0.0,0.0,0.0,0.0,0.0,0.0,0.0,0.0,0.0,0.0,0.0,0.0,0.0,0.0,0.0,0.0,0.0,0.0,0.0,0.0,0.0,0.0,0.0,0.0,0.0,0.0,0.0,0.0,0.0,0.0,0.0,0.0,0.0,0.0,0.0,0.0,0.0,0.0,0.0,0.0,0.0,0.0,0.0,0.0,0.0,0.0,0.0,0.0,0.0,0.0,0.0,0.0,0.0,0.0,0.0,0.0,0.0,0.0,0.0,0.0,0.0,0.0,0.0,0.0,0.0,0.0,0.0]}]]]